[[{"header":{"parameterUnit":"m.s-1","parameterCategory":1,"la1":31.0,"la2":29.5877,"lo1":-88.7671,"lo2":-86.6584,"dy":0.0162,"dx":0.0185,"nx":115,"ny":88,"refTime":"2023-03-05T06:00:00:Z","depth":0,"parameterNumber":2,"parameterNumberName":"U-component_of_WINDS"},"data":[0.0,0.0,0.0,0.0,0.0,0.0,0.0,0.0,0.0,0.0,0.0,0.0,0.0,0.0,0.0,0.0,0.0,0.0,0.0,0.0,0.0,0.0,0.0,0.0,0.0,0.0,0.0,0.0,0.0,0.0,0.0,0.0,0.0,0.0,0.0,0.0,0.0,0.0,0.0,0.0,0.0,0.0,0.0,0.0,0.0,0.0,0.0,0.0,0.0,0.0,0.0,0.0,0.0,0.0,0.0,0.0,0.0,0.0,0.0,0.0,0.0,0.0,0.0,0.0,0.0,0.0,0.0,0.0,0.0,0.0,0.0,0.0,0.0,0.0,0.0,0.0,0.0,0.0,0.0,0.0,0.0,0.0,0.0,0.0,0.0,0.0,0.0,0.0,0.0,0.0,0.0,0.0,0.0,0.0,0.0,0.0,0.0,0.0,0.0,0.0,0.0,0.0,0.0,0.0,0.0,0.0,0.0,0.0,0.0,0.0,0.0,0.0,0.0,0.0,0.0,0.0,0.0,0.0,0.0,0.0,0.0,0.0,0.0,0.0,0.0,0.0,0.0,0.0,0.0,0.0,0.0,0.0,0.0,0.0,0.0,0.0,0.0,0.0,0.0,0.0,0.0,0.0,0.0,0.0,0.0,0.0,0.0,0.0,0.0,0.0,0.0,0.0,0.0,0.0,0.0,0.0,0.0,0.0,0.0,0.0,0.0,0.0,0.0,0.0,0.0,0.0,0.0,0.0,0.0,0.0,0.0,0.0,0.0,0.0,0.0,0.0,0.0,0.0,0.0,0.0,0.0,0.0,0.0,0.0,0.0,0.0,0.0,0.0,0.0,0.0,0.0,0.0,0.0,0.0,0.0,0.0,0.0,0.0,0.0,0.0,0.0,0.0,0.0,0.0,0.0,0.0,0.0,0.0,0.0,0.0,0.0,0.0,0.0,0.0,0.0,0.0,0.0,0.0,0.0,0.0,0.0,0.0,0.0,0.0,0.0,0.0,0.0,0.0,0.0,0.0,0.0,0.0,0.0,0.0,0.0,0.0,0.0,0.0,0.0,0.0,0.0,0.0,0.0,0.0,0.0,0.0,0.0,0.0,0.0,0.0,0.0,0.0,0.0,0.0,0.0,0.0,0.0,0.0,0.0,0.0,0.0,0.0,0.0,0.0,0.0,0.0,0.0,0.0,0.0,0.0,0.0,0.0,0.0,0.0,0.0,0.0,0.0,0.0,0.0,0.0,0.0,0.0,0.0,0.0,0.0,0.0,0.0,0.0,0.0,0.0,0.0,0.0,0.0,0.0,0.0,0.0,0.0,0.0,0.0,0.0,0.0,0.0,0.0,0.0,0.0,0.0,0.0,0.0,0.0,0.0,0.0,0.0,0.0,0.0,0.0,0.0,0.0,0.0,0.0,0.0,0.0,0.0,0.0,0.0,0.0,0.0,0.0,0.0,0.0,0.0,0.0,0.0,0.0,0.0,0.0,0.0,0.0,0.0,0.0,0.0,0.0,0.0,0.0,0.0,0.0,0.0,0.0,0.0,0.0,0.0,0.0,0.0,0.0,0.0,0.0,0.0,0.0,0.0,0.0,0.0,0.0,0.0,0.0,0.0,0.0,0.0,0.0,0.0,0.0,0.0,0.0,0.0,0.0,0.0,0.0,0.0,0.0,0.0,0.0,0.0,0.0,0.0,0.0,0.0,0.0,0.0,0.0,0.0,0.0,0.0,0.0,0.0,0.0,0.0,0.0,0.0,0.0,0.0,0.0,0.0,0.0,0.0,0.0,0.0,0.0,0.0,0.0,0.0,0.0,0.0,0.0,0.0,0.0,0.0,0.0,0.0,0.0,0.0,0.0,0.0,0.0,0.0,0.0,0.0,0.0,0.0,0.0,0.0,0.0,0.0,0.0,0.0,0.0,0.0,0.0,0.0,0.0,0.0,0.0,0.0,0.0,0.0,0.0,0.0,0.0,0.0,0.0,0.0,0.0,0.0,0.0,0.0,0.0,0.0,0.0,0.0,0.0,0.0,0.0,0.0,0.0,0.0,0.0,0.0,0.0,0.0,0.0,0.0,0.0,0.0,0.0,0.0,0.0,0.0,0.0,0.0,0.0,0.0,0.0,0.0,0.0,0.0,0.0,0.0,0.0,0.0,0.0,0.0,0.0,0.0,0.0,0.0,0.0,0.0,0.0,0.0,0.0,0.0,0.0,0.0,0.0,0.0,0.0,0.0,0.0,0.0,0.0,0.0,0.0,0.0,0.0,0.0,0.0,0.0,0.0,0.0,0.0,0.0,0.0,0.0,0.0,0.0,0.0,0.0,0.0,0.0,0.0,0.0,0.0,0.0,0.0,0.0,0.0,0.0,0.0,0.0,0.0,0.0,0.0,0.0,0.0,0.0,0.0,0.0,0.0,0.0,0.0,0.0,0.0,0.0,0.0,0.0,0.0,0.0,0.0,0.0,0.0,0.0,0.0,0.0,0.0,0.0,0.0,0.0,0.0,0.0,0.0,0.0,0.0,0.0,0.0,0.0,0.0,0.0,0.0,0.0,0.0,0.0,0.0,0.0,0.0,0.0,0.0,0.0,0.0,0.0,0.0,0.0,0.0,0.0,0.0,0.0,0.0,0.0,0.0,0.0,0.0,0.0,0.0,0.0,0.0,0.0,0.0,0.0,0.0,0.0,0.0,0.0,0.0,0.0,0.0,0.0,0.0,0.0,0.0,0.0,0.0,0.0,0.0,0.0,0.0,0.0,0.0,0.0,0.0,0.0,0.0,0.0,0.0,0.0,0.0,0.0,0.0,0.0,0.0,0.0,0.0,0.0,0.0,0.0,0.0,0.0,0.0,0.0,0.0,0.0,0.0,0.0,0.0,0.0,0.0,0.0,0.0,0.0,0.0,0.0,0.0,0.0,0.0,0.0,0.0,0.0,0.0,0.0,0.0,0.0,0.0,0.0,0.0,0.0,0.0,0.0,0.0,0.0,0.0,0.0,0.0,0.0,0.0,0.0,0.0,0.0,0.0,0.0,0.0,0.0,0.0,0.0,0.0,0.0,0.0,0.0,0.0,0.0,0.0,0.0,0.0,0.0,0.0,0.0,0.0,0.0,0.0,0.0,0.0,0.0,0.0,0.0,0.0,0.0,0.0,0.0,0.0,0.0,0.0,0.0,0.0,0.0,0.0,0.0,0.0,0.0,0.0,0.0,0.0,0.0,0.0,0.0,0.0,0.0,0.0,0.0,0.0,0.0,0.0,0.0,0.0,0.0,0.0,0.0,0.0,0.0,0.0,0.0,0.0,0.0,0.0,0.0,0.0,0.0,0.0,0.0,0.0,0.0,0.0,0.0,0.0,0.0,0.0,0.0,0.0,0.0,0.0,0.0,0.0,0.0,0.0,0.0,0.0,0.0,0.0,0.0,0.0,0.0,0.0,0.0,0.0,0.0,0.0,0.0,0.0,0.0,0.0,0.0,0.0,0.0,0.0,0.0,0.0,0.0,0.0,0.0,0.0,0.0,0.0,0.0,0.0,0.0,0.0,0.0,0.0,0.0,0.0,0.0,0.0,0.0,0.0,0.0,0.0,0.0,0.0,0.0,0.0,0.0,0.0,0.0,0.0,0.0,0.0,0.0,0.0,0.0,0.0,0.0,0.0,0.0,0.0,0.0,0.0,0.0,0.0,0.0,0.0,0.0,0.0,0.0,0.0,0.0,0.0,0.0,0.0,0.0,0.0,0.0,0.0,0.0,0.0,0.0,0.0,0.0,0.0,0.0,0.0,0.0,0.0,0.0,0.0,0.0,0.0,0.0,0.0,0.0,0.0,0.0,0.0,0.0,0.0,0.0,0.0,0.0,0.0,0.0,0.0,0.0,0.0,0.0,0.0,0.0,0.0,0.0,0.0,0.0,0.0,0.0,0.0,0.0,0.0,0.0,0.0,0.0,0.0,0.0,0.0,0.0,0.0,0.0,0.0,0.0,0.0,0.0,0.0,0.0,0.0,0.0,0.0,0.0,0.0,0.0,0.0,0.0,0.0,0.0,0.0,0.0,0.0,0.0,0.0,0.0,0.0,0.0,0.0,0.0,0.0,0.0,0.0,0.0,0.0,0.0,0.0,0.0,0.0,0.0,0.0,0.0,0.0,0.0,0.0,0.0,0.0,0.0,0.0,0.0,0.0,0.0,0.0,0.0,0.0,0.0,0.0,0.0,0.0,0.0,0.0,0.0,0.0,0.0,0.0,0.0,0.0,0.0,0.0,0.0,0.0,0.0,0.0,0.0,1.7949,0.0,0.0,0.0,0.0,0.0,0.0,0.0,0.0,0.0,0.0,0.0,0.0,0.0,0.0,0.0,0.0,0.0,0.0,0.0,0.0,0.0,0.0,0.0,0.0,0.0,0.0,0.0,0.0,0.0,0.0,0.0,0.0,0.0,0.0,0.0,0.0,0.0,0.0,0.0,0.0,0.0,0.0,0.0,0.0,0.0,0.0,0.0,0.0,0.0,0.0,0.0,0.0,0.0,0.0,0.0,0.0,0.0,0.0,0.0,0.0,0.0,0.0,0.0,0.0,0.0,0.0,0.0,0.0,0.0,0.0,0.0,0.0,0.0,0.0,0.0,0.0,0.0,0.0,0.0,0.0,0.0,0.0,0.0,0.0,0.0,0.0,0.0,0.0,0.0,0.0,0.0,0.0,0.0,0.0,0.0,0.0,0.0,0.0,0.0,0.0,0.0,0.0,0.0,0.0,0.0,0.0,0.0,0.0,0.0,0.0,2.0368,1.9971,1.9499,1.9034,1.858,0.0,0.0,0.0,0.0,0.0,0.0,0.0,0.0,0.0,0.0,0.0,0.0,0.0,0.0,0.0,0.0,0.0,0.0,0.0,0.0,0.0,0.0,0.0,0.0,0.0,0.0,0.0,0.0,0.0,0.0,0.0,0.0,0.0,0.0,0.0,0.0,0.0,0.0,0.0,0.0,0.0,0.0,0.0,0.0,0.0,0.0,0.0,0.0,0.0,0.0,0.0,0.0,0.0,0.0,0.0,0.0,0.0,0.0,0.0,0.0,0.0,0.0,0.0,0.0,0.0,0.0,0.0,0.0,0.0,0.0,0.0,0.0,0.0,0.0,0.0,0.0,0.0,0.0,0.0,0.0,0.0,0.0,0.0,0.0,0.0,0.0,0.0,0.0,0.0,0.0,0.0,0.0,0.0,0.0,0.0,0.0,0.0,0.0,0.0,0.0,0.0,0.0,0.0,0.0,0.0,0.0,0.0,0.0,0.0,0.0,0.0,0.0,2.0413,1.9976,1.9675,0.0,0.0,0.0,0.0,0.0,0.0,0.0,0.0,0.0,0.0,0.0,0.0,0.0,0.0,0.0,0.0,0.0,0.0,0.0,0.0,0.0,0.0,0.0,0.0,0.0,0.0,0.0,0.0,0.0,0.0,0.0,0.0,0.0,0.0,0.0,0.0,0.0,0.0,0.0,0.0,0.0,0.0,0.0,0.0,0.0,0.0,0.0,0.0,0.0,0.0,0.0,0.0,0.0,0.0,0.0,0.0,0.0,0.0,0.0,0.0,0.0,0.0,0.0,0.0,0.0,0.0,0.0,0.0,0.0,0.0,0.0,0.0,0.0,0.0,0.0,0.0,0.0,0.0,0.0,0.0,0.0,0.0,0.0,0.0,0.0,0.0,0.0,0.0,0.0,0.0,0.0,0.0,0.0,0.0,0.0,0.0,0.0,0.0,0.0,0.0,0.0,0.0,0.0,0.0,0.0,0.0,0.0,0.0,0.0,0.0,2.1695,2.1702,2.2297,0.0,2.1403,0.0,0.0,0.0,0.0,0.0,0.0,0.0,0.0,0.0,0.0,0.0,0.0,0.0,0.0,0.0,0.0,0.0,0.0,0.0,0.0,0.0,0.0,0.0,0.0,0.0,0.0,0.0,0.0,0.0,0.0,0.0,0.0,0.0,0.0,0.0,0.0,0.0,0.0,0.0,0.0,0.0,0.0,0.0,0.0,0.0,0.0,0.0,0.0,0.0,0.0,0.0,0.0,0.0,0.0,0.0,0.0,0.0,0.0,0.0,0.0,0.0,0.0,0.0,0.0,0.0,0.0,0.0,0.0,0.0,0.0,0.0,0.0,0.0,0.0,0.0,0.0,0.0,0.0,0.0,0.0,0.0,0.0,0.0,0.0,0.0,0.0,0.0,0.0,0.0,0.0,0.0,0.0,0.0,0.0,0.0,0.0,0.0,0.0,0.0,0.0,0.0,0.0,0.0,0.0,0.0,0.0,0.0,0.0,0.0,0.0,2.2519,2.2518,2.2761,2.2456,0.0,0.0,0.0,0.0,0.0,0.0,0.0,0.0,0.0,0.0,0.0,0.0,0.0,0.0,0.0,0.0,0.0,0.0,0.0,0.0,0.0,0.0,0.0,0.0,0.0,0.0,0.0,0.0,0.0,0.0,0.0,0.0,0.0,0.0,0.0,0.0,0.0,0.0,0.0,0.0,0.0,0.0,0.0,0.0,0.0,0.0,0.0,0.0,0.0,0.0,0.0,0.0,0.0,0.0,0.0,0.0,0.0,0.0,0.0,0.0,0.0,0.0,0.0,0.0,0.0,0.0,0.0,0.0,0.0,0.0,0.0,0.0,0.0,0.0,0.0,0.0,0.0,0.0,0.0,0.0,0.0,0.0,0.0,0.0,0.0,0.0,0.0,0.0,0.0,0.0,0.0,0.0,0.0,0.0,0.0,0.0,0.0,0.0,0.0,0.0,0.0,0.0,0.0,0.0,0.0,0.0,0.0,0.0,0.0,0.0,2.3053,2.3453,2.363,2.3133,2.2566,2.19,0.0,0.0,0.0,0.0,0.0,0.0,0.0,0.0,0.0,0.0,0.0,0.0,0.0,0.0,0.0,0.0,0.0,0.0,0.0,0.0,0.0,0.0,0.0,0.0,0.0,0.0,0.0,0.0,0.0,0.0,0.0,0.0,0.0,0.0,0.0,0.0,0.0,0.0,0.0,0.0,0.0,0.0,0.0,0.0,0.0,0.0,0.0,0.0,0.0,0.0,0.0,0.0,0.0,0.0,0.0,0.0,0.0,0.0,0.0,0.0,0.0,0.0,0.0,0.0,0.0,0.0,0.0,0.0,0.0,0.0,0.0,0.0,0.0,0.0,0.0,0.0,0.0,0.0,0.0,0.0,0.0,0.0,0.0,0.0,0.0,0.0,0.0,0.0,0.0,0.0,0.0,0.0,0.0,0.0,0.0,0.0,0.0,0.0,0.0,0.0,0.0,0.0,0.0,0.0,0.0,0.0,0.0,0.0,2.4048,2.4181,2.4615,2.5286,2.3841,2.2942,0.0,0.0,0.0,0.0,0.0,0.0,0.0,0.0,0.0,0.0,0.0,0.0,0.0,0.0,0.0,0.0,0.0,0.0,0.0,0.0,0.0,0.0,0.0,0.0,0.0,0.0,0.0,0.0,0.0,0.0,0.0,0.0,0.0,0.0,0.0,0.0,0.0,0.0,0.0,0.0,0.0,0.0,0.0,0.0,0.0,0.0,0.0,0.0,0.0,0.0,0.0,0.0,0.0,0.0,0.0,0.0,0.0,0.0,0.0,0.0,0.0,0.0,0.0,0.0,0.0,0.0,0.0,0.0,0.0,0.0,0.0,0.0,0.0,0.0,0.0,0.0,0.0,0.0,0.0,0.0,0.0,0.0,0.0,0.0,0.0,0.0,0.0,0.0,0.0,0.0,0.0,0.0,0.0,0.0,0.0,0.0,0.0,0.0,0.0,0.0,0.0,0.0,0.0,0.0,0.0,0.0,0.0,0.0,0.0,2.4275,2.4778,2.5192,2.5403,2.4855,2.4236,0.0,0.0,0.0,0.0,0.0,0.0,0.0,0.0,0.0,0.0,0.0,0.0,0.0,0.0,0.0,0.0,0.0,0.0,0.0,0.0,0.0,0.0,0.0,0.0,0.0,0.0,0.0,0.0,0.0,0.0,0.0,0.0,0.0,0.0,0.0,0.0,0.0,0.0,0.0,0.0,0.0,0.0,0.0,0.0,0.0,0.0,0.0,0.0,0.0,0.0,0.0,0.0,0.0,0.0,0.0,0.0,0.0,0.0,0.0,0.0,0.0,0.0,0.0,0.0,0.0,0.0,0.0,0.0,0.0,0.0,0.0,0.0,0.0,0.0,0.0,0.0,0.0,0.0,0.0,0.0,0.0,0.0,0.0,0.0,0.0,0.0,0.0,0.0,0.0,0.0,0.0,0.0,0.0,0.0,0.0,0.0,0.0,0.0,0.0,0.0,0.0,0.0,0.0,0.0,0.0,0.0,0.0,0.0,0.0,2.4741,0.0,2.5483,2.5475,2.5438,2.5011,0.0,0.0,0.0,0.0,0.0,0.0,0.0,0.0,0.0,0.0,0.0,0.0,0.0,0.0,0.0,0.0,0.0,0.0,0.0,0.0,0.0,0.0,0.0,0.0,0.0,0.0,0.0,0.0,0.0,0.0,0.0,0.0,0.0,0.0,0.0,0.0,0.0,0.0,0.0,0.0,0.0,0.0,0.0,0.0,0.0,0.0,0.0,0.0,0.0,0.0,0.0,0.0,0.0,0.0,0.0,0.0,0.0,0.0,0.0,0.0,0.0,0.0,0.0,0.0,0.0,0.0,0.0,0.0,0.0,0.0,0.0,0.0,0.0,0.0,0.0,0.0,0.0,0.0,0.0,0.0,0.0,0.0,0.0,0.0,0.0,0.0,0.0,0.0,0.0,0.0,0.0,0.0,0.0,0.0,0.0,0.0,0.0,0.0,0.0,0.0,0.0,0.0,0.0,0.0,0.0,0.0,0.0,0.0,2.5673,2.5592,2.5575,2.5656,2.5612,2.5549,2.5095,0.0,0.0,0.0,0.0,0.0,0.0,0.0,0.0,0.0,0.0,0.0,0.0,0.0,0.0,0.0,0.0,0.0,0.0,0.0,0.0,0.0,0.0,0.0,0.0,0.0,0.0,0.0,0.0,0.0,0.0,0.0,0.0,0.0,0.0,0.0,0.0,0.0,0.0,0.0,0.0,0.0,0.0,0.0,0.0,0.0,0.0,0.0,0.0,0.0,0.0,0.0,0.0,0.0,0.0,0.0,0.0,0.0,0.0,0.0,0.0,0.0,0.0,0.0,0.0,0.0,0.0,0.0,0.0,0.0,0.0,0.0,0.0,0.0,0.0,0.0,0.0,0.0,0.0,0.0,0.0,0.0,0.0,0.0,0.0,0.0,0.0,0.0,0.0,0.0,0.0,0.0,0.0,0.0,0.0,0.0,0.0,0.0,0.0,0.0,0.0,0.0,0.0,0.0,0.0,0.0,0.0,0.0,0.0,0.0,2.6124,2.6963,2.6957,2.6,2.601,2.5702,0.0,0.0,0.0,0.0,0.0,0.0,0.0,0.0,0.0,0.0,0.0,0.0,0.0,0.0,0.0,0.0,0.0,0.0,0.0,0.0,0.0,0.0,0.0,0.0,0.0,0.0,0.0,0.0,0.0,0.0,0.0,0.0,0.0,0.0,0.0,0.0,0.0,0.0,0.0,0.0,0.0,0.0,0.0,0.0,0.0,0.0,0.0,0.0,0.0,0.0,0.0,0.0,0.0,0.0,0.0,0.0,0.0,0.0,0.0,0.0,0.0,0.0,0.0,0.0,0.0,0.0,0.0,0.0,0.0,0.0,0.0,0.0,0.0,0.0,0.0,0.0,0.0,0.0,0.0,0.0,0.0,0.0,0.0,0.0,0.0,0.0,0.0,0.0,0.0,0.0,0.0,0.0,0.0,0.0,0.0,0.0,0.0,0.0,0.0,0.0,0.0,0.0,0.0,0.0,0.0,0.0,0.0,0.0,0.0,2.7561,2.8051,2.7833,2.6804,2.6659,2.6258,2.5564,0.0,0.0,0.0,0.0,0.0,0.0,0.0,0.0,0.0,0.0,0.0,0.0,0.0,0.0,0.0,0.0,0.0,0.0,0.0,0.0,0.0,0.0,0.0,0.0,0.0,0.0,0.0,0.0,0.0,0.0,0.0,0.0,0.0,0.0,0.0,0.0,0.0,0.0,0.0,0.0,0.0,0.0,0.0,0.0,0.0,0.0,0.0,0.0,0.0,0.0,0.0,0.0,0.0,0.0,0.0,0.0,0.0,0.0,0.0,0.0,0.0,0.0,0.0,0.0,0.0,0.0,0.0,0.0,0.0,0.0,0.0,0.0,0.0,0.0,0.0,0.0,0.0,0.0,0.0,0.0,0.0,0.0,0.0,0.0,0.0,0.0,0.0,0.0,0.0,0.0,0.0,0.0,0.0,0.0,0.0,0.0,0.0,0.0,0.0,0.0,0.0,0.0,0.0,0.0,0.0,0.0,0.0,0.0,2.9627,2.9049,2.8531,2.7967,2.7477,2.6781,0.0,0.0,0.0,0.0,0.0,0.0,0.0,0.0,0.0,0.0,0.0,0.0,0.0,0.0,0.0,0.0,0.0,0.0,0.0,0.0,0.0,0.0,0.0,0.0,0.0,0.0,0.0,0.0,0.0,0.0,0.0,0.0,0.0,0.0,0.0,0.0,0.0,0.0,0.0,0.0,0.0,0.0,0.0,0.0,0.0,0.0,0.0,0.0,0.0,0.0,0.0,0.0,0.0,0.0,0.0,0.0,0.0,0.0,0.0,0.0,0.0,0.0,0.0,0.0,0.0,0.0,0.0,0.0,0.0,0.0,0.0,0.0,0.0,0.0,0.0,0.0,0.0,0.0,0.0,0.0,0.0,0.0,0.0,0.0,0.0,0.0,0.0,0.0,0.0,0.0,0.0,0.0,0.0,0.0,0.0,0.0,0.0,0.0,0.0,0.0,0.0,0.0,0.0,0.0,0.0,0.0,0.0,0.0,0.0,3.1026,3.2366,3.1738,2.8923,2.8549,2.7365,0.0,0.0,0.0,0.0,0.0,0.0,0.0,0.0,0.0,0.0,0.0,0.0,0.0,0.0,0.0,0.0,0.0,0.0,0.0,0.0,0.0,0.0,0.0,0.0,0.0,0.0,0.0,0.0,0.0,0.0,0.0,0.0,0.0,0.0,0.0,0.0,0.0,0.0,0.0,0.0,0.0,0.0,0.0,0.0,0.0,0.0,0.0,0.0,0.0,0.0,0.0,0.0,0.0,0.0,0.0,0.0,0.0,0.0,0.0,0.0,0.0,0.0,0.0,0.0,0.0,0.0,0.0,0.0,0.0,0.0,0.0,0.0,0.0,0.0,0.0,0.0,0.0,0.0,0.0,0.0,0.0,0.0,0.0,0.0,0.0,0.0,0.0,0.0,0.0,0.0,0.0,0.0,0.0,0.0,0.0,0.0,0.0,0.0,0.0,0.0,0.0,0.0,0.0,0.0,0.0,0.0,0.0,0.0,3.2181,3.2253,3.4257,3.3858,3.0745,3.033,2.8777,0.0,0.0,0.0,0.0,0.0,0.0,0.0,0.0,0.0,0.0,0.0,0.0,0.0,0.0,0.0,0.0,0.0,0.0,0.0,0.0,0.0,0.0,0.0,0.0,0.0,0.0,0.0,0.0,0.0,0.0,0.0,0.0,0.0,0.0,0.0,0.0,0.0,0.0,0.0,0.0,0.0,0.0,0.0,0.0,0.0,0.0,0.0,0.0,0.0,0.0,0.0,0.0,0.0,0.0,0.0,0.0,0.0,0.0,0.0,0.0,0.0,0.0,0.0,0.0,0.0,0.0,0.0,0.0,0.0,0.0,0.0,0.0,0.0,0.0,0.0,0.0,0.0,0.0,0.0,0.0,0.0,0.0,0.0,0.0,0.0,0.0,0.0,0.0,0.0,0.0,0.0,0.0,0.0,0.0,0.0,0.0,0.0,0.0,0.0,0.0,0.0,0.0,0.0,0.0,0.0,0.0,0.0,0.0,3.3693,3.3335,3.5245,3.5211,3.3109,3.2336,3.0444,0.0,0.0,0.0,0.0,0.0,0.0,0.0,0.0,0.0,0.0,0.0,0.0,0.0,0.0,0.0,0.0,0.0,0.0,0.0,0.0,0.0,0.0,0.0,0.0,0.0,0.0,0.0,0.0,0.0,0.0,0.0,0.0,0.0,0.0,0.0,0.0,0.0,0.0,0.0,0.0,0.0,0.0,0.0,0.0,0.0,0.0,0.0,0.0,0.0,0.0,0.0,0.0,0.0,0.0,0.0,0.0,0.0,0.0,0.0,0.0,0.0,0.0,0.0,0.0,0.0,0.0,0.0,0.0,0.0,0.0,0.0,0.0,0.0,0.0,0.0,0.0,0.0,0.0,0.0,0.0,0.0,0.0,0.0,0.0,0.0,0.0,0.0,0.0,0.0,0.0,0.0,0.0,0.0,0.0,0.0,0.0,0.0,0.0,0.0,0.0,0.0,0.0,0.0,0.0,0.0,0.0,0.0,0.0,3.3365,3.4164,3.6089,3.6275,3.4493,3.3049,3.0378,0.0,0.0,0.0,0.0,0.0,0.0,0.0,0.0,0.0,0.0,0.0,0.0,0.0,0.0,0.0,0.0,0.0,0.0,0.0,0.0,0.0,0.0,0.0,0.0,0.0,0.0,0.0,0.0,0.0,0.0,0.0,0.0,0.0,0.0,0.0,0.0,0.0,0.0,0.0,0.0,0.0,0.0,0.0,0.0,0.0,0.0,0.0,0.0,2.1225,0.0,0.0,0.0,0.0,0.0,0.0,0.0,0.0,0.0,0.0,0.0,0.0,0.0,0.0,0.0,0.0,0.0,0.0,0.0,0.0,0.0,0.0,0.0,0.0,0.0,0.0,0.0,0.0,0.0,0.0,0.0,0.0,0.0,0.0,0.0,0.0,0.0,0.0,0.0,0.0,0.0,0.0,0.0,0.0,0.0,0.0,0.0,0.0,0.0,0.0,0.0,0.0,0.0,0.0,0.0,0.0,0.0,0.0,0.0,3.3762,3.4905,3.6082,3.6036,3.4637,3.2891,3.0662,0.0,0.0,0.0,0.0,0.0,0.0,0.0,0.0,0.0,0.0,0.0,0.0,0.0,0.0,0.0,0.0,0.0,0.0,0.0,0.0,0.0,0.0,0.0,0.0,0.0,0.0,0.0,0.0,0.0,0.0,0.0,0.0,0.0,0.0,0.0,0.0,0.0,0.0,0.0,0.0,0.0,0.0,0.0,0.0,0.0,0.0,0.0,0.0,0.0,0.0,0.0,0.0,0.0,0.0,0.0,0.0,0.0,0.0,0.0,0.0,0.0,0.0,0.0,0.0,0.0,0.0,0.0,0.0,0.0,0.0,0.0,0.0,0.0,0.0,0.0,0.0,0.0,0.0,0.0,0.0,0.0,0.0,0.0,0.0,0.0,0.0,0.0,0.0,0.0,0.0,0.0,0.0,0.0,0.0,0.0,0.0,0.0,0.0,0.0,0.0,0.0,0.0,0.0,0.0,0.0,0.0,0.0,3.295,3.4343,3.5446,3.5722,3.5336,3.4311,3.2485,3.1102,3.021,0.0,0.0,0.0,0.0,0.0,0.0,0.0,0.0,0.0,0.0,0.0,0.0,0.0,0.0,0.0,0.0,0.0,0.0,0.0,0.0,0.0,0.0,0.0,0.0,0.0,0.0,0.0,0.0,0.0,0.0,0.0,0.0,0.0,0.0,0.0,0.0,0.0,0.0,1.9644,2.0261,0.0,0.0,0.0,0.0,0.0,0.0,0.0,0.0,2.3102,0.0,0.0,0.0,0.0,0.0,0.0,0.0,0.0,0.0,0.0,0.0,0.0,0.0,0.0,0.0,0.0,0.0,0.0,0.0,0.0,0.0,0.0,0.0,0.0,0.0,0.0,0.0,0.0,0.0,0.0,0.0,0.0,0.0,0.0,0.0,0.0,0.0,0.0,0.0,0.0,0.0,0.0,0.0,0.0,0.0,0.0,0.0,0.0,0.0,0.0,0.0,0.0,0.0,0.0,0.0,0.0,3.2183,3.3146,3.4237,3.546,3.5487,3.5108,3.4296,3.2805,3.157,3.0625,0.0,0.0,0.0,0.0,0.0,0.0,0.0,0.0,0.0,0.0,0.0,0.0,0.0,0.0,0.0,0.0,0.0,0.0,0.0,0.0,0.0,0.0,0.0,0.0,0.0,0.0,0.0,0.0,0.0,0.0,0.0,0.0,0.0,0.0,0.0,0.0,0.0,0.0,0.0,2.0731,2.1037,0.0,0.0,0.0,0.0,0.0,0.0,0.0,0.0,2.298,0.0,0.0,0.0,0.0,0.0,0.0,0.0,0.0,0.0,0.0,0.0,0.0,0.0,0.0,0.0,0.0,0.0,0.0,0.0,0.0,0.0,0.0,0.0,0.0,0.0,0.0,0.0,0.0,0.0,0.0,0.0,0.0,0.0,0.0,0.0,0.0,0.0,0.0,0.0,0.0,0.0,0.0,0.0,0.0,0.0,0.0,0.0,0.0,0.0,0.0,0.0,0.0,0.0,0.0,0.0,3.2685,3.306,3.3918,3.5375,3.5042,3.448,3.3719,3.1666,3.0449,0.0,0.0,0.0,0.0,0.0,0.0,0.0,0.0,0.0,0.0,0.0,0.0,0.0,0.0,0.0,0.0,0.0,0.0,0.0,0.0,0.0,0.0,0.0,0.0,0.0,0.0,0.0,0.0,0.0,0.0,0.0,0.0,0.0,0.0,0.0,0.0,0.0,0.0,0.0,0.0,2.2052,2.2239,2.3316,0.0,0.0,0.0,0.0,0.0,0.0,2.4724,2.4389,0.0,0.0,0.0,0.0,0.0,0.0,0.0,0.0,0.0,0.0,0.0,0.0,0.0,0.0,0.0,0.0,0.0,0.0,0.0,0.0,0.0,0.0,0.0,0.0,0.0,0.0,0.0,0.0,0.0,0.0,0.0,0.0,0.0,0.0,0.0,0.0,0.0,0.0,0.0,0.0,0.0,0.0,0.0,0.0,0.0,0.0,0.0,0.0,0.0,0.0,0.0,0.0,0.0,0.0,0.0,3.3085,3.2857,3.3536,3.5276,3.4524,3.3731,3.3037,3.1012,2.9835,0.0,0.0,0.0,0.0,0.0,0.0,0.0,0.0,0.0,0.0,0.0,0.0,0.0,0.0,0.0,0.0,0.0,0.0,0.0,0.0,0.0,0.0,0.0,0.0,0.0,0.0,0.0,0.0,0.0,0.0,0.0,0.0,0.0,0.0,0.0,0.0,0.0,0.0,0.0,0.0,0.0,2.33,2.3789,2.4367,0.0,0.0,0.0,0.0,2.4855,2.5658,0.0,0.0,0.0,0.0,0.0,0.0,0.0,0.0,0.0,0.0,0.0,0.0,0.0,0.0,0.0,0.0,0.0,0.0,0.0,0.0,0.0,0.0,0.0,0.0,0.0,0.0,0.0,0.0,0.0,0.0,0.0,0.0,0.0,0.0,0.0,0.0,0.0,0.0,0.0,0.0,0.0,0.0,0.0,0.0,0.0,0.0,0.0,0.0,0.0,0.0,0.0,0.0,0.0,0.0,0.0,0.0,3.296,3.2498,3.3226,3.5219,3.4041,3.307,3.2528,3.2698,3.1545,0.0,0.0,0.0,0.0,0.0,0.0,0.0,0.0,0.0,0.0,0.0,0.0,0.0,0.0,0.0,0.0,0.0,0.0,0.0,0.0,0.0,0.0,0.0,0.0,0.0,0.0,0.0,0.0,0.0,0.0,0.0,0.0,0.0,0.0,0.0,0.0,0.0,0.0,0.0,0.0,0.0,2.3033,2.4231,2.4286,2.4008,0.0,0.0,2.5978,2.612,2.683,0.0,0.0,0.0,0.0,0.0,0.0,0.0,0.0,0.0,0.0,0.0,0.0,0.0,0.0,0.0,0.0,0.0,0.0,0.0,0.0,0.0,0.0,0.0,0.0,0.0,0.0,0.0,0.0,0.0,0.0,0.0,0.0,0.0,0.0,0.0,0.0,0.0,0.0,0.0,0.0,0.0,0.0,0.0,0.0,0.0,0.0,0.0,0.0,0.0,0.0,0.0,0.0,0.0,0.0,0.0,3.0162,3.2849,3.2499,3.3073,3.4669,3.3751,3.2737,3.1781,3.1699,3.0733,0.0,0.0,0.0,0.0,0.0,0.0,0.0,0.0,0.0,0.0,0.0,0.0,0.0,0.0,0.0,0.0,0.0,0.0,0.0,0.0,0.0,0.0,0.0,0.0,0.0,0.0,0.0,0.0,0.0,0.0,0.0,0.0,0.0,0.0,0.0,0.0,0.0,0.0,0.0,0.0,0.0,0.0,2.4186,2.4996,0.0,0.0,0.0,2.7468,2.7376,0.0,0.0,0.0,0.0,0.0,0.0,0.0,0.0,0.0,0.0,0.0,0.0,0.0,0.0,0.0,0.0,0.0,0.0,0.0,0.0,0.0,0.0,0.0,0.0,0.0,0.0,0.0,0.0,0.0,0.0,0.0,0.0,0.0,0.0,0.0,0.0,0.0,0.0,0.0,0.0,0.0,0.0,0.0,0.0,0.0,0.0,0.0,0.0,0.0,0.0,0.0,0.0,0.0,0.0,0.0,0.0,0.0,3.2495,3.2267,3.2729,3.3947,3.3323,3.234,3.1109,3.0718,0.0,0.0,0.0,0.0,0.0,0.0,0.0,0.0,0.0,0.0,0.0,0.0,0.0,0.0,0.0,0.0,0.0,0.0,0.0,0.0,0.0,0.0,0.0,0.0,0.0,0.0,0.0,1.8796,0.0,0.0,0.0,0.0,0.0,0.0,0.0,0.0,0.0,0.0,0.0,0.0,0.0,0.0,2.5215,2.4261,2.5822,2.6825,0.0,0.0,2.9006,2.8301,2.8919,2.8931,0.0,0.0,0.0,0.0,0.0,0.0,0.0,0.0,0.0,0.0,0.0,0.0,0.0,0.0,0.0,0.0,0.0,0.0,0.0,0.0,0.0,0.0,0.0,0.0,0.0,0.0,0.0,0.0,0.0,0.0,0.0,0.0,0.0,0.0,0.0,0.0,0.0,0.0,0.0,0.0,0.0,0.0,0.0,0.0,0.0,0.0,0.0,0.0,0.0,0.0,0.0,0.0,0.0,0.0,0.0,3.158,3.1487,3.1997,3.3213,3.2605,3.1702,3.0526,3.0718,3.0297,0.0,0.0,0.0,0.0,0.0,0.0,0.0,0.0,0.0,0.0,0.0,0.0,0.0,0.0,0.0,0.0,0.0,0.0,0.0,0.0,0.0,0.0,0.0,0.0,0.0,0.0,0.0,0.0,0.0,0.0,0.0,0.0,0.0,0.0,0.0,0.0,0.0,0.0,0.0,0.0,0.0,2.5537,2.4824,2.6557,2.7805,0.0,0.0,3.0228,2.871,3.0537,3.1043,2.7813,0.0,0.0,0.0,0.0,0.0,0.0,0.0,0.0,0.0,0.0,0.0,0.0,0.0,0.0,0.0,0.0,0.0,0.0,0.0,0.0,0.0,0.0,0.0,0.0,0.0,0.0,0.0,0.0,0.0,0.0,0.0,0.0,0.0,0.0,0.0,0.0,0.0,0.0,0.0,0.0,0.0,0.0,0.0,0.0,0.0,0.0,0.0,0.0,0.0,0.0,0.0,0.0,0.0,2.9639,3.1386,3.1337,3.1913,3.3117,3.2547,3.1621,3.0423,3.0287,2.9865,0.0,0.0,0.0,0.0,0.0,0.0,0.0,0.0,0.0,0.0,0.0,0.0,0.0,0.0,0.0,0.0,0.0,0.0,0.0,0.0,0.0,0.0,0.0,0.0,0.0,0.0,0.0,0.0,1.9751,2.0207,2.1125,0.0,0.0,0.0,0.0,0.0,0.0,0.0,0.0,0.0,0.0,2.6697,2.6598,2.7848,0.0,0.0,2.9703,3.0259,2.9481,2.9879,2.9817,2.8396,2.7758,0.0,0.0,0.0,0.0,0.0,0.0,0.0,0.0,0.0,0.0,0.0,0.0,0.0,0.0,0.0,0.0,0.0,0.0,0.0,0.0,0.0,0.0,0.0,0.0,0.0,0.0,0.0,0.0,0.0,0.0,0.0,0.0,0.0,0.0,0.0,0.0,0.0,0.0,0.0,0.0,0.0,0.0,0.0,0.0,0.0,0.0,0.0,0.0,0.0,0.0,0.0,0.0,2.984,3.1231,3.1283,3.1822,3.287,3.244,3.1621,3.0441,2.9788,2.9294,0.0,0.0,0.0,0.0,0.0,0.0,0.0,0.0,0.0,0.0,0.0,0.0,0.0,0.0,0.0,0.0,0.0,0.0,0.0,0.0,0.0,0.0,0.0,0.0,0.0,0.0,0.0,0.0,2.067,2.0844,2.0818,0.0,0.0,0.0,0.0,0.0,0.0,0.0,0.0,0.0,0.0,2.7452,2.7604,2.8525,2.9262,2.9403,2.9771,3.0034,3.0053,2.9491,2.8989,2.8799,0.0,0.0,0.0,0.0,0.0,0.0,0.0,0.0,0.0,0.0,0.0,0.0,0.0,0.0,0.0,0.0,0.0,0.0,0.0,0.0,0.0,0.0,0.0,0.0,0.0,0.0,0.0,0.0,0.0,0.0,0.0,0.0,0.0,0.0,0.0,0.0,0.0,0.0,0.0,0.0,0.0,0.0,0.0,0.0,0.0,0.0,0.0,0.0,0.0,0.0,0.0,0.0,0.0,2.9126,3.1062,3.1225,3.1603,3.2209,3.2196,3.1621,3.045,2.9263,2.8648,2.8695,0.0,0.0,0.0,0.0,0.0,0.0,0.0,0.0,0.0,0.0,0.0,0.0,0.0,0.0,0.0,0.0,0.0,0.0,0.0,0.0,0.0,0.0,0.0,0.0,0.0,0.0,2.0664,2.1354,2.1564,0.0,0.0,0.0,0.0,0.0,0.0,0.0,0.0,0.0,0.0,2.7146,2.7625,2.7463,2.8333,2.9215,2.9631,2.9557,2.9649,3.0244,2.9691,2.912,0.0,0.0,0.0,0.0,0.0,0.0,0.0,0.0,0.0,0.0,0.0,0.0,0.0,0.0,0.0,0.0,0.0,0.0,0.0,0.0,0.0,0.0,0.0,0.0,0.0,0.0,0.0,1.9848,1.9366,0.0,0.0,0.0,0.0,0.0,0.0,0.0,0.0,0.0,0.0,0.0,2.4586,2.5478,0.0,0.0,0.0,0.0,0.0,0.0,0.0,0.0,0.0,0.0,0.0,0.0,2.9462,3.0757,3.0744,3.1188,3.2155,3.2187,3.182,3.1015,2.9816,2.885,2.813,0.0,0.0,0.0,0.0,0.0,0.0,0.0,0.0,0.0,0.0,0.0,0.0,0.0,0.0,0.0,0.0,0.0,0.0,0.0,0.0,0.0,0.0,0.0,0.0,0.0,2.1901,0.0,0.0,0.0,0.0,0.0,0.0,0.0,0.0,0.0,0.0,0.0,2.6411,2.6503,2.7781,2.8616,2.8421,2.929,2.9937,0.0,0.0,0.0,0.0,0.0,0.0,0.0,0.0,0.0,0.0,0.0,0.0,0.0,0.0,2.7427,2.8478,2.8231,2.8036,2.8603,0.0,0.0,0.0,0.0,0.0,0.0,0.0,0.0,0.0,0.0,0.0,0.0,0.0,0.0,0.0,0.0,2.1371,0.0,0.0,0.0,0.0,0.0,0.0,0.0,0.0,2.4284,2.567,2.6538,2.7612,2.8508,0.0,2.8613,2.815,0.0,0.0,0.0,0.0,0.0,0.0,0.0,0.0,2.9835,3.091,3.0809,3.1201,3.2132,3.2187,3.1915,3.13,2.9911,2.8634,2.7496,2.7547,2.8098,0.0,0.0,0.0,0.0,0.0,0.0,0.0,0.0,0.0,0.0,0.0,0.0,0.0,0.0,0.0,0.0,0.0,0.0,0.0,0.0,0.0,0.0,0.0,2.2882,0.0,0.0,0.0,0.0,0.0,0.0,0.0,0.0,0.0,2.5143,2.6266,2.7315,2.7792,2.8617,2.9169,2.9218,0.0,0.0,0.0,0.0,0.0,0.0,0.0,2.8404,2.8402,2.8348,2.8668,2.9798,3.0053,3.0125,3.0154,0.0,0.0,2.9389,2.92,2.9117,2.939,2.9363,2.9401,2.9685,2.915,2.8662,0.0,0.0,0.0,0.0,0.0,0.0,0.0,0.0,2.3541,2.3474,0.0,2.3467,0.0,0.0,0.0,0.0,0.0,0.0,0.0,0.0,2.618,2.7326,2.8204,2.8168,2.8518,2.9289,3.0252,3.0497,2.9987,2.7258,0.0,0.0,0.0,0.0,0.0,0.0,3.0254,3.1414,3.1333,3.1572,3.2173,3.2187,3.1915,3.1296,2.9613,2.8139,2.698,2.8015,2.8657,2.8701,2.9095,0.0,0.0,0.0,0.0,0.0,0.0,0.0,0.0,0.0,0.0,0.0,0.0,0.0,0.0,0.0,0.0,0.0,0.0,0.0,0.0,2.2927,0.0,0.0,0.0,0.0,0.0,0.0,0.0,0.0,0.0,0.0,2.7164,2.6733,2.7334,2.9733,0.0,0.0,0.0,0.0,2.9682,2.9775,2.952,2.954,3.0132,2.9411,2.8971,2.9538,0.0,0.0,3.0688,3.0551,3.0373,3.0459,3.0336,3.0092,2.943,2.9309,2.9478,3.014,3.0663,3.1122,3.113,3.044,2.9921,2.9366,0.0,0.0,0.0,0.0,2.6369,2.7025,2.7713,2.8023,2.7867,2.7372,2.699,0.0,0.0,0.0,0.0,0.0,0.0,2.5814,2.64,2.8008,2.9048,2.9571,2.9812,3.0057,3.0283,3.03,3.001,2.9473,2.8725,2.8575,2.9014,0.0,0.0,0.0,0.0,3.1057,3.108,3.1212,3.1594,3.2187,3.2187,3.1915,3.1323,3.04,2.9319,2.8139,2.8036,2.8143,2.8453,2.7904,0.0,0.0,0.0,0.0,0.0,0.0,0.0,0.0,0.0,0.0,0.0,0.0,0.0,0.0,0.0,0.0,0.0,0.0,0.0,2.5212,2.6152,2.6535,0.0,0.0,0.0,0.0,0.0,0.0,0.0,0.0,0.0,2.8416,2.8674,2.88,0.0,0.0,2.9353,2.9115,2.9893,3.064,3.094,0.0,0.0,0.0,2.9507,2.8719,2.8884,2.914,2.9403,2.9634,3.0378,3.0814,3.0432,3.0361,3.0167,2.9553,2.9755,3.0105,3.0337,3.0519,3.0789,3.1143,3.1049,3.0887,3.1573,2.8967,2.8994,2.8868,2.8745,2.9338,2.9953,3.0514,3.0532,3.0271,2.9809,2.9272,2.8426,2.7345,2.6121,0.0,0.0,0.0,2.7497,2.8535,2.9615,3.0566,3.1342,3.1528,3.1535,3.136,3.1132,3.0641,2.991,3.0201,3.0269,3.014,0.0,0.0,2.9578,3.0866,3.1436,3.1204,3.1331,3.1667,3.2187,3.2187,3.1915,3.1309,3.0948,3.0202,2.9012,2.8617,2.8437,2.8462,2.8039,2.8264,0.0,0.0,0.0,0.0,0.0,0.0,0.0,0.0,0.0,0.0,0.0,2.476,2.4444,0.0,0.0,0.0,2.6277,2.6392,2.7063,2.7438,0.0,0.0,0.0,0.0,0.0,0.0,0.0,2.7982,2.9075,2.9834,2.9689,2.981,2.9616,2.887,2.9585,3.0134,3.0083,0.0,3.1663,3.1803,3.1257,3.0838,3.0817,2.9871,2.9022,2.873,2.9017,2.9259,2.9328,3.0169,3.0702,3.0402,3.0324,3.0243,2.983,3.0082,3.0361,3.04,3.0557,3.087,3.1466,3.1546,3.1543,3.3912,3.3471,3.2627,3.218,3.2006,3.2007,3.2159,3.235,3.1745,3.1301,3.096,3.066,3.0231,2.971,2.885,0.0,0.0,2.8215,2.9187,3.1034,3.107,3.1867,3.3232,3.3047,3.2788,3.2425,3.2463,3.2021,3.1231,3.1717,3.1645,3.1027,3.1005,3.0712,3.0241,3.1141,3.16,3.1559,3.162,3.1808,3.2146,3.2155,3.1848,3.124,3.1306,3.073,2.9456,2.9466,2.9211,2.8601,2.8986,2.9283,2.9345,0.0,0.0,0.0,0.0,0.0,0.0,0.0,0.0,0.0,0.0,0.0,0.0,0.0,0.0,0.0,2.7617,0.0,2.8169,2.7664,0.0,0.0,0.0,2.8907,3.004,3.0384,3.0357,2.9843,0.0,0.0,3.0998,0.0,3.0057,3.0634,3.09,3.1219,3.1799,3.2279,3.2599,3.2279,3.1925,3.1485,3.0861,3.0166,2.9418,2.8772,2.9055,2.9276,2.9319,2.9791,3.0184,3.0088,3.0174,3.0161,3.0165,3.0066,3.0182,3.0268,3.0726,3.1283,3.1914,3.2015,3.1987,3.6801,3.6572,3.5923,3.5251,3.4664,3.4572,3.4699,3.4932,3.4251,3.3417,3.2544,3.2455,3.1618,3.0218,2.9986,2.9904,2.9959,3.122,3.1969,3.2279,3.2585,3.2843,3.3056,3.2873,3.2729,3.2646,3.2932,3.2983,3.2783,3.3186,3.2932,3.2101,3.2397,3.1941,3.0814,3.2002,3.2149,3.1152,3.1757,3.1954,3.1752,3.1743,3.1368,3.057,3.1332,3.0691,2.848,2.9135,2.9087,2.8078,2.8532,2.9191,2.9945,2.9925,0.0,0.0,0.0,0.0,0.0,0.0,0.0,0.0,0.0,2.5966,2.5966,0.0,2.8592,0.0,2.9824,3.0375,3.0746,3.0388,0.0,0.0,3.084,3.073,3.0799,3.1851,3.2057,3.0696,3.1752,3.2404,3.1909,3.1529,3.1373,3.1566,3.1425,3.1182,3.0896,3.1947,3.2592,3.2027,3.1371,3.0798,3.0441,2.966,2.8848,2.8082,2.839,2.8695,2.8705,2.9204,2.9477,2.9079,2.9311,2.9409,2.904,2.8924,2.914,2.9594,3.0421,3.1412,3.238,3.2564,3.2585,3.8457,3.8107,3.7778,3.73,3.6737,3.646,3.6406,3.6402,3.5572,3.4796,3.4101,3.365,3.2766,3.1648,3.1848,3.1766,3.1537,3.2748,3.3298,3.3267,3.3715,3.3952,3.4009,3.3923,3.3849,3.3846,3.3668,3.3575,3.3582,3.3607,3.3359,3.2816,3.3068,3.2568,3.1438,3.2473,3.2905,3.2595,3.2209,3.1469,3.0355,3.038,3.0374,3.0275,3.0824,3.0615,2.9427,2.9484,2.9232,2.8514,2.8401,2.8606,2.9141,2.9584,2.9543,0.0,0.0,0.0,0.0,0.0,0.0,0.0,0.0,0.0,0.0,0.0,3.0049,3.0139,3.0702,3.1108,3.121,3.1005,3.1167,3.1862,3.1935,3.1984,3.2095,3.2714,3.2707,3.1694,3.2239,3.2683,3.2467,3.2107,3.1843,3.185,3.1836,3.1567,3.1079,3.189,3.2295,3.1339,3.0788,3.026,2.9755,2.9175,2.8639,2.8199,2.8309,2.85,2.851,2.8756,2.8882,2.8598,2.8776,2.8902,2.857,2.85,2.864,2.8985,2.9685,3.065,3.175,3.1993,3.1998,3.9415,3.8943,3.8822,3.8636,3.8413,3.787,3.7493,3.7222,3.6338,3.5838,3.5571,3.4659,3.3991,3.3571,3.4035,3.3844,3.3133,3.3782,3.4129,3.4179,3.4647,3.5013,3.5297,3.531,3.531,3.5281,3.4573,3.4251,3.4215,3.3904,3.3684,3.3571,3.3528,3.3047,3.2156,3.2766,3.3494,3.4239,3.2636,3.0883,2.9133,2.9322,2.9729,3.0342,3.0432,3.0582,3.0851,3.011,2.9604,2.9402,2.87,2.831,2.8398,2.9143,2.9152,0.0,2.8151,0.0,0.0,0.0,0.0,0.0,0.0,0.0,0.0,3.1004,3.1286,3.0789,3.1,3.11,3.0951,3.0893,3.1295,3.233,3.2474,3.2673,3.3064,3.2884,3.264,3.2388,3.2011,3.2051,3.2804,3.2239,3.1674,3.1766,3.1807,3.1612,3.1287,3.1703,3.1733,3.0371,3.012,2.9653,2.8907,2.8721,2.8648,2.8446,2.8442,2.85,2.85,2.851,2.851,2.85,2.852,2.852,2.85,2.85,2.85,2.8552,2.8877,2.9482,3.0483,3.0847,3.097,4.0309,4.0333,3.9411,3.9367,3.9826,3.8819,3.8103,3.7607,3.7413,3.7147,3.6808,3.6312,3.6035,3.595,3.6049,3.5724,3.5192,3.6268,3.6313,3.5527,3.5686,3.5606,3.5307,3.531,3.531,3.5334,3.5781,3.6007,3.6018,3.6101,3.5727,3.4938,3.4756,3.4166,3.3161,0.0,0.0,0.0,3.1987,3.1455,3.1097,3.1581,3.1651,3.1271,3.1627,0.0,2.9909,3.0388,3.047,2.9995,3.0248,0.0,0.0,0.0,0.0,0.0,0.0,0.0,0.0,0.0,0.0,0.0,3.0677,3.0263,2.9816,3.0703,3.1411,3.1553,3.1838,3.2202,3.2718,3.2496,3.2316,3.2407,3.2412,3.2072,3.1228,3.1487,3.1707,3.1616,3.1307,3.1631,3.2811,3.1712,3.0945,3.1577,3.115,3.0461,2.991,3.0755,3.0927,2.98,2.9214,2.8655,2.7999,2.8283,2.8425,2.8044,2.8236,2.8476,2.85,2.85,2.85,2.85,2.85,2.85,2.85,2.85,2.8488,2.85,2.8248,2.8336,2.9387,2.9951,3.0397,4.0745,0.0,3.9988,3.9824,0.0,3.9019,3.8467,3.8175,3.7856,3.7447,3.6989,3.6798,3.6703,3.6703,3.6703,3.6318,3.5684,3.6296,3.6063,3.5181,3.5503,3.5676,3.5702,3.5691,3.6016,3.6565,3.6398,3.6466,3.6728,3.6549,3.6198,3.5682,3.5093,3.4301,3.3294,3.1983,3.1264,3.1163,3.0952,3.03,2.9215,2.9424,2.9508,2.9337,0.0,0.0,0.0,0.0,0.0,0.0,0.0,0.0,0.0,0.0,0.0,3.0407,3.0361,3.0507,3.0851,3.0614,3.088,3.1892,3.1727,3.1327,3.0813,3.1541,3.198,3.1992,3.183,3.186,3.2196,3.1805,3.1558,3.1645,3.1659,3.1457,3.1098,3.1115,3.126,3.1379,3.1137,3.1249,3.1992,3.1314,3.072,3.0983,3.0649,3.0072,2.9593,2.9919,2.9947,2.9118,2.8727,2.8414,2.8188,2.8306,2.8438,2.82,2.831,2.8476,2.85,2.85,2.85,2.85,2.85,2.85,2.85,2.85,2.8406,2.8154,2.789,2.7854,2.8454,2.9125,2.9952,4.1011,4.0554,4.0437,4.0226,3.986,3.9144,3.8815,3.8668,0.0,0.0,0.0,3.708,3.7126,3.7102,3.7113,3.6688,3.5989,3.6079,3.5695,3.4955,3.5442,3.5891,3.6264,3.6242,3.6776,3.7666,3.6649,3.6402,3.6845,3.6209,3.5811,3.5655,3.4869,3.3942,3.2827,3.0728,2.9793,3.0105,3.0149,2.9235,2.7369,2.7309,2.7447,2.7764,2.7581,2.7975,2.8969,2.8564,2.8516,2.8868,2.8538,2.8635,2.9244,2.9741,3.0209,3.0684,3.1224,3.1575,3.1673,3.1701,3.1791,3.201,3.2032,3.2033,3.2025,3.229,3.2318,3.2028,3.1431,3.1033,3.1033,3.0611,3.0393,3.0623,3.0632,3.0732,3.0887,3.0685,3.0581,3.0981,3.0663,3.0575,3.0792,3.0575,3.0411,3.019,3.0002,2.9832,2.938,2.9243,2.9138,2.8647,2.852,2.85,2.8488,2.8488,2.85,2.8464,2.8476,2.85,2.85,2.85,2.85,2.85,2.85,2.85,2.85,2.85,2.8308,2.7806,2.7613,2.7601,2.7757,2.8402,2.935,4.1234,4.1142,4.0619,4.0646,4.0985,3.9927,3.9182,3.867,3.8304,3.8087,3.8007,3.8248,3.8349,3.8362,3.8338,3.7996,3.7435,3.7936,3.7721,0.0,3.7036,3.7015,3.6881,3.6867,3.6972,3.7074,3.6547,3.6307,3.6276,3.5445,3.4736,3.4275,3.4062,3.328,3.185,3.068,3.012,3.0184,3.0365,3.0288,2.9959,3.0006,3.0135,3.0312,2.9404,2.9127,2.949,2.9748,3.0002,3.006,3.031,3.0668,3.1073,3.1149,3.1206,3.1156,3.1726,3.1848,3.1309,3.129,3.1311,3.1331,3.1353,3.1567,3.2105,3.1691,3.1386,3.1316,3.0793,3.0412,3.0412,3.0308,3.005,2.9687,2.961,2.9445,2.9096,2.8978,2.9155,2.9675,2.9182,2.9321,3.0069,2.9523,2.9128,2.9341,2.9206,2.8766,2.8727,2.863,2.8588,2.852,2.85,2.85,2.85,2.85,2.85,2.85,2.85,2.85,2.85,2.85,2.85,2.85,2.85,2.85,2.85,2.85,2.8296,2.7842,2.7459,2.7265,2.7652,2.7986,2.8534,4.1286,4.1272,4.1023,4.1038,4.1246,4.0397,3.9718,3.9182,3.9037,3.8757,3.8492,3.8607,3.8838,3.913,3.9143,3.8815,3.8261,3.8536,3.7958,3.6758,3.6721,3.6492,3.6071,3.581,3.6008,3.6484,3.5826,3.5745,3.6125,3.5271,3.4787,3.4702,3.3953,3.2877,3.1637,3.0912,3.0593,3.0571,3.0169,2.9836,2.9589,2.9325,2.8986,2.858,2.8062,2.7753,2.7604,2.8265,2.8624,2.8612,2.9233,2.9839,3.0327,3.0365,3.0459,3.0705,3.099,3.1041,3.0737,3.0714,3.0714,3.0705,3.0714,3.0831,3.1144,3.0897,3.0724,3.0699,3.0168,2.98,2.9793,2.9513,2.9194,2.8941,2.8912,2.8794,2.857,2.85,2.8618,2.8833,2.8689,2.8707,2.9243,2.8833,2.8568,2.8865,2.8635,2.85,2.85,2.85,2.85,2.85,2.85,2.85,2.85,2.85,2.85,2.85,2.85,2.85,2.85,2.85,2.85,2.85,2.85,2.85,2.85,2.85,2.839,2.8202,2.7709,2.7601,2.7986,2.8334,2.8933,4.1428,4.1286,4.1286,4.1147,4.0869,4.0287,3.9672,3.9041,3.8862,3.8644,3.8398,3.8447,3.8641,3.8835,3.8823,3.8579,3.817,3.8132,3.7422,3.629,3.6193,3.5954,3.5515,3.512,3.5396,3.6006,3.5211,3.5134,3.5665,3.4873,3.4609,3.479,3.3676,3.2601,3.1782,3.1302,3.1038,3.1007,3.0231,2.9545,2.8967,2.8451,2.7784,2.6988,2.6835,2.6584,2.6277,2.6857,2.7224,2.7265,2.7946,2.8649,2.9214,2.935,2.961,3.0053,3.0235,3.0244,3.013,3.0212,3.0231,3.011,3.0098,3.0101,3.0079,2.9967,2.9954,3.0002,2.9542,2.9197,2.9157,2.8816,2.85,2.85,2.85,2.853,2.85,2.85,2.85,2.85,2.85,2.85,2.85,2.85,2.852,2.853,2.85,2.85,2.85,2.85,2.85,2.85,2.85,2.85,2.85,2.85,2.85,2.85,2.85,2.85,2.85,2.85,2.85,2.85,2.85,2.85,2.85,2.85,2.8428,2.8238,2.7887,2.7796,2.813,2.8623,2.922,4.1794,4.1338,4.1286,4.0681,3.9777,3.9184,3.8376,3.741,3.6796,3.6807,3.7301,3.7755,3.7444,3.6579,3.664,3.6642,3.6556,3.6456,3.6394,3.6219,3.6195,3.618,3.6024,3.6004,3.6116,3.602,3.5084,3.4633,3.4775,3.3812,3.3314,3.3272,3.2735,3.245,3.2276,3.1804,3.1527,3.1529,3.1027,3.0342,2.948,2.8978,2.8463,2.7882,2.7457,2.7217,2.7119,2.7254,2.7297,2.7316,2.7718,2.8221,2.8791,2.9206,2.9419,2.9496,2.9976,3.0082,2.9593,2.9983,3.0037,2.9555,2.9512,2.9499,2.9467,2.8991,2.8922,2.9253,2.8941,2.8637,2.8588,2.853,2.85,2.85,2.85,2.85,2.85,2.85,2.85,2.85,2.85,2.85,2.85,2.85,2.85,2.85,2.85,2.85,2.85,2.85,2.85,2.85,2.85,2.85,2.85,2.85,2.85,2.85,2.85,2.85,2.85,2.85,2.85,2.85,2.85,2.85,2.85,2.8488,2.8354,2.8116,2.7899,2.7757,2.7851,2.826,2.8811,4.1998,4.1311,4.1286,4.0643,3.9546,3.8651,3.8007,3.7552,3.7321,3.6991,3.6599,3.6808,3.6989,3.72,3.7212,3.72,3.7212,3.72,3.6834,3.6252,3.6187,3.5853,3.5202,3.4905,3.4927,3.5103,3.4193,3.4004,3.433,3.3843,3.3382,3.3122,3.2901,3.2813,3.2781,3.233,3.209,3.2055,3.1575,3.0983,3.0364,2.9872,2.9117,2.8155,2.8123,2.7872,2.737,2.7322,2.7312,2.7321,2.7692,2.8002,2.8251,2.8635,2.8872,2.8882,2.9099,2.9138,2.8882,2.9403,2.9472,2.8899,2.9157,2.9216,2.8901,2.8627,2.863,2.8776,2.8649,2.85,2.8512,2.85,2.85,2.85,2.85,2.85,2.85,2.85,2.85,2.85,2.85,2.85,2.85,2.85,2.85,2.85,2.85,2.85,2.85,2.85,2.85,2.85,2.85,2.85,2.85,2.85,2.85,2.85,2.85,2.85,2.85,2.85,2.85,2.85,2.85,2.85,2.85,2.85,2.8404,2.8164,2.8176,2.8166,2.8176,2.8344,2.8619,4.1747,4.0859,4.0516,3.9712,3.8611,3.7782,3.7262,3.6969,3.6967,3.648,3.5779,3.5738,3.6179,3.6886,3.6955,3.698,3.6967,3.6969,3.6547,3.5792,3.5749,3.5306,3.4508,3.416,3.416,3.4346,3.3852,3.3849,3.4408,3.4171,3.3814,3.35,3.336,3.3229,3.3078,3.2625,3.2306,3.2156,3.178,3.1376,3.093,3.0701,2.9945,2.8766,2.8843,2.8648,2.796,2.7646,2.7488,2.751,2.7772,2.7994,2.813,2.8505,2.88,2.8933,2.8943,2.8933,2.8923,2.9294,2.9352,2.9015,2.9196,2.9208,2.8967,2.8679,2.8657,2.8967,2.8814,2.8704,2.8512,2.85,2.85,2.85,2.85,2.85,2.85,2.85,2.85,2.85,2.85,2.85,2.85,2.85,2.85,2.85,2.85,2.85,2.85,2.85,2.85,2.85,2.85,2.85,2.85,2.85,2.85,2.85,2.85,2.85,2.85,2.85,2.85,2.85,2.85,2.85,2.85,2.85,2.85,2.85,2.8488,2.8464,2.8428,2.85,2.85,4.0983,3.9621,3.8519,3.7529,3.6367,3.6313,3.5683,3.4891,3.4777,3.4652,3.4652,3.4638,3.4624,3.4791,3.4875,3.4694,3.4722,3.4819,3.4805,3.4666,3.4638,3.4565,3.4496,3.4463,3.4463,3.4485,3.4376,3.4389,3.4485,3.4463,3.4463,3.4386,3.3977,3.3554,3.3174,3.2737,3.2175,3.1846,3.1726,3.1385,3.1029,3.1311,3.1014,3.0132,2.9696,2.9435,2.925,2.8473,2.796,2.796,2.7954,2.8187,2.8619,2.9099,2.9531,2.9903,2.9977,2.9989,2.9964,3.0034,3.0012,2.9928,2.9605,2.952,2.9783,2.9132,2.9048,2.9881,2.9511,2.9091,2.8691,2.8633,2.8548,2.85,2.85,2.85,2.85,2.85,2.85,2.85,2.85,2.85,2.85,2.85,2.85,2.85,2.85,2.85,2.85,2.85,2.85,2.85,2.85,2.85,2.85,2.85,2.85,2.85,2.85,2.85,2.85,2.85,2.8488,2.85,2.85,2.85,2.85,2.85,2.85,2.85,2.85,2.85,2.85,2.85,2.85,4.0388,3.8987,3.7859,3.7126,3.6679,3.5601,3.4863,3.4496,3.4482,3.4482,3.4482,3.4482,3.4482,3.4482,3.4482,3.4482,3.4482,3.4482,3.4482,3.4482,3.4482,3.4482,3.4482,3.4482,3.4482,3.4482,3.4482,3.4482,3.4482,3.4482,3.4482,3.4474,3.4346,3.4163,3.3945,3.3543,3.3062,3.2582,3.2287,3.1846,3.1409,3.1505,3.1418,3.1102,3.0635,3.01,2.9523,2.8868,2.8352,2.8002,2.7988,2.8213,2.8711,2.9428,2.9928,3.0087,3.0086,3.0086,3.0122,3.0431,3.0456,3.0144,3.0275,3.0204,3.0079,2.9753,2.9697,2.9988,2.996,2.9702,2.952,2.922,2.8863,2.8563,2.8512,2.8536,2.85,2.85,2.85,2.85,2.85,2.85,2.85,2.85,2.85,2.85,2.85,2.85,2.85,2.85,2.85,2.85,2.85,2.85,2.85,2.85,2.85,2.85,2.85,2.8476,2.8464,2.838,2.8344,2.8262,2.8322,2.8308,2.8248,2.8262,2.8298,2.8334,2.8346,2.838,2.85,2.8464,2.8476,3.8932,3.741,3.6572,3.6259,3.6134,3.5016,3.4482,3.4482,3.4482,3.4482,3.4482,3.4482,3.4482,3.4482,3.4482,3.4482,3.4482,3.4482,3.4482,3.4482,3.4482,3.4482,3.4482,3.4482,3.4482,3.4482,3.4482,3.4482,3.4482,3.4482,3.4482,3.4482,3.4482,3.4422,3.4248,3.3956,3.3565,3.3106,3.2792,3.2361,3.1922,3.187,3.1769,3.1582,3.1302,3.0768,2.9981,2.9502,2.9032,2.8562,2.8485,2.8623,2.9008,2.9696,3.0205,3.0334,3.0367,3.0441,3.0615,3.0961,3.0997,3.0649,3.0767,3.0779,3.0599,3.0302,3.0268,3.0462,3.0426,3.036,3.0297,3.0034,2.9615,2.9146,2.9015,2.8921,2.8787,2.8763,2.8691,2.8536,2.85,2.85,2.85,2.85,2.85,2.85,2.85,2.85,2.85,2.85,2.85,2.85,2.85,2.85,2.8416,2.832,2.838,2.8392,2.8152,2.8202,2.819,2.813,2.8058,2.8022,2.7998,2.7986,2.7986,2.7988,2.8012,2.8048,2.8082,2.8082,2.8236,2.8404,2.8428,3.6714,3.4952,3.4551,3.4819,3.4875,3.468,3.4537,3.4624,3.4593,3.4593,3.4621,3.451,3.4517,3.4539,3.4583,3.4539,3.4627,3.4605,3.4539,3.4507,3.4482,3.4482,3.4482,3.4482,3.4482,3.4482,3.4482,3.4482,3.4482,3.4482,3.4482,3.4482,3.4482,3.431,3.3846,3.3879,3.362,3.3264,3.3109,3.2881,3.2462,3.2352,3.211,3.1702,3.1595,3.1322,3.0865,3.0405,2.9915,2.95,2.9426,2.9487,2.9498,2.9931,3.0396,3.0764,3.0878,3.1124,3.1556,3.1633,3.161,3.1477,3.1178,3.1164,3.1311,3.076,3.061,3.1245,3.1163,3.0909,3.0908,3.0863,3.0565,3.0156,2.9893,2.9713,2.9354,2.9246,2.9077,2.8633,2.8558,2.8534,2.8534,2.8669,2.8717,2.8645,2.8609,2.8573,2.8524,2.85,2.85,2.8488,2.8392,2.8296,2.821,2.8126,2.8188,2.819,2.7854,2.7676,2.7616,2.7544,2.7411,2.7363,2.7387,2.7375,2.7387,2.7411,2.7423,2.7469,2.7589,2.7854,2.813,2.8332,2.8392,3.7754,3.5822,3.5747,3.5744,3.5689,3.5293,3.5348,3.5676,3.532,3.5116,3.5044,3.468,3.4673,3.4924,3.4979,3.5179,3.5488,3.5168,3.4815,3.4561,3.4493,3.4517,3.4493,3.4493,3.4482,3.4482,3.4482,3.4496,3.4507,3.4493,3.4482,3.4482,3.4482,3.4419,3.428,3.4269,3.4051,3.3642,3.3587,3.336,3.289,3.2573,3.2295,3.2132,3.1802,3.1516,3.1365,3.093,3.0461,3.0013,2.9675,2.9507,2.9586,2.9954,3.0397,3.0837,3.0904,3.1139,3.1606,3.1705,3.1705,3.167,3.1514,3.1525,3.167,3.1398,3.1305,3.1682,3.1534,3.1438,3.1444,3.1441,3.1068,3.0194,3.0086,2.994,2.9412,2.9015,2.8695,2.8587,2.8813,2.9027,2.9112,2.9246,2.9292,2.9053,2.9027,2.8943,2.8609,2.8561,2.85,2.8488,2.8272,2.7984,2.7815,2.7563,2.7409,2.7479,2.7289,2.7145,2.7073,2.6895,2.6775,2.6715,2.6739,2.6753,2.6765,2.6859,2.6916,2.7109,2.7361,2.7709,2.8094,2.8272,2.8332,3.8097,3.6366,3.6514,3.6608,3.6576,3.634,3.6501,3.6748,3.6209,3.5955,3.584,3.5328,3.5212,3.5455,3.5499,3.5688,3.5936,3.5655,3.5343,3.5048,3.4815,3.4772,3.479,3.4993,3.4914,3.4826,3.4957,3.4946,3.4761,3.475,3.4673,3.4528,3.4482,3.4482,3.4482,3.4471,3.4335,3.4098,3.4051,3.3835,3.3371,3.2901,3.2584,3.2352,3.1879,3.1613,3.1571,3.13,3.0929,3.0482,3.0014,2.9711,2.9565,2.9777,3.0079,3.033,3.0578,3.0859,3.1339,3.1584,3.1705,3.1705,3.1705,3.1705,3.1705,3.1705,3.1705,3.1705,3.1694,3.1705,3.1694,3.1705,3.1357,3.0803,3.0744,3.0361,2.9725,2.9124,2.8859,2.8849,2.8909,2.9077,2.9328,2.928,2.9507,2.9282,2.9292,2.9254,2.8885,2.8813,2.8645,2.8368,2.7996,2.7697,2.7409,2.7061,2.6652,2.664,2.6649,2.661,2.6586,2.6267,2.6054,2.6039,2.6039,2.6006,2.603,2.6388,2.6565,2.6854,2.7205,2.7601,2.7996,2.819,2.8296,3.7858,3.6559,3.6953,3.7165,3.7271,3.7621,3.7747,3.7718,3.7178,3.6845,3.6707,3.6116,3.5951,3.6016,3.6027,3.6104,3.6082,3.606,3.6016,3.5874,3.5586,3.5328,3.531,3.5655,3.5597,3.5375,3.5685,3.5619,3.5121,3.511,3.4957,3.4539,3.4482,3.4482,3.4482,3.4482,3.4485,3.443,3.4452,3.4226,3.3825,3.3393,3.2977,3.256,3.201,3.1702,3.1715,3.1595,3.1344,3.0908,3.0439,3.0048,2.9667,2.9557,2.9656,2.9825,3.0057,3.0546,3.0974,3.1463,3.1717,3.1705,3.1705,3.1705,3.1705,3.1705,3.1705,3.1705,3.1705,3.1705,3.1705,3.1705,3.1645,3.167,3.1417,3.0974,3.0252,2.9653,2.9388,2.928,2.8955,2.8859,2.9495,2.9206,2.922,2.9342,2.9448,2.9256,2.916,2.8943,2.8631,2.8188,2.7661,2.7214,2.6854,2.6436,2.6075,2.6108,2.6166,2.625,2.6235,2.5928,2.5931,2.5835,2.5748,2.5583,2.5691,2.6253,2.6565,2.6842,2.7202,2.7563,2.7875,2.8128,2.826,3.885,3.8066,3.7795,3.7912,3.8253,3.8428,3.8433,3.832,3.7807,3.7294,3.6833,3.6241,3.6235,3.6504,3.6526,3.6701,3.6847,3.6672,3.65,3.6504,3.6406,3.6074,3.5863,3.5943,3.5951,3.5841,3.5961,3.5732,3.5233,3.523,3.4968,3.4503,3.4482,3.4482,3.4482,3.4482,3.4482,3.4482,3.4482,3.4441,3.4269,3.3825,3.3576,3.339,3.2612,3.2221,3.2156,3.1802,3.1387,3.0929,3.0812,3.0504,3.0091,3.0024,3.0131,3.0386,3.0624,3.094,3.1374,3.1656,3.1731,3.1705,3.1754,3.1717,3.1705,3.1705,3.1705,3.1705,3.1705,3.1705,3.1705,3.1705,3.1705,3.1646,3.1417,3.1057,3.0672,3.0228,2.9892,2.9892,3.0058,3.0203,3.0264,3.0228,3.0167,3.0215,2.9831,2.9352,2.9316,2.8871,2.8476,2.7767,2.7202,2.6695,2.6238,2.5808,2.5558,2.5603,2.5769,2.603,2.6009,2.5904,2.6171,2.6426,2.6354,2.6222,2.6402,2.6763,2.6892,2.701,2.7205,2.7568,2.7947,2.8234,2.8236,3.9593,3.9088,3.8991,3.9133,3.9388,3.9363,3.9315,3.9116,3.8355,3.7816,3.7364,3.6821,3.6738,3.6974,3.7007,3.7142,3.7324,3.7127,3.7007,3.6981,3.697,3.6712,3.6442,3.6453,3.6497,3.6318,3.6497,3.6176,3.5663,3.5528,3.5157,3.4605,3.4482,3.4482,3.4482,3.4482,3.4482,3.4482,3.4482,3.4482,3.4463,3.4054,3.3825,3.3685,3.3062,3.2625,3.2374,3.1891,3.1464,3.1233,3.1169,3.0985,3.0559,3.0492,3.0529,3.0669,3.0981,3.1401,3.1705,3.2069,3.225,3.2092,3.2021,3.1899,3.1766,3.1705,3.1705,3.1705,3.1705,3.1705,3.1705,3.1705,3.1705,3.167,3.1417,3.114,3.0937,3.0601,3.0456,3.048,3.0516,3.0672,3.0841,3.0732,3.072,3.0648,3.0155,2.9831,2.9615,2.8945,2.8394,2.7899,2.7671,2.7464,2.7043,2.6589,2.6231,2.6132,2.6084,2.6238,2.6298,2.6265,2.6484,2.6835,2.6883,2.6934,2.7039,2.7159,2.7313,2.7409,2.7459,2.7676,2.8128,2.8294,2.8284,4.0162,3.98,4.0236,4.0399,4.0322,4.0228,3.9945,3.9706,3.8721,3.8182,3.7958,3.7583,3.7295,3.7389,3.7302,3.7367,3.7389,3.7335,3.7345,3.7324,3.7302,3.7105,3.6854,3.7072,3.705,3.685,3.7214,3.6745,3.6115,3.5954,3.5433,3.4728,3.4482,3.4482,3.4482,3.4482,3.4482,3.4482,3.4482,3.4482,3.4441,3.4163,3.3975,3.3879,3.3338,3.2748,3.2285,3.1857,3.1558,3.1569,3.158,3.1342,3.0994,3.0974,3.0823,3.0677,3.1205,3.1657,3.1815,3.25,3.2925,3.2528,3.2442,3.2321,3.1936,3.179,3.1705,3.1705,3.1705,3.1705,3.1705,3.1705,3.1705,3.1693,3.167,3.1453,3.1117,3.0973,3.0984,3.0961,3.0564,3.0599,3.066,3.06,3.0409,3.1068,3.0562,3.0143,2.9916,2.9532,2.9041,2.8597,2.8522,2.8582,2.8089,2.7563,2.7241,2.7,2.6892,2.6952,2.7106,2.7097,2.7073,2.7183,2.7469,2.7496,2.7387,2.7532,2.7733,2.7866,2.795,2.819,2.8476,2.8428,2.8416,4.0583,4.0838,4.0525,4.0335,4.0235,4.0217,3.9623,3.8734,3.8436,3.8017,3.7646,3.7461,3.7389,3.7389,3.7389,3.7389,3.7389,3.7389,3.7389,3.7389,3.7389,3.7345,3.7236,3.7356,3.7324,3.7236,3.7313,3.688,3.6206,3.5852,3.5474,3.4627,3.4482,3.4482,3.4482,3.4482,3.4482,3.4482,3.4482,3.4482,3.4482,3.4397,3.4288,3.4223,3.3535,3.2669,3.1955,3.1671,3.1604,3.158,3.158,3.1504,3.1382,3.1396,3.1309,3.1259,3.1435,3.1708,3.1845,3.2347,3.2638,3.2601,3.2574,3.2466,3.2334,3.1887,3.173,3.1705,3.1705,3.1705,3.1705,3.1705,3.1705,3.1705,3.1705,3.1646,3.1549,3.1513,3.1477,3.1453,3.137,3.137,3.1454,3.1044,3.0996,3.1297,3.0984,3.0456,3.0204,3.0024,2.9701,2.9304,2.9196,2.917,2.8643,2.8128,2.7794,2.7613,2.7565,2.7565,2.7721,2.7757,2.7661,2.7854,2.82,2.8094,2.7832,2.7998,2.8212,2.832,2.8404,2.8561,2.8645,2.8597,2.8763,4.096,4.1163,4.0898,4.0562,4.0182,3.9899,3.9211,3.8362,3.7976,3.7706,3.745,3.7389,3.7389,3.7389,3.7389,3.7389,3.7389,3.7389,3.7389,3.7389,3.7389,3.7389,3.7389,3.7356,3.7313,3.7127,3.7061,3.6526,3.586,3.5575,3.5223,3.4561,3.4482,3.4482,3.4482,3.4482,3.4482,3.4482,3.4482,3.4482,3.4482,3.4482,3.4482,3.4321,3.3631,3.2803,3.2396,3.1837,3.1518,3.1387,3.1462,3.1483,3.1361,3.1471,3.1494,3.1338,3.1563,3.198,3.2348,3.2683,3.2912,3.2853,3.2887,3.255,3.2261,3.1815,3.173,3.1705,3.1705,3.1705,3.1705,3.1705,3.1705,3.1705,3.1705,3.1705,3.1705,3.1705,3.1705,3.1705,3.1657,3.1657,3.156,3.1344,3.1356,3.1536,3.1164,3.0672,3.0671,3.0492,3.0373,3.0096,2.9914,2.9637,2.91,2.8621,2.8214,2.8094,2.8092,2.8106,2.82,2.82,2.8154,2.8332,2.844,2.8464,2.8296,2.85,2.8524,2.8536,2.8585,2.8753,2.8969,2.9174,2.9388,4.1043,4.1043,4.0954,4.0522,3.9899,3.9344,3.8749,3.8122,3.7616,3.745,3.7389,3.7389,3.7389,3.7389,3.7389,3.7389,3.7389,3.7389,3.7389,3.7389,3.7389,3.7389,3.7389,3.7356,3.7171,3.6766,3.6766,3.6195,3.5485,3.5154,3.5026,3.4572,3.4482,3.4482,3.4482,3.4482,3.4482,3.4482,3.4482,3.4482,3.4482,3.4471,3.4463,3.4171,3.3587,3.3024,3.2636,3.2053,3.1453,3.1085,3.1322,3.1253,3.1145,3.1288,3.1382,3.1,3.1503,3.2136,3.2725,3.3161,3.3374,3.3346,3.3284,3.291,3.2248,3.1887,3.179,3.1802,3.1814,3.1705,3.1705,3.1705,3.1705,3.1705,3.1705,3.1705,3.1705,3.1705,3.1705,3.1705,3.1705,3.1705,3.1705,3.1597,3.1669,3.1645,3.1261,3.1008,3.0996,3.096,3.0841,3.0792,3.06,3.0155,2.9617,2.9017,2.8611,2.8404,2.8452,2.8476,2.8561,2.8645,2.8597,2.8452,2.8488,2.8524,2.8524,2.85,2.8548,2.8631,2.8859,2.91,2.9424,2.9797,2.9989,4.0365,4.0322,3.9811,3.9223,3.8648,3.8511,3.8152,3.7585,3.7465,3.7389,3.7389,3.7389,3.7389,3.7389,3.7389,3.7389,3.7389,3.7389,3.7389,3.7389,3.7389,3.7389,3.7389,3.7378,3.7138,3.6832,3.6679,3.6162,3.5408,3.5154,3.4946,3.4594,3.4539,3.4539,3.4507,3.4493,3.4539,3.4482,3.4482,3.4482,3.4482,3.4471,3.4343,3.404,3.3489,3.3032,3.2551,3.1988,3.156,3.1475,3.1192,3.1016,3.0961,3.1276,3.1333,3.1167,3.157,3.2118,3.2616,3.3297,3.3528,3.3432,3.3284,3.326,3.2778,3.2224,3.1912,3.2032,3.1911,3.1705,3.1705,3.1705,3.1705,3.1705,3.1705,3.1705,3.1705,3.1705,3.1705,3.1705,3.1705,3.1705,3.1705,3.1705,3.1705,3.1705,3.1536,3.1381,3.1404,3.1357,3.1297,3.1262,3.125,3.072,3.0156,2.952,2.9003,2.8679,2.8619,2.8609,2.8741,2.9005,2.9017,2.8933,2.8729,2.8621,2.8597,2.8561,2.8727,2.8907,2.9184,2.9472,2.9892,3.0277,3.0469,4.0525,4.0165,3.9884,3.9193,3.8403,3.8298,3.7957,3.7435,3.7389,3.7389,3.7389,3.7389,3.7389,3.7389,3.7389,3.7389,3.7389,3.7389,3.7389,3.7389,3.7389,3.7389,3.7389,3.7389,3.7105,3.6832,3.6668,3.6209,3.5299,3.5186,3.4968,3.4684,3.4717,3.4761,3.4641,3.4747,3.4684,3.4572,3.4482,3.4482,3.4482,3.4482,3.4332,3.4117,3.3693,3.3251,3.2781,3.2287,3.1737,3.1354,3.1245,3.0841,3.0704,3.0976,3.14,3.1113,3.1242,3.1721,3.2183,3.2793,3.2768,3.2948,3.3121,3.2959,3.2561,3.2007,3.1874,3.1947,3.1971,3.1705,3.1705,3.1705,3.1705,3.1705,3.1705,3.1705,3.1705,3.1705,3.1705,3.1705,3.1705,3.1705,3.1705,3.1705,3.1705,3.1705,3.1705,3.1705,3.1705,3.1634,3.1549,3.1465,3.1345,3.0768,3.0299,2.9892,2.9422,2.9098,2.8929,2.8919,2.9015,2.9316,2.9484,2.9498,2.9246,2.9029,2.8823,2.8847,2.9027,2.9242,2.9567,2.9928,3.0383,3.0732,3.0925,4.0684,4.0194,4.0074,3.9418,3.857,3.8347,3.8047,3.7626,3.745,3.7389,3.7389,3.7389,3.7389,3.7389,3.7389,3.7389,3.7389,3.7389,3.7389,3.7389,3.7389,3.7389,3.7389,3.7345,3.7214,3.6996,3.6898,3.6304,3.5608,3.5419,3.5154,3.5023,3.5179,3.5034,3.4801,3.4834,3.4783,3.4627,3.4482,3.4482,3.4482,3.4482,3.4482,3.4452,3.404,3.3587,3.3237,3.2636,3.2033,3.1553,3.1291,3.0993,3.0319,3.0896,3.1344,3.1182,3.0833,3.1398,3.2002,3.2576,3.27,3.2627,3.3038,3.2709,3.226,3.2043,3.1874,3.1753,3.1705,3.1705,3.1705,3.1705,3.1705,3.1705,3.1705,3.1705,3.1705,3.1705,3.1705,3.1705,3.1705,3.1705,3.1705,3.1705,3.1705,3.1705,3.1705,3.1705,3.1705,3.1705,3.1622,3.1501,3.1249,3.066,3.0299,3.0167,2.9807,2.9567,2.9471,2.9471,2.9543,2.9675,2.9855,3.0096,2.9988,2.9759,2.9447,2.9266,2.9543,2.9819,3.0048,3.0409,3.0913,3.12,3.1369,4.0266,4.0162,3.965,3.9297,3.906,3.8526,3.8257,3.8092,3.7563,3.7389,3.7389,3.7367,3.7356,3.7389,3.7389,3.7389,3.7389,3.7389,3.7389,3.7389,3.7389,3.7389,3.7389,3.7389,3.7356,3.7214,3.7247,3.6781,3.6158,3.5951,3.5819,3.5638,3.5375,3.5143,3.5034,3.4968,3.4564,3.4517,3.4493,3.4482,3.4482,3.4482,3.4482,3.4376,3.4076,3.3762,3.3521,3.2888,3.2254,3.2123,3.1369,3.1158,3.1222,3.104,3.1535,3.1957,3.2247,3.2308,3.2558,3.2931,3.2948,3.2636,3.2926,3.2876,3.243,3.22,3.2068,3.1729,3.1705,3.1705,3.1705,3.1705,3.1705,3.1705,3.1705,3.1705,3.1705,3.1705,3.1705,3.1705,3.1705,3.1705,3.1705,3.1705,3.1705,3.1705,3.1705,3.1705,3.1657,3.1609,3.1381,3.1188,3.1044,3.0526,3.0299,3.0167,3.0191,2.9976,3.0012,3.0012,3.0083,3.0191,3.0538,3.0695,3.0588,3.048,3.0227,3.0143,3.0239,3.0335,3.0492,3.0937,3.1489,3.1682,3.1802,4.0554,4.0179,3.9913,3.9385,3.8734,3.8406,3.8107,3.7726,3.7236,3.716,3.7302,3.7094,3.7138,3.7345,3.7389,3.7389,3.7389,3.7389,3.7389,3.7389,3.7389,3.7389,3.7389,3.7389,3.7389,3.7389,3.7367,3.7258,3.6781,3.6442,3.6198,3.5681,3.5823,3.5714,3.5343,3.5299,3.5157,3.496,3.4684,3.4493,3.4482,3.4482,3.4482,3.446,3.4018,3.3835,3.3576,3.292,3.244,3.2276,3.164,3.1398,3.1633,3.1716,3.2016,3.2326,3.2725,3.2732,3.2612,3.2982,3.2746,3.2434,3.25,3.2551,3.22,3.2056,3.2008,3.1741,3.1705,3.1705,3.1705,3.1705,3.1705,3.1705,3.1705,3.1705,3.1705,3.1705,3.1705,3.1705,3.1705,3.1705,3.1705,3.1705,3.1705,3.1705,3.1705,3.1705,3.1537,3.1333,3.1044,3.0671,3.055,3.0358,3.0263,3.018,3.0456,3.0419,3.0564,3.0564,3.0599,3.0767,3.102,3.1104,3.096,3.0877,3.0865,3.066,3.0431,3.0635,3.0899,3.1306,3.1703,3.207,3.2154,4.0911,4.0441,4.0453,3.9811,3.8764,3.863,3.8332,3.7857,3.7039,3.7064,3.7365,3.7162,3.7105,3.7324,3.7389,3.7389,3.7389,3.7389,3.7389,3.7389,3.7389,3.7389,3.7389,3.7389,3.7389,3.7382,3.7203,3.7203,3.7164,3.6814,3.6176,3.5736,3.5932,3.5932,3.5619,3.5343,3.519,3.4914,3.4627,3.4507,3.4482,3.4482,3.4408,3.4258,3.401,3.3751,3.3521,3.303,3.2628,3.2518,3.211,3.1911,3.2165,3.2244,3.2542,3.2893,3.3279,3.3272,3.3096,3.3054,3.2535,3.2224,3.1992,3.2152,3.1862,3.1705,3.1705,3.1705,3.1705,3.1705,3.1705,3.1705,3.1705,3.1705,3.1705,3.1705,3.1705,3.1705,3.1705,3.1705,3.1705,3.1705,3.1705,3.1705,3.1705,3.1705,3.1705,3.1705,3.1513,3.1273,3.1128,3.0839,3.0588,3.0587,3.0707,3.0648,3.0792,3.0841,3.0996,3.1092,3.108,3.114,3.1297,3.1321,3.1273,3.1309,3.1297,3.0925,3.0624,3.0996,3.132,3.1506,3.1832,3.2259,3.2535,4.1184,4.1127,4.1062,4.0603,3.996,3.9444,3.9197,3.8855,3.7355,3.7225,3.7792,3.7592,3.7257,3.7345,3.7313,3.7324,3.7367,3.7378,3.7345,3.7345,3.7378,3.7356,3.7354,3.7336,3.7366,3.7279,3.7154,3.7209,3.7144,3.6699,3.6725,3.7055,3.6151,3.5848,3.5647,3.5467,3.5188,3.4964,3.481,3.4719,3.4677,3.4591,3.4418,3.4054,3.3841,3.3595,3.3194,3.3066,3.304,3.3031,3.2592,3.259,3.2856,3.2761,3.3044,3.363,3.3852,3.3882,3.3803,3.3637,3.33,3.2638,3.2082,3.1838,3.1729,3.1705,3.1705,3.1705,3.1705,3.1705,3.1705,3.1705,3.1705,3.1705,3.1705,3.1705,3.1705,3.1705,3.1705,3.1705,3.1705,3.1705,3.1705,3.1705,3.1705,3.1705,3.1705,3.1705,3.1645,3.1453,3.1465,3.1273,3.0937,3.0973,3.1357,3.1321,3.1032,3.1152,3.1381,3.1488,3.1548,3.1598,3.1525,3.1549,3.1525,3.1633,3.1669,3.1356,3.1235,3.1489,3.1752,3.2013,3.231,3.2734,3.2936,4.0076,3.9131,3.9117,3.9523,4.0167,3.9604,3.9346,3.9038,3.7594,3.6847,3.6978,3.6988,3.7015,3.6983,3.6974,3.6974,3.7018,3.7291,3.7197,3.716,3.7193,3.7203,3.718,3.724,3.7325,3.7159,3.7147,3.7341,3.7477,3.6805,3.7051,3.7001,3.6223,3.5997,3.5832,3.5932,3.58,3.5586,3.5568,3.5582,3.5527,3.521,3.4983,3.4813,3.3978,3.3961,3.3868,3.3413,3.3418,3.339,3.3095,3.3294,3.3562,3.3399,3.3694,3.4299,3.4421,3.4448,3.4342,3.4126,3.3549,3.2659,3.2044,3.1705,3.1705,3.1705,3.1705,3.1705,3.1705,3.1705,3.1705,3.1705,3.1705,3.1705,3.1705,3.1705,3.1705,3.1705,3.1705,3.1705,3.1705,3.1705,3.1705,3.1705,3.1705,3.1705,3.1705,3.1705,3.1645,3.1549,3.1513,3.1357,3.0997,3.0949,3.1297,3.1237,3.1116,3.1416,3.1705,3.1705,3.1705,3.1705,3.1646,3.1705,3.1751,3.1796,3.1796,3.175,3.1835,3.2027,3.2316,3.264,3.295,3.3248,3.3482,3.8904,3.7789,3.7423,3.7793,3.8589,3.8277,3.8305,3.8291,3.6823,3.6117,3.5855,3.6326,3.6537,3.6501,3.6493,3.6644,3.674,3.6871,3.6838,3.6901,3.7012,3.6997,3.7027,3.7193,3.7447,3.7183,3.7244,3.7487,3.7642,3.7069,3.7067,3.6994,3.664,3.6289,3.6429,3.6577,3.6624,3.6371,3.6293,3.6293,3.6184,3.5715,3.526,3.5061,3.4292,3.3704,3.3724,3.3451,3.3518,3.3564,3.3536,3.3743,3.3979,3.4183,3.4335,3.4604,3.4799,3.4799,3.4643,3.4114,3.3525,3.2839,3.2068,3.179,3.1717,3.1717,3.1705,3.1705,3.1705,3.1705,3.1705,3.1705,3.1705,3.1705,3.1705,3.1705,3.1705,3.1705,3.1705,3.1705,3.1705,3.1705,3.1705,3.1705,3.1705,3.1705,3.1705,3.1705,3.1681,3.1562,3.1429,3.1212,3.0912,3.096,3.108,3.108,3.1139,3.1488,3.1705,3.1705,3.1705,3.1738,3.1727,3.1705,3.1774,3.1912,3.2044,3.2178,3.2336,3.2506,3.2972,3.3511,3.3414,3.3724,3.4224,3.7806,3.765,3.6455,3.5693,3.5341,3.5272,3.5965,3.6882,3.556,3.5051,3.5477,3.5954,3.6138,3.6125,3.6208,3.6501,3.6697,3.65,3.6474,3.6825,3.7023,3.6908,3.7034,3.7306,3.7573,3.755,3.749,3.7509,3.7699,3.7118,3.6957,3.7012,3.687,3.6615,3.689,3.6555,3.6368,3.6336,3.6369,3.6458,3.6297,3.5935,3.5577,3.5101,3.4574,3.3995,3.3541,3.3809,3.3868,3.3691,3.3924,3.4196,3.4559,3.4279,3.4359,3.4738,3.4787,3.4799,3.4739,3.3873,3.344,3.3164,3.2454,3.1887,3.1777,3.1729,3.1717,3.1705,3.1705,3.1705,3.1705,3.1717,3.1717,3.1705,3.1705,3.1705,3.1705,3.1705,3.1705,3.1705,3.1705,3.1705,3.1705,3.1705,3.1705,3.1705,3.1705,3.1705,3.1693,3.1622,3.1477,3.1358,3.1116,3.12,3.1285,3.1092,3.1175,3.1524,3.1761,3.1805,3.1871,3.1959,3.1904,3.1783,3.1931,3.2157,3.2431,3.2692,3.305,3.3457,3.4,3.4387,3.4204,3.4274,3.4839,3.614,3.4396,3.3972,3.3242,3.2679,3.4409,3.5612,3.6201,3.6124,3.6027,3.6038,3.6502,3.6432,3.6288,3.6446,3.6711,3.6858,3.7238,3.7252,3.694,3.7173,3.7127,3.7222,3.7439,3.7659,3.7491,3.7422,3.7662,3.789,3.7412,3.7468,3.7569,3.738,3.7291,3.7238,3.7143,3.7308,3.7047,3.7167,3.7298,3.6909,3.6627,3.6285,3.5759,3.5229,3.4539,3.3854,3.4304,3.4267,3.4105,3.4369,3.458,3.4779,3.4482,3.4592,3.4787,3.4799,3.4799,3.4643,3.4174,3.3814,3.3453,3.2887,3.225,3.2225,3.1874,3.1766,3.1753,3.179,3.1778,3.1705,3.1706,3.1706,3.1717,3.1705,3.1705,3.1705,3.1705,3.1705,3.1705,3.1705,3.1705,3.1705,3.1705,3.1705,3.1705,3.1705,3.1705,3.1705,3.1705,3.1622,3.1622,3.1514,3.1549,3.1549,3.1654,3.1623,3.1873,3.1999,3.2014,3.2091,3.2242,3.2264,3.2247,3.2324,3.2438,3.2989,3.3528,3.4028,3.4514,3.4952,3.5234,3.5148,3.5256,3.5631,3.4173,3.2486,3.2191,3.1653,3.1239,3.2938,3.4228,3.517,3.6044,3.6363,3.6378,3.6669,3.6602,3.6384,3.6538,3.6936,3.7012,3.7088,3.7356,3.7049,3.7322,3.7229,3.7271,3.7582,3.774,3.7594,3.7721,3.7983,3.7976,3.7997,3.7945,3.793,3.7987,3.7732,3.7624,3.7699,3.7786,3.7592,3.7709,3.7748,3.7465,3.721,3.6939,3.6481,3.5905,3.5196,3.4881,3.4746,3.4708,3.4663,3.4683,3.4775,3.4799,3.4799,3.4799,3.4799,3.4799,3.4799,3.4655,3.4547,3.4294,3.421,3.3309,3.284,3.2743,3.2537,3.2393,3.2285,3.208,3.2008,3.2007,3.1972,3.1887,3.1887,3.1862,3.1874,3.1705,3.1705,3.1705,3.1705,3.1705,3.1705,3.1705,3.1705,3.1705,3.1705,3.1705,3.1705,3.1705,3.1705,3.1802,3.1899,3.1996,3.2104,3.2269,3.2493,3.2438,3.2309,3.2431,3.2625,3.2595,3.2796,3.2754,3.2676,3.2697,3.2938,3.3779,3.4395,3.4918,3.5348,3.5702,3.5925,3.6015,3.6061,3.6106,3.1971,3.1834,3.115,3.0859,3.0874,3.1082,3.2037,3.3685,3.4891,3.5692,3.625,3.6375,3.6527,3.6409,3.6409,3.677,3.7104,3.6812,3.695,3.7118,3.7365,3.7249,3.7399,3.7698,3.7846,3.7943,3.8,3.8,3.8,3.8,3.8,3.8,3.8,3.7907,3.7907,3.7922,3.7904,3.7784,3.788,3.7843,3.7607,3.7464,3.7193,3.6745,3.6153,3.5449,3.5021,3.4789,3.4551,3.448,3.4543,3.4714,3.4799,3.4799,3.4799,3.4799,3.4799,3.4799,3.4787,3.4679,3.4691,3.4547,3.3933,3.3512,3.3259,3.3138,3.2956,3.2863,3.2708,3.2611,3.2538,3.2382,3.2224,3.22,3.2152,3.2019,3.1777,3.1705,3.1705,3.1705,3.1705,3.1705,3.1705,3.1705,3.1705,3.1705,3.1705,3.1705,3.1705,3.1705,3.1874,3.2297,3.2442,3.2694,3.2895,3.3093,3.3224,3.3091,3.3411,3.3598,3.3518,3.3412,3.3468,3.3401,3.3102,3.3431,3.438,3.5162,3.5835,3.6179,3.6201,3.619,3.6169,3.6053,3.6085,3.1082,3.0292,3.0076,2.9965,3.0014,3.0288,3.138,3.301,3.419,3.5027,3.5672,3.6973,3.7052,3.6916,3.7319,3.7535,3.7535,3.7615,3.7652,3.7644,3.7454,3.7646,3.7764,3.7833,3.7975,3.7988,3.7988,3.8,3.8,3.8,3.8,3.8,3.8,3.8,3.8,3.8,3.7796,3.7723,3.7867,3.7807,3.7697,3.7589,3.7265,3.6747,3.6338,3.5622,3.506,3.4821,3.464,3.4665,3.4702,3.4799,3.4799,3.4799,3.4799,3.4799,3.4799,3.4799,3.4799,3.4799,3.4799,3.4799,3.4438,3.4198,3.3873,3.3582,3.3424,3.3391,3.3262,3.3106,3.2936,3.2767,3.2538,3.2382,3.2273,3.1996,3.1778,3.1705,3.1705,3.1705,3.1705,3.1705,3.1705,3.1705,3.1705,3.1705,3.1705,3.1705,3.1705,3.1705,3.1979,3.2426,3.2741,3.2957,3.3312,3.3536,3.3762,3.3942,3.4278,3.4478,3.4332,3.4251,3.4272,3.4197,3.4024,3.4382,3.5064,3.575,3.6251,3.6311,3.6333,3.6334,3.6285,3.617,3.6118,3.0513,3.0574,3.0331,3.0336,3.0506,3.0558,3.1021,3.1727,3.3054,3.4276,3.5498,3.6692,3.7081,3.6893,3.7441,3.7444,3.6441,3.7207,3.7432,3.7104,3.7342,3.7451,3.7565,3.7673,3.765,3.7722,3.7891,3.8,3.8,3.8,3.8,3.8,3.8,3.8,3.8,3.7976,3.7843,3.777,3.7784,3.776,3.7722,3.7638,3.7156,3.6771,3.6423,3.5677,3.5159,3.4967,3.4811,3.4799,3.4799,3.4799,3.4799,3.4799,3.4799,3.4799,3.4799,3.4799,3.4799,3.4799,3.4799,3.4799,3.4787,3.4631,3.4414,3.4161,3.4053,3.3982,3.3755,3.3528,3.3346,3.3152,3.2827,3.2526,3.2237,3.1949,3.1827,3.1729,3.1705,3.1705,3.1705,3.1705,3.1705,3.1705,3.1705,3.1705,3.1705,3.1705,3.1705,3.1705,3.2072,3.2551,3.2892,3.3171,3.3586,3.4099,3.4429,3.4782,3.5177,3.5292,3.5131,3.4956,3.4873,3.4947,3.502,3.532,3.552,3.5957,3.6382,3.638,3.6355,3.6357,3.632,3.6269,3.6256,3.0139,3.203,3.1487,3.1281,3.1619,3.121,3.0528,2.9789,3.1582,3.3464,3.493,3.5689,3.5855,3.5808,3.6479,3.5954,3.5424,3.5847,3.6109,3.6005,3.6219,3.6446,3.6738,3.708,3.7216,3.7372,3.7577,3.7844,3.7976,3.8,3.8,3.8,3.8,3.8,3.8,3.8,3.7915,3.7916,3.7928,3.7928,3.7807,3.7554,3.7156,3.6916,3.6278,3.5532,3.5364,3.5111,3.4799,3.4799,3.4799,3.4799,3.4799,3.4799,3.4799,3.4799,3.4799,3.4799,3.4799,3.4799,3.4799,3.4799,3.4787,3.4763,3.4619,3.4547,3.4463,3.4426,3.421,3.4102,3.3958,3.3621,3.3285,3.2924,3.2599,3.2286,3.2056,3.1887,3.1705,3.1705,3.1705,3.1705,3.1705,3.1705,3.1705,3.1705,3.1705,3.1705,3.1783,3.1783,3.213,3.2654,3.3056,3.3503,3.4305,3.4798,3.5209,3.5593,3.5903,3.5947,3.5668,3.5517,3.5406,3.5517,3.5642,3.5606,3.5794,3.618,3.6343,3.6193,3.6205,3.6318,3.6318,3.6243,3.6143,2.9729,3.1698,3.1562,3.1105,3.0463,3.064,2.9927,2.8749,2.9808,3.1157,3.2416,3.341,3.395,3.4149,3.4521,3.4082,3.3821,3.4059,3.4041,3.4319,3.469,3.5193,3.5581,3.6155,3.6643,3.712,3.7398,3.7651,3.7928,3.8,3.8,3.8,3.7964,3.7928,3.8,3.7988,3.7928,3.7988,3.8,3.8,3.7915,3.7469,3.7048,3.6578,3.5917,3.5364,3.5135,3.4919,3.4799,3.4799,3.4799,3.4799,3.4799,3.4799,3.4799,3.4799,3.4799,3.4799,3.4799,3.4799,3.4799,3.4799,3.4799,3.4799,3.4787,3.4799,3.4775,3.4751,3.4703,3.4619,3.4438,3.4054,3.3669,3.3297,3.2876,3.2551,3.2225,3.1984,3.1741,3.1705,3.1705,3.1705,3.1705,3.1705,3.1705,3.1705,3.1705,3.175,3.1904,3.1985,3.2186,3.2676,3.3233,3.3811,3.4651,3.5319,3.5659,3.5923,3.6185,3.6206,3.6143,3.603,3.5892,3.6067,3.618,3.6068,3.6043,3.6243,3.6305,3.6143,3.6131,3.6305,3.618,3.6068,3.5931,3.1036,3.2863,3.2499,3.1666,3.0731,3.0425,2.9522,2.8542,2.8826,2.939,3.0235,3.1574,3.2402,3.258,3.2925,3.2255,3.2048,3.2566,3.2665,3.2825,3.3074,3.3815,3.4422,3.5024,3.5728,3.6291,3.7021,3.747,3.788,3.8,3.8,3.7964,3.7867,3.7795,3.7916,3.7856,3.7832,3.8,3.8,3.8,3.7904,3.73,3.6782,3.6278,3.5713,3.5159,3.4967,3.4799,3.4799,3.4799,3.4799,3.4799,3.4799,3.4799,3.4799,3.4799,3.4799,3.4799,3.4799,3.4799,3.4799,3.4799,3.4799,3.4799,3.4799,3.4799,3.4799,3.4763,3.4763,3.4703,3.4438,3.4114,3.3681,3.3284,3.2599,3.2056,3.1936,3.1827,3.1706,3.1705,3.1705,3.1705,3.1705,3.1705,3.1739,3.1873,3.185,3.1997,3.2129,3.2423,3.2566,3.2873,3.3513,3.3987,3.4628,3.5354,3.5975,3.6227,3.6406,3.6355,3.6292,3.6343,3.638,3.6368,3.6355,3.6343,3.6368,3.6417,3.6368,3.6256,3.6256,3.6318,3.6093,3.5818,3.5705,3.2676,3.4324,3.3721,3.2688,3.156,3.0569,2.9444,2.8434,2.832,2.833,2.8629,3.0255,3.0918,3.141,3.1885,3.0809,3.036,3.0887,3.1116,3.113,3.1329,3.2022,3.2807,3.3588,3.4399,3.5554,3.6581,3.7224,3.777,3.7904,3.7976,3.7892,3.7735,3.7555,3.7722,3.7661,3.7601,3.7891,3.8,3.8,3.7578,3.7,3.659,3.6061,3.546,3.4871,3.4799,3.4799,3.4799,3.4799,3.4799,3.4799,3.4799,3.4799,3.4799,3.4799,3.4799,3.4799,3.4799,3.4799,3.4799,3.4799,3.4799,3.4799,3.4799,3.4799,3.4799,3.4799,3.4799,3.4715,3.4475,3.4246,3.3813,3.3392,3.2634,3.1887,3.1863,3.1779,3.173,3.1729,3.1729,3.1741,3.1753,3.1753,3.1829,3.1974,3.2178,3.2322,3.2553,3.2998,3.3305,3.3623,3.4134,3.4546,3.4826,3.545,3.6205,3.6288,3.6417,3.6417,3.6417,3.6417,3.6417,3.6406,3.6406,3.6417,3.6417,3.6417,3.6368,3.6155,3.6081,3.5931,3.5541,3.5328,3.5377,3.2336,3.356,3.4176,3.3375,3.1715,3.1293,3.0154,2.8478,2.8301,2.8301,2.8407,2.8526,2.8892,2.8938,2.9039,2.881,2.9103,2.9463,2.916,2.8973,2.9915,3.0417,3.1111,3.2257,3.3066,3.4371,3.5893,3.7041,3.7321,3.7676,3.8,3.7964,3.7915,3.7831,3.7904,3.7807,3.7746,3.7916,3.7964,3.7976,3.765,3.7096,3.6555,3.599,3.5388,3.4979,3.4799,3.4799,3.4799,3.4799,3.4799,3.4799,3.4799,3.4799,3.4799,3.4799,3.4799,3.4799,3.4799,3.4799,3.4799,3.4799,3.4799,3.4799,3.4799,3.4799,3.4799,3.4799,3.4799,3.4799,3.4619,3.4571,3.4258,3.3945,3.3368,3.2706,3.2357,3.2056,3.1814,3.1814,3.1814,3.185,3.1922,3.1943,3.2007,3.2236,3.2672,3.2852,3.3275,3.365,3.4004,3.4371,3.4752,3.4941,3.5174,3.5746,3.6335,3.6394,3.6417,3.6417,3.6417,3.6417,3.6417,3.6417,3.6417,3.6417,3.6417,3.633,3.5892,3.5667,3.5644,3.5469,3.5067,3.4935,3.508]},{"header":{"parameterUnit":"m.s-1","parameterCategory":1,"la1":31.0,"la2":29.5877,"lo1":-88.7671,"lo2":-86.6584,"dy":0.0162,"dx":0.0185,"nx":115,"ny":88,"refTime":"2023-03-05T06:00:00:Z","depth":0,"parameterNumber":3,"parameterNumberName":"V-component_of_WINDS"},"data":[0.0,0.0,0.0,0.0,0.0,0.0,0.0,0.0,0.0,0.0,0.0,0.0,0.0,0.0,0.0,0.0,0.0,0.0,0.0,0.0,0.0,0.0,0.0,0.0,0.0,0.0,0.0,0.0,0.0,0.0,0.0,0.0,0.0,0.0,0.0,0.0,0.0,0.0,0.0,0.0,0.0,0.0,0.0,0.0,0.0,0.0,0.0,0.0,0.0,0.0,0.0,0.0,0.0,0.0,0.0,0.0,0.0,0.0,0.0,0.0,0.0,0.0,0.0,0.0,0.0,0.0,0.0,0.0,0.0,0.0,0.0,0.0,0.0,0.0,0.0,0.0,0.0,0.0,0.0,0.0,0.0,0.0,0.0,0.0,0.0,0.0,0.0,0.0,0.0,0.0,0.0,0.0,0.0,0.0,0.0,0.0,0.0,0.0,0.0,0.0,0.0,0.0,0.0,0.0,0.0,0.0,0.0,0.0,0.0,0.0,0.0,0.0,0.0,0.0,0.0,0.0,0.0,0.0,0.0,0.0,0.0,0.0,0.0,0.0,0.0,0.0,0.0,0.0,0.0,0.0,0.0,0.0,0.0,0.0,0.0,0.0,0.0,0.0,0.0,0.0,0.0,0.0,0.0,0.0,0.0,0.0,0.0,0.0,0.0,0.0,0.0,0.0,0.0,0.0,0.0,0.0,0.0,0.0,0.0,0.0,0.0,0.0,0.0,0.0,0.0,0.0,0.0,0.0,0.0,0.0,0.0,0.0,0.0,0.0,0.0,0.0,0.0,0.0,0.0,0.0,0.0,0.0,0.0,0.0,0.0,0.0,0.0,0.0,0.0,0.0,0.0,0.0,0.0,0.0,0.0,0.0,0.0,0.0,0.0,0.0,0.0,0.0,0.0,0.0,0.0,0.0,0.0,0.0,0.0,0.0,0.0,0.0,0.0,0.0,0.0,0.0,0.0,0.0,0.0,0.0,0.0,0.0,0.0,0.0,0.0,0.0,0.0,0.0,0.0,0.0,0.0,0.0,0.0,0.0,0.0,0.0,0.0,0.0,0.0,0.0,0.0,0.0,0.0,0.0,0.0,0.0,0.0,0.0,0.0,0.0,0.0,0.0,0.0,0.0,0.0,0.0,0.0,0.0,0.0,0.0,0.0,0.0,0.0,0.0,0.0,0.0,0.0,0.0,0.0,0.0,0.0,0.0,0.0,0.0,0.0,0.0,0.0,0.0,0.0,0.0,0.0,0.0,0.0,0.0,0.0,0.0,0.0,0.0,0.0,0.0,0.0,0.0,0.0,0.0,0.0,0.0,0.0,0.0,0.0,0.0,0.0,0.0,0.0,0.0,0.0,0.0,0.0,0.0,0.0,0.0,0.0,0.0,0.0,0.0,0.0,0.0,0.0,0.0,0.0,0.0,0.0,0.0,0.0,0.0,0.0,0.0,0.0,0.0,0.0,0.0,0.0,0.0,0.0,0.0,0.0,0.0,0.0,0.0,0.0,0.0,0.0,0.0,0.0,0.0,0.0,0.0,0.0,0.0,0.0,0.0,0.0,0.0,0.0,0.0,0.0,0.0,0.0,0.0,0.0,0.0,0.0,0.0,0.0,0.0,0.0,0.0,0.0,0.0,0.0,0.0,0.0,0.0,0.0,0.0,0.0,0.0,0.0,0.0,0.0,0.0,0.0,0.0,0.0,0.0,0.0,0.0,0.0,0.0,0.0,0.0,0.0,0.0,0.0,0.0,0.0,0.0,0.0,0.0,0.0,0.0,0.0,0.0,0.0,0.0,0.0,0.0,0.0,0.0,0.0,0.0,0.0,0.0,0.0,0.0,0.0,0.0,0.0,0.0,0.0,0.0,0.0,0.0,0.0,0.0,0.0,0.0,0.0,0.0,0.0,0.0,0.0,0.0,0.0,0.0,0.0,0.0,0.0,0.0,0.0,0.0,0.0,0.0,0.0,0.0,0.0,0.0,0.0,0.0,0.0,0.0,0.0,0.0,0.0,0.0,0.0,0.0,0.0,0.0,0.0,0.0,0.0,0.0,0.0,0.0,0.0,0.0,0.0,0.0,0.0,0.0,0.0,0.0,0.0,0.0,0.0,0.0,0.0,0.0,0.0,0.0,0.0,0.0,0.0,0.0,0.0,0.0,0.0,0.0,0.0,0.0,0.0,0.0,0.0,0.0,0.0,0.0,0.0,0.0,0.0,0.0,0.0,0.0,0.0,0.0,0.0,0.0,0.0,0.0,0.0,0.0,0.0,0.0,0.0,0.0,0.0,0.0,0.0,0.0,0.0,0.0,0.0,0.0,0.0,0.0,0.0,0.0,0.0,0.0,0.0,0.0,0.0,0.0,0.0,0.0,0.0,0.0,0.0,0.0,0.0,0.0,0.0,0.0,0.0,0.0,0.0,0.0,0.0,0.0,0.0,0.0,0.0,0.0,0.0,0.0,0.0,0.0,0.0,0.0,0.0,0.0,0.0,0.0,0.0,0.0,0.0,0.0,0.0,0.0,0.0,0.0,0.0,0.0,0.0,0.0,0.0,0.0,0.0,0.0,0.0,0.0,0.0,0.0,0.0,0.0,0.0,0.0,0.0,0.0,0.0,0.0,0.0,0.0,0.0,0.0,0.0,0.0,0.0,0.0,0.0,0.0,0.0,0.0,0.0,0.0,0.0,0.0,0.0,0.0,0.0,0.0,0.0,0.0,0.0,0.0,0.0,0.0,0.0,0.0,0.0,0.0,0.0,0.0,0.0,0.0,0.0,0.0,0.0,0.0,0.0,0.0,0.0,0.0,0.0,0.0,0.0,0.0,0.0,0.0,0.0,0.0,0.0,0.0,0.0,0.0,0.0,0.0,0.0,0.0,0.0,0.0,0.0,0.0,0.0,0.0,0.0,0.0,0.0,0.0,0.0,0.0,0.0,0.0,0.0,0.0,0.0,0.0,0.0,0.0,0.0,0.0,0.0,0.0,0.0,0.0,0.0,0.0,0.0,0.0,0.0,0.0,0.0,0.0,0.0,0.0,0.0,0.0,0.0,0.0,0.0,0.0,0.0,0.0,0.0,0.0,0.0,0.0,0.0,0.0,0.0,0.0,0.0,0.0,0.0,0.0,0.0,0.0,0.0,0.0,0.0,0.0,0.0,0.0,0.0,0.0,0.0,0.0,0.0,0.0,0.0,0.0,0.0,0.0,0.0,0.0,0.0,0.0,0.0,0.0,0.0,0.0,0.0,0.0,0.0,0.0,0.0,0.0,0.0,0.0,0.0,0.0,0.0,0.0,0.0,0.0,0.0,0.0,0.0,0.0,0.0,0.0,0.0,0.0,0.0,0.0,0.0,0.0,0.0,0.0,0.0,0.0,0.0,0.0,0.0,0.0,0.0,0.0,0.0,0.0,0.0,0.0,0.0,0.0,0.0,0.0,0.0,0.0,0.0,0.0,0.0,0.0,0.0,0.0,0.0,0.0,0.0,0.0,0.0,0.0,0.0,0.0,0.0,0.0,0.0,0.0,0.0,0.0,0.0,0.0,0.0,0.0,0.0,0.0,0.0,0.0,0.0,0.0,0.0,0.0,0.0,0.0,0.0,0.0,0.0,0.0,0.0,0.0,0.0,0.0,0.0,0.0,0.0,0.0,0.0,0.0,0.0,0.0,0.0,0.0,0.0,0.0,0.0,0.0,0.0,0.0,0.0,0.0,0.0,0.0,0.0,0.0,0.0,0.0,0.0,0.0,0.0,0.0,0.0,0.0,0.0,0.0,0.0,0.0,0.0,0.0,0.0,0.0,0.0,0.0,0.0,0.0,0.0,0.0,0.0,0.0,0.0,0.0,0.0,0.0,0.0,0.0,0.0,0.0,0.0,0.0,0.0,0.0,0.0,0.0,0.0,0.0,0.0,0.0,0.0,0.0,0.0,0.0,0.0,0.0,0.0,0.0,0.0,0.0,0.0,0.0,0.0,0.0,0.0,0.0,0.0,0.0,0.0,0.0,0.0,0.0,0.0,0.0,0.0,0.0,0.0,0.0,0.0,0.0,0.0,0.0,0.0,0.0,0.0,0.0,0.0,0.0,0.0,0.0,0.0,0.0,0.0,0.0,0.0,0.0,0.0,0.0,0.0,0.0,0.0,0.0,0.0,0.0,0.0,0.0,0.0,0.0,0.0,0.0,0.0,0.0,0.0,0.0,0.0,0.0,0.0,0.0,0.0,0.0,0.0,0.0,0.0,0.0,0.0,0.0,0.0,0.0,0.0,0.0,0.0,0.0,0.0,0.0,0.1679,0.0,0.0,0.0,0.0,0.0,0.0,0.0,0.0,0.0,0.0,0.0,0.0,0.0,0.0,0.0,0.0,0.0,0.0,0.0,0.0,0.0,0.0,0.0,0.0,0.0,0.0,0.0,0.0,0.0,0.0,0.0,0.0,0.0,0.0,0.0,0.0,0.0,0.0,0.0,0.0,0.0,0.0,0.0,0.0,0.0,0.0,0.0,0.0,0.0,0.0,0.0,0.0,0.0,0.0,0.0,0.0,0.0,0.0,0.0,0.0,0.0,0.0,0.0,0.0,0.0,0.0,0.0,0.0,0.0,0.0,0.0,0.0,0.0,0.0,0.0,0.0,0.0,0.0,0.0,0.0,0.0,0.0,0.0,0.0,0.0,0.0,0.0,0.0,0.0,0.0,0.0,0.0,0.0,0.0,0.0,0.0,0.0,0.0,0.0,0.0,0.0,0.0,0.0,0.0,0.0,0.0,0.0,0.0,0.0,0.0,0.0956,0.1085,0.1113,0.1357,0.1845,0.0,0.0,0.0,0.0,0.0,0.0,0.0,0.0,0.0,0.0,0.0,0.0,0.0,0.0,0.0,0.0,0.0,0.0,0.0,0.0,0.0,0.0,0.0,0.0,0.0,0.0,0.0,0.0,0.0,0.0,0.0,0.0,0.0,0.0,0.0,0.0,0.0,0.0,0.0,0.0,0.0,0.0,0.0,0.0,0.0,0.0,0.0,0.0,0.0,0.0,0.0,0.0,0.0,0.0,0.0,0.0,0.0,0.0,0.0,0.0,0.0,0.0,0.0,0.0,0.0,0.0,0.0,0.0,0.0,0.0,0.0,0.0,0.0,0.0,0.0,0.0,0.0,0.0,0.0,0.0,0.0,0.0,0.0,0.0,0.0,0.0,0.0,0.0,0.0,0.0,0.0,0.0,0.0,0.0,0.0,0.0,0.0,0.0,0.0,0.0,0.0,0.0,0.0,0.0,0.0,0.0,0.0,0.0,0.0,0.0,0.0,0.0,0.1209,0.1594,0.2263,0.0,0.0,0.0,0.0,0.0,0.0,0.0,0.0,0.0,0.0,0.0,0.0,0.0,0.0,0.0,0.0,0.0,0.0,0.0,0.0,0.0,0.0,0.0,0.0,0.0,0.0,0.0,0.0,0.0,0.0,0.0,0.0,0.0,0.0,0.0,0.0,0.0,0.0,0.0,0.0,0.0,0.0,0.0,0.0,0.0,0.0,0.0,0.0,0.0,0.0,0.0,0.0,0.0,0.0,0.0,0.0,0.0,0.0,0.0,0.0,0.0,0.0,0.0,0.0,0.0,0.0,0.0,0.0,0.0,0.0,0.0,0.0,0.0,0.0,0.0,0.0,0.0,0.0,0.0,0.0,0.0,0.0,0.0,0.0,0.0,0.0,0.0,0.0,0.0,0.0,0.0,0.0,0.0,0.0,0.0,0.0,0.0,0.0,0.0,0.0,0.0,0.0,0.0,0.0,0.0,0.0,0.0,0.0,0.0,0.0,0.1648,0.1553,0.1957,0.0,0.3062,0.0,0.0,0.0,0.0,0.0,0.0,0.0,0.0,0.0,0.0,0.0,0.0,0.0,0.0,0.0,0.0,0.0,0.0,0.0,0.0,0.0,0.0,0.0,0.0,0.0,0.0,0.0,0.0,0.0,0.0,0.0,0.0,0.0,0.0,0.0,0.0,0.0,0.0,0.0,0.0,0.0,0.0,0.0,0.0,0.0,0.0,0.0,0.0,0.0,0.0,0.0,0.0,0.0,0.0,0.0,0.0,0.0,0.0,0.0,0.0,0.0,0.0,0.0,0.0,0.0,0.0,0.0,0.0,0.0,0.0,0.0,0.0,0.0,0.0,0.0,0.0,0.0,0.0,0.0,0.0,0.0,0.0,0.0,0.0,0.0,0.0,0.0,0.0,0.0,0.0,0.0,0.0,0.0,0.0,0.0,0.0,0.0,0.0,0.0,0.0,0.0,0.0,0.0,0.0,0.0,0.0,0.0,0.0,0.0,0.0,0.1884,0.189,0.2612,0.315,0.0,0.0,0.0,0.0,0.0,0.0,0.0,0.0,0.0,0.0,0.0,0.0,0.0,0.0,0.0,0.0,0.0,0.0,0.0,0.0,0.0,0.0,0.0,0.0,0.0,0.0,0.0,0.0,0.0,0.0,0.0,0.0,0.0,0.0,0.0,0.0,0.0,0.0,0.0,0.0,0.0,0.0,0.0,0.0,0.0,0.0,0.0,0.0,0.0,0.0,0.0,0.0,0.0,0.0,0.0,0.0,0.0,0.0,0.0,0.0,0.0,0.0,0.0,0.0,0.0,0.0,0.0,0.0,0.0,0.0,0.0,0.0,0.0,0.0,0.0,0.0,0.0,0.0,0.0,0.0,0.0,0.0,0.0,0.0,0.0,0.0,0.0,0.0,0.0,0.0,0.0,0.0,0.0,0.0,0.0,0.0,0.0,0.0,0.0,0.0,0.0,0.0,0.0,0.0,0.0,0.0,0.0,0.0,0.0,0.0,0.2061,0.2187,0.2386,0.2949,0.3347,0.356,0.0,0.0,0.0,0.0,0.0,0.0,0.0,0.0,0.0,0.0,0.0,0.0,0.0,0.0,0.0,0.0,0.0,0.0,0.0,0.0,0.0,0.0,0.0,0.0,0.0,0.0,0.0,0.0,0.0,0.0,0.0,0.0,0.0,0.0,0.0,0.0,0.0,0.0,0.0,0.0,0.0,0.0,0.0,0.0,0.0,0.0,0.0,0.0,0.0,0.0,0.0,0.0,0.0,0.0,0.0,0.0,0.0,0.0,0.0,0.0,0.0,0.0,0.0,0.0,0.0,0.0,0.0,0.0,0.0,0.0,0.0,0.0,0.0,0.0,0.0,0.0,0.0,0.0,0.0,0.0,0.0,0.0,0.0,0.0,0.0,0.0,0.0,0.0,0.0,0.0,0.0,0.0,0.0,0.0,0.0,0.0,0.0,0.0,0.0,0.0,0.0,0.0,0.0,0.0,0.0,0.0,0.0,0.0,0.2521,0.2562,0.2723,0.3042,0.2789,0.2906,0.0,0.0,0.0,0.0,0.0,0.0,0.0,0.0,0.0,0.0,0.0,0.0,0.0,0.0,0.0,0.0,0.0,0.0,0.0,0.0,0.0,0.0,0.0,0.0,0.0,0.0,0.0,0.0,0.0,0.0,0.0,0.0,0.0,0.0,0.0,0.0,0.0,0.0,0.0,0.0,0.0,0.0,0.0,0.0,0.0,0.0,0.0,0.0,0.0,0.0,0.0,0.0,0.0,0.0,0.0,0.0,0.0,0.0,0.0,0.0,0.0,0.0,0.0,0.0,0.0,0.0,0.0,0.0,0.0,0.0,0.0,0.0,0.0,0.0,0.0,0.0,0.0,0.0,0.0,0.0,0.0,0.0,0.0,0.0,0.0,0.0,0.0,0.0,0.0,0.0,0.0,0.0,0.0,0.0,0.0,0.0,0.0,0.0,0.0,0.0,0.0,0.0,0.0,0.0,0.0,0.0,0.0,0.0,0.0,0.221,0.2673,0.317,0.3648,0.3479,0.3534,0.0,0.0,0.0,0.0,0.0,0.0,0.0,0.0,0.0,0.0,0.0,0.0,0.0,0.0,0.0,0.0,0.0,0.0,0.0,0.0,0.0,0.0,0.0,0.0,0.0,0.0,0.0,0.0,0.0,0.0,0.0,0.0,0.0,0.0,0.0,0.0,0.0,0.0,0.0,0.0,0.0,0.0,0.0,0.0,0.0,0.0,0.0,0.0,0.0,0.0,0.0,0.0,0.0,0.0,0.0,0.0,0.0,0.0,0.0,0.0,0.0,0.0,0.0,0.0,0.0,0.0,0.0,0.0,0.0,0.0,0.0,0.0,0.0,0.0,0.0,0.0,0.0,0.0,0.0,0.0,0.0,0.0,0.0,0.0,0.0,0.0,0.0,0.0,0.0,0.0,0.0,0.0,0.0,0.0,0.0,0.0,0.0,0.0,0.0,0.0,0.0,0.0,0.0,0.0,0.0,0.0,0.0,0.0,0.0,0.2029,0.0,0.3206,0.3559,0.354,0.3633,0.0,0.0,0.0,0.0,0.0,0.0,0.0,0.0,0.0,0.0,0.0,0.0,0.0,0.0,0.0,0.0,0.0,0.0,0.0,0.0,0.0,0.0,0.0,0.0,0.0,0.0,0.0,0.0,0.0,0.0,0.0,0.0,0.0,0.0,0.0,0.0,0.0,0.0,0.0,0.0,0.0,0.0,0.0,0.0,0.0,0.0,0.0,0.0,0.0,0.0,0.0,0.0,0.0,0.0,0.0,0.0,0.0,0.0,0.0,0.0,0.0,0.0,0.0,0.0,0.0,0.0,0.0,0.0,0.0,0.0,0.0,0.0,0.0,0.0,0.0,0.0,0.0,0.0,0.0,0.0,0.0,0.0,0.0,0.0,0.0,0.0,0.0,0.0,0.0,0.0,0.0,0.0,0.0,0.0,0.0,0.0,0.0,0.0,0.0,0.0,0.0,0.0,0.0,0.0,0.0,0.0,0.0,0.0,0.1591,0.2169,0.2752,0.3079,0.2777,0.2982,0.3158,0.0,0.0,0.0,0.0,0.0,0.0,0.0,0.0,0.0,0.0,0.0,0.0,0.0,0.0,0.0,0.0,0.0,0.0,0.0,0.0,0.0,0.0,0.0,0.0,0.0,0.0,0.0,0.0,0.0,0.0,0.0,0.0,0.0,0.0,0.0,0.0,0.0,0.0,0.0,0.0,0.0,0.0,0.0,0.0,0.0,0.0,0.0,0.0,0.0,0.0,0.0,0.0,0.0,0.0,0.0,0.0,0.0,0.0,0.0,0.0,0.0,0.0,0.0,0.0,0.0,0.0,0.0,0.0,0.0,0.0,0.0,0.0,0.0,0.0,0.0,0.0,0.0,0.0,0.0,0.0,0.0,0.0,0.0,0.0,0.0,0.0,0.0,0.0,0.0,0.0,0.0,0.0,0.0,0.0,0.0,0.0,0.0,0.0,0.0,0.0,0.0,0.0,0.0,0.0,0.0,0.0,0.0,0.0,0.0,0.5122,0.5793,0.5822,0.5142,0.4887,0.4619,0.0,0.0,0.0,0.0,0.0,0.0,0.0,0.0,0.0,0.0,0.0,0.0,0.0,0.0,0.0,0.0,0.0,0.0,0.0,0.0,0.0,0.0,0.0,0.0,0.0,0.0,0.0,0.0,0.0,0.0,0.0,0.0,0.0,0.0,0.0,0.0,0.0,0.0,0.0,0.0,0.0,0.0,0.0,0.0,0.0,0.0,0.0,0.0,0.0,0.0,0.0,0.0,0.0,0.0,0.0,0.0,0.0,0.0,0.0,0.0,0.0,0.0,0.0,0.0,0.0,0.0,0.0,0.0,0.0,0.0,0.0,0.0,0.0,0.0,0.0,0.0,0.0,0.0,0.0,0.0,0.0,0.0,0.0,0.0,0.0,0.0,0.0,0.0,0.0,0.0,0.0,0.0,0.0,0.0,0.0,0.0,0.0,0.0,0.0,0.0,0.0,0.0,0.0,0.0,0.0,0.0,0.0,0.0,0.0,0.8115,0.8317,0.7948,0.6971,0.7136,0.6661,0.5514,0.0,0.0,0.0,0.0,0.0,0.0,0.0,0.0,0.0,0.0,0.0,0.0,0.0,0.0,0.0,0.0,0.0,0.0,0.0,0.0,0.0,0.0,0.0,0.0,0.0,0.0,0.0,0.0,0.0,0.0,0.0,0.0,0.0,0.0,0.0,0.0,0.0,0.0,0.0,0.0,0.0,0.0,0.0,0.0,0.0,0.0,0.0,0.0,0.0,0.0,0.0,0.0,0.0,0.0,0.0,0.0,0.0,0.0,0.0,0.0,0.0,0.0,0.0,0.0,0.0,0.0,0.0,0.0,0.0,0.0,0.0,0.0,0.0,0.0,0.0,0.0,0.0,0.0,0.0,0.0,0.0,0.0,0.0,0.0,0.0,0.0,0.0,0.0,0.0,0.0,0.0,0.0,0.0,0.0,0.0,0.0,0.0,0.0,0.0,0.0,0.0,0.0,0.0,0.0,0.0,0.0,0.0,0.0,1.0994,1.0645,0.9946,0.8726,0.9646,0.9148,0.0,0.0,0.0,0.0,0.0,0.0,0.0,0.0,0.0,0.0,0.0,0.0,0.0,0.0,0.0,0.0,0.0,0.0,0.0,0.0,0.0,0.0,0.0,0.0,0.0,0.0,0.0,0.0,0.0,0.0,0.0,0.0,0.0,0.0,0.0,0.0,0.0,0.0,0.0,0.0,0.0,0.0,0.0,0.0,0.0,0.0,0.0,0.0,0.0,0.0,0.0,0.0,0.0,0.0,0.0,0.0,0.0,0.0,0.0,0.0,0.0,0.0,0.0,0.0,0.0,0.0,0.0,0.0,0.0,0.0,0.0,0.0,0.0,0.0,0.0,0.0,0.0,0.0,0.0,0.0,0.0,0.0,0.0,0.0,0.0,0.0,0.0,0.0,0.0,0.0,0.0,0.0,0.0,0.0,0.0,0.0,0.0,0.0,0.0,0.0,0.0,0.0,0.0,0.0,0.0,0.0,0.0,0.0,0.0,1.231,1.6325,1.6942,1.3718,1.2804,1.1256,0.0,0.0,0.0,0.0,0.0,0.0,0.0,0.0,0.0,0.0,0.0,0.0,0.0,0.0,0.0,0.0,0.0,0.0,0.0,0.0,0.0,0.0,0.0,0.0,0.0,0.0,0.0,0.0,0.0,0.0,0.0,0.0,0.0,0.0,0.0,0.0,0.0,0.0,0.0,0.0,0.0,0.0,0.0,0.0,0.0,0.0,0.0,0.0,0.0,0.0,0.0,0.0,0.0,0.0,0.0,0.0,0.0,0.0,0.0,0.0,0.0,0.0,0.0,0.0,0.0,0.0,0.0,0.0,0.0,0.0,0.0,0.0,0.0,0.0,0.0,0.0,0.0,0.0,0.0,0.0,0.0,0.0,0.0,0.0,0.0,0.0,0.0,0.0,0.0,0.0,0.0,0.0,0.0,0.0,0.0,0.0,0.0,0.0,0.0,0.0,0.0,0.0,0.0,0.0,0.0,0.0,0.0,0.0,1.2788,1.5083,2.0154,2.1988,2.0253,1.7269,1.4289,0.0,0.0,0.0,0.0,0.0,0.0,0.0,0.0,0.0,0.0,0.0,0.0,0.0,0.0,0.0,0.0,0.0,0.0,0.0,0.0,0.0,0.0,0.0,0.0,0.0,0.0,0.0,0.0,0.0,0.0,0.0,0.0,0.0,0.0,0.0,0.0,0.0,0.0,0.0,0.0,0.0,0.0,0.0,0.0,0.0,0.0,0.0,0.0,0.0,0.0,0.0,0.0,0.0,0.0,0.0,0.0,0.0,0.0,0.0,0.0,0.0,0.0,0.0,0.0,0.0,0.0,0.0,0.0,0.0,0.0,0.0,0.0,0.0,0.0,0.0,0.0,0.0,0.0,0.0,0.0,0.0,0.0,0.0,0.0,0.0,0.0,0.0,0.0,0.0,0.0,0.0,0.0,0.0,0.0,0.0,0.0,0.0,0.0,0.0,0.0,0.0,0.0,0.0,0.0,0.0,0.0,0.0,0.0,1.4792,1.8621,2.2684,2.5436,2.6647,2.1914,1.7621,0.0,0.0,0.0,0.0,0.0,0.0,0.0,0.0,0.0,0.0,0.0,0.0,0.0,0.0,0.0,0.0,0.0,0.0,0.0,0.0,0.0,0.0,0.0,0.0,0.0,0.0,0.0,0.0,0.0,0.0,0.0,0.0,0.0,0.0,0.0,0.0,0.0,0.0,0.0,0.0,0.0,0.0,0.0,0.0,0.0,0.0,0.0,0.0,0.0,0.0,0.0,0.0,0.0,0.0,0.0,0.0,0.0,0.0,0.0,0.0,0.0,0.0,0.0,0.0,0.0,0.0,0.0,0.0,0.0,0.0,0.0,0.0,0.0,0.0,0.0,0.0,0.0,0.0,0.0,0.0,0.0,0.0,0.0,0.0,0.0,0.0,0.0,0.0,0.0,0.0,0.0,0.0,0.0,0.0,0.0,0.0,0.0,0.0,0.0,0.0,0.0,0.0,0.0,0.0,0.0,0.0,0.0,0.0,1.6817,2.0616,2.4558,2.7057,2.7917,2.2913,1.9237,0.0,0.0,0.0,0.0,0.0,0.0,0.0,0.0,0.0,0.0,0.0,0.0,0.0,0.0,0.0,0.0,0.0,0.0,0.0,0.0,0.0,0.0,0.0,0.0,0.0,0.0,0.0,0.0,0.0,0.0,0.0,0.0,0.0,0.0,0.0,0.0,0.0,0.0,0.0,0.0,0.0,0.0,0.0,0.0,0.0,0.0,0.0,0.0,1.0525,0.0,0.0,0.0,0.0,0.0,0.0,0.0,0.0,0.0,0.0,0.0,0.0,0.0,0.0,0.0,0.0,0.0,0.0,0.0,0.0,0.0,0.0,0.0,0.0,0.0,0.0,0.0,0.0,0.0,0.0,0.0,0.0,0.0,0.0,0.0,0.0,0.0,0.0,0.0,0.0,0.0,0.0,0.0,0.0,0.0,0.0,0.0,0.0,0.0,0.0,0.0,0.0,0.0,0.0,0.0,0.0,0.0,0.0,0.0,1.8331,2.3062,2.6396,2.8552,2.9306,2.5409,2.2061,0.0,0.0,0.0,0.0,0.0,0.0,0.0,0.0,0.0,0.0,0.0,0.0,0.0,0.0,0.0,0.0,0.0,0.0,0.0,0.0,0.0,0.0,0.0,0.0,0.0,0.0,0.0,0.0,0.0,0.0,0.0,0.0,0.0,0.0,0.0,0.0,0.0,0.0,0.0,0.0,0.0,0.0,0.0,0.0,0.0,0.0,0.0,0.0,0.0,0.0,0.0,0.0,0.0,0.0,0.0,0.0,0.0,0.0,0.0,0.0,0.0,0.0,0.0,0.0,0.0,0.0,0.0,0.0,0.0,0.0,0.0,0.0,0.0,0.0,0.0,0.0,0.0,0.0,0.0,0.0,0.0,0.0,0.0,0.0,0.0,0.0,0.0,0.0,0.0,0.0,0.0,0.0,0.0,0.0,0.0,0.0,0.0,0.0,0.0,0.0,0.0,0.0,0.0,0.0,0.0,0.0,0.0,1.5937,1.9853,2.5444,2.7972,2.9749,3.0809,2.7976,2.4934,2.1886,0.0,0.0,0.0,0.0,0.0,0.0,0.0,0.0,0.0,0.0,0.0,0.0,0.0,0.0,0.0,0.0,0.0,0.0,0.0,0.0,0.0,0.0,0.0,0.0,0.0,0.0,0.0,0.0,0.0,0.0,0.0,0.0,0.0,0.0,0.0,0.0,0.0,0.0,0.7412,1.0095,0.0,0.0,0.0,0.0,0.0,0.0,0.0,0.0,1.1835,0.0,0.0,0.0,0.0,0.0,0.0,0.0,0.0,0.0,0.0,0.0,0.0,0.0,0.0,0.0,0.0,0.0,0.0,0.0,0.0,0.0,0.0,0.0,0.0,0.0,0.0,0.0,0.0,0.0,0.0,0.0,0.0,0.0,0.0,0.0,0.0,0.0,0.0,0.0,0.0,0.0,0.0,0.0,0.0,0.0,0.0,0.0,0.0,0.0,0.0,0.0,0.0,0.0,0.0,0.0,0.0,1.5816,1.8278,2.2049,2.7163,2.8801,3.0018,3.0796,2.8501,2.6184,2.39,0.0,0.0,0.0,0.0,0.0,0.0,0.0,0.0,0.0,0.0,0.0,0.0,0.0,0.0,0.0,0.0,0.0,0.0,0.0,0.0,0.0,0.0,0.0,0.0,0.0,0.0,0.0,0.0,0.0,0.0,0.0,0.0,0.0,0.0,0.0,0.0,0.0,0.0,0.0,1.2931,1.4425,0.0,0.0,0.0,0.0,0.0,0.0,0.0,0.0,1.2648,0.0,0.0,0.0,0.0,0.0,0.0,0.0,0.0,0.0,0.0,0.0,0.0,0.0,0.0,0.0,0.0,0.0,0.0,0.0,0.0,0.0,0.0,0.0,0.0,0.0,0.0,0.0,0.0,0.0,0.0,0.0,0.0,0.0,0.0,0.0,0.0,0.0,0.0,0.0,0.0,0.0,0.0,0.0,0.0,0.0,0.0,0.0,0.0,0.0,0.0,0.0,0.0,0.0,0.0,0.0,1.6902,1.9608,2.3475,2.8535,2.9764,3.0707,3.1427,2.8638,2.615,0.0,0.0,0.0,0.0,0.0,0.0,0.0,0.0,0.0,0.0,0.0,0.0,0.0,0.0,0.0,0.0,0.0,0.0,0.0,0.0,0.0,0.0,0.0,0.0,0.0,0.0,0.0,0.0,0.0,0.0,0.0,0.0,0.0,0.0,0.0,0.0,0.0,0.0,0.0,0.0,1.3655,1.5159,1.4508,0.0,0.0,0.0,0.0,0.0,0.0,1.4673,1.451,0.0,0.0,0.0,0.0,0.0,0.0,0.0,0.0,0.0,0.0,0.0,0.0,0.0,0.0,0.0,0.0,0.0,0.0,0.0,0.0,0.0,0.0,0.0,0.0,0.0,0.0,0.0,0.0,0.0,0.0,0.0,0.0,0.0,0.0,0.0,0.0,0.0,0.0,0.0,0.0,0.0,0.0,0.0,0.0,0.0,0.0,0.0,0.0,0.0,0.0,0.0,0.0,0.0,0.0,0.0,1.7777,2.0907,2.4815,2.9486,3.0629,3.1386,3.1834,2.8745,2.5935,0.0,0.0,0.0,0.0,0.0,0.0,0.0,0.0,0.0,0.0,0.0,0.0,0.0,0.0,0.0,0.0,0.0,0.0,0.0,0.0,0.0,0.0,0.0,0.0,0.0,0.0,0.0,0.0,0.0,0.0,0.0,0.0,0.0,0.0,0.0,0.0,0.0,0.0,0.0,0.0,0.0,1.5577,1.5403,1.5767,0.0,0.0,0.0,0.0,1.525,1.6504,0.0,0.0,0.0,0.0,0.0,0.0,0.0,0.0,0.0,0.0,0.0,0.0,0.0,0.0,0.0,0.0,0.0,0.0,0.0,0.0,0.0,0.0,0.0,0.0,0.0,0.0,0.0,0.0,0.0,0.0,0.0,0.0,0.0,0.0,0.0,0.0,0.0,0.0,0.0,0.0,0.0,0.0,0.0,0.0,0.0,0.0,0.0,0.0,0.0,0.0,0.0,0.0,0.0,0.0,0.0,0.0,1.8411,2.2781,2.6563,2.9585,3.1193,3.1744,3.1292,2.9008,2.6367,0.0,0.0,0.0,0.0,0.0,0.0,0.0,0.0,0.0,0.0,0.0,0.0,0.0,0.0,0.0,0.0,0.0,0.0,0.0,0.0,0.0,0.0,0.0,0.0,0.0,0.0,0.0,0.0,0.0,0.0,0.0,0.0,0.0,0.0,0.0,0.0,0.0,0.0,0.0,0.0,0.0,1.641,1.6258,1.6594,1.6481,0.0,0.0,1.837,1.7753,2.0183,0.0,0.0,0.0,0.0,0.0,0.0,0.0,0.0,0.0,0.0,0.0,0.0,0.0,0.0,0.0,0.0,0.0,0.0,0.0,0.0,0.0,0.0,0.0,0.0,0.0,0.0,0.0,0.0,0.0,0.0,0.0,0.0,0.0,0.0,0.0,0.0,0.0,0.0,0.0,0.0,0.0,0.0,0.0,0.0,0.0,0.0,0.0,0.0,0.0,0.0,0.0,0.0,0.0,0.0,0.0,1.6037,1.8846,2.3884,2.7767,3.0287,3.1507,3.2031,3.1886,2.8339,2.5419,0.0,0.0,0.0,0.0,0.0,0.0,0.0,0.0,0.0,0.0,0.0,0.0,0.0,0.0,0.0,0.0,0.0,0.0,0.0,0.0,0.0,0.0,0.0,0.0,0.0,0.0,0.0,0.0,0.0,0.0,0.0,0.0,0.0,0.0,0.0,0.0,0.0,0.0,0.0,0.0,0.0,0.0,1.674,1.7829,0.0,0.0,0.0,2.021,1.937,0.0,0.0,0.0,0.0,0.0,0.0,0.0,0.0,0.0,0.0,0.0,0.0,0.0,0.0,0.0,0.0,0.0,0.0,0.0,0.0,0.0,0.0,0.0,0.0,0.0,0.0,0.0,0.0,0.0,0.0,0.0,0.0,0.0,0.0,0.0,0.0,0.0,0.0,0.0,0.0,0.0,0.0,0.0,0.0,0.0,0.0,0.0,0.0,0.0,0.0,0.0,0.0,0.0,0.0,0.0,0.0,0.0,1.9525,2.4843,2.8766,3.1123,3.1987,3.2322,3.2109,2.8287,0.0,0.0,0.0,0.0,0.0,0.0,0.0,0.0,0.0,0.0,0.0,0.0,0.0,0.0,0.0,0.0,0.0,0.0,0.0,0.0,0.0,0.0,0.0,0.0,0.0,0.0,0.0,0.5451,0.0,0.0,0.0,0.0,0.0,0.0,0.0,0.0,0.0,0.0,0.0,0.0,0.0,0.0,1.7381,1.7245,1.9118,2.0514,0.0,0.0,2.2194,2.1217,2.3628,2.4316,0.0,0.0,0.0,0.0,0.0,0.0,0.0,0.0,0.0,0.0,0.0,0.0,0.0,0.0,0.0,0.0,0.0,0.0,0.0,0.0,0.0,0.0,0.0,0.0,0.0,0.0,0.0,0.0,0.0,0.0,0.0,0.0,0.0,0.0,0.0,0.0,0.0,0.0,0.0,0.0,0.0,0.0,0.0,0.0,0.0,0.0,0.0,0.0,0.0,0.0,0.0,0.0,0.0,0.0,0.0,2.0902,2.5855,2.9578,3.1933,3.2802,3.2703,3.1558,2.9681,2.7444,0.0,0.0,0.0,0.0,0.0,0.0,0.0,0.0,0.0,0.0,0.0,0.0,0.0,0.0,0.0,0.0,0.0,0.0,0.0,0.0,0.0,0.0,0.0,0.0,0.0,0.0,0.0,0.0,0.0,0.0,0.0,0.0,0.0,0.0,0.0,0.0,0.0,0.0,0.0,0.0,0.0,1.8416,1.7902,2.0413,2.2428,0.0,0.0,2.4587,2.3759,2.7586,2.8539,2.2198,0.0,0.0,0.0,0.0,0.0,0.0,0.0,0.0,0.0,0.0,0.0,0.0,0.0,0.0,0.0,0.0,0.0,0.0,0.0,0.0,0.0,0.0,0.0,0.0,0.0,0.0,0.0,0.0,0.0,0.0,0.0,0.0,0.0,0.0,0.0,0.0,0.0,0.0,0.0,0.0,0.0,0.0,0.0,0.0,0.0,0.0,0.0,0.0,0.0,0.0,0.0,0.0,0.0,1.9088,2.1332,2.6824,3.0467,3.2033,3.2887,3.2727,3.1521,2.9536,2.7367,0.0,0.0,0.0,0.0,0.0,0.0,0.0,0.0,0.0,0.0,0.0,0.0,0.0,0.0,0.0,0.0,0.0,0.0,0.0,0.0,0.0,0.0,0.0,0.0,0.0,0.0,0.0,0.0,0.8891,0.9443,0.997,0.0,0.0,0.0,0.0,0.0,0.0,0.0,0.0,0.0,0.0,2.0359,2.0839,2.2715,0.0,0.0,2.5007,2.5194,2.4235,2.6002,2.6163,2.2185,2.1383,0.0,0.0,0.0,0.0,0.0,0.0,0.0,0.0,0.0,0.0,0.0,0.0,0.0,0.0,0.0,0.0,0.0,0.0,0.0,0.0,0.0,0.0,0.0,0.0,0.0,0.0,0.0,0.0,0.0,0.0,0.0,0.0,0.0,0.0,0.0,0.0,0.0,0.0,0.0,0.0,0.0,0.0,0.0,0.0,0.0,0.0,0.0,0.0,0.0,0.0,0.0,0.0,2.0341,2.2238,2.7631,3.1067,3.2425,3.2993,3.2727,3.1505,2.9626,2.7723,0.0,0.0,0.0,0.0,0.0,0.0,0.0,0.0,0.0,0.0,0.0,0.0,0.0,0.0,0.0,0.0,0.0,0.0,0.0,0.0,0.0,0.0,0.0,0.0,0.0,0.0,0.0,0.0,0.997,1.0237,0.9888,0.0,0.0,0.0,0.0,0.0,0.0,0.0,0.0,0.0,0.0,2.1775,2.2241,2.3553,2.4621,2.4878,2.4926,2.4854,2.4678,2.4925,2.446,2.2526,0.0,0.0,0.0,0.0,0.0,0.0,0.0,0.0,0.0,0.0,0.0,0.0,0.0,0.0,0.0,0.0,0.0,0.0,0.0,0.0,0.0,0.0,0.0,0.0,0.0,0.0,0.0,0.0,0.0,0.0,0.0,0.0,0.0,0.0,0.0,0.0,0.0,0.0,0.0,0.0,0.0,0.0,0.0,0.0,0.0,0.0,0.0,0.0,0.0,0.0,0.0,0.0,0.0,2.1052,2.3943,2.8223,3.1345,3.319,3.3285,3.2727,3.155,3.0253,2.8915,2.753,0.0,0.0,0.0,0.0,0.0,0.0,0.0,0.0,0.0,0.0,0.0,0.0,0.0,0.0,0.0,0.0,0.0,0.0,0.0,0.0,0.0,0.0,0.0,0.0,0.0,0.0,0.7585,0.9126,1.0184,0.0,0.0,0.0,0.0,0.0,0.0,0.0,0.0,0.0,0.0,2.0736,2.237,2.1348,2.2487,2.379,2.4453,2.3709,2.3624,2.5335,2.5233,2.4638,0.0,0.0,0.0,0.0,0.0,0.0,0.0,0.0,0.0,0.0,0.0,0.0,0.0,0.0,0.0,0.0,0.0,0.0,0.0,0.0,0.0,0.0,0.0,0.0,0.0,0.0,0.0,1.2538,1.2241,0.0,0.0,0.0,0.0,0.0,0.0,0.0,0.0,0.0,0.0,0.0,2.1045,2.2283,0.0,0.0,0.0,0.0,0.0,0.0,0.0,0.0,0.0,0.0,0.0,0.0,2.2467,2.4616,2.8889,3.1841,3.3243,3.3294,3.2915,3.2117,3.0859,2.9182,2.7047,0.0,0.0,0.0,0.0,0.0,0.0,0.0,0.0,0.0,0.0,0.0,0.0,0.0,0.0,0.0,0.0,0.0,0.0,0.0,0.0,0.0,0.0,0.0,0.0,0.0,1.1181,0.0,0.0,0.0,0.0,0.0,0.0,0.0,0.0,0.0,0.0,0.0,1.7846,1.9146,2.1449,2.2915,2.2658,2.3944,2.5093,0.0,0.0,0.0,0.0,0.0,0.0,0.0,0.0,0.0,0.0,0.0,0.0,0.0,0.0,2.033,2.001,2.0021,2.0125,2.0238,0.0,0.0,0.0,0.0,0.0,0.0,0.0,0.0,0.0,0.0,0.0,0.0,0.0,0.0,0.0,0.0,1.4628,0.0,0.0,0.0,0.0,0.0,0.0,0.0,0.0,2.0798,2.333,2.4951,2.6289,2.7216,0.0,2.619,2.4029,0.0,0.0,0.0,0.0,0.0,0.0,0.0,0.0,2.3705,2.5296,2.9558,3.2291,3.3238,3.3294,3.3013,3.2412,3.0957,2.9202,2.7138,2.5731,2.5216,0.0,0.0,0.0,0.0,0.0,0.0,0.0,0.0,0.0,0.0,0.0,0.0,0.0,0.0,0.0,0.0,0.0,0.0,0.0,0.0,0.0,0.0,0.0,1.2864,0.0,0.0,0.0,0.0,0.0,0.0,0.0,0.0,0.0,1.6221,1.7989,1.9789,2.1146,2.2788,2.366,2.3099,0.0,0.0,0.0,0.0,0.0,0.0,0.0,2.3362,2.3426,2.3826,2.4716,2.6479,2.6604,2.6463,2.6401,0.0,0.0,2.3574,2.3435,2.3631,2.3667,2.3356,2.3308,2.3892,2.3684,2.3601,0.0,0.0,0.0,0.0,0.0,0.0,0.0,0.0,1.6436,1.6667,0.0,1.6508,0.0,0.0,0.0,0.0,0.0,0.0,0.0,0.0,2.479,2.6809,2.8143,2.84,2.8658,2.9019,2.9039,2.861,2.7523,2.2048,0.0,0.0,0.0,0.0,0.0,0.0,2.4802,2.6097,3.0225,3.2693,3.328,3.3294,3.3013,3.239,3.0648,2.9139,2.7923,2.7696,2.7598,2.758,2.5712,0.0,0.0,0.0,0.0,0.0,0.0,0.0,0.0,0.0,0.0,0.0,0.0,0.0,0.0,0.0,0.0,0.0,0.0,0.0,0.0,1.3062,0.0,0.0,0.0,0.0,0.0,0.0,0.0,0.0,0.0,0.0,1.9398,2.002,2.126,2.3361,0.0,0.0,0.0,0.0,2.4237,2.2925,2.2999,2.351,2.4116,2.4898,2.6057,2.7862,0.0,0.0,3.0604,2.915,2.7969,2.7788,2.8866,2.8697,2.5597,2.5199,2.5302,2.57,2.6261,2.6625,2.6676,2.6578,2.6341,2.8607,0.0,0.0,0.0,0.0,2.2746,2.3031,2.2417,2.3908,2.4358,2.4004,2.3462,0.0,0.0,0.0,0.0,0.0,0.0,2.3141,2.4727,2.7704,2.9672,3.0688,3.1296,3.1656,3.1738,3.1206,3.0588,2.9829,2.7215,2.4853,2.2822,0.0,0.0,0.0,0.0,2.7237,2.8092,3.0907,3.2699,3.3294,3.3294,3.3013,3.2418,3.1463,3.0361,2.9139,2.8639,2.8204,2.7808,2.6321,0.0,0.0,0.0,0.0,0.0,0.0,0.0,0.0,0.0,0.0,0.0,0.0,0.0,0.0,0.0,0.0,0.0,0.0,0.0,1.6187,1.732,1.7377,0.0,0.0,0.0,0.0,0.0,0.0,0.0,0.0,0.0,2.2414,2.1953,2.169,0.0,0.0,2.3023,2.189,2.3632,2.5132,2.5321,0.0,0.0,0.0,2.7895,2.8345,2.89,3.0506,3.1548,3.1007,3.1647,3.2365,3.267,3.2416,3.1928,3.1433,3.0346,2.9665,2.9764,2.9942,3.0224,3.0588,3.0628,3.0569,3.2909,2.8983,2.826,2.692,2.5459,2.7046,2.7357,2.676,2.7824,2.8136,2.7859,2.7118,2.6162,2.5057,2.3792,0.0,0.0,0.0,2.6352,2.8503,3.0401,3.2034,3.3317,3.3865,3.3965,3.3648,3.3166,3.2448,3.1553,3.0482,2.8992,2.7064,0.0,0.0,2.4179,2.7218,2.8948,2.937,3.1727,3.3116,3.3294,3.3294,3.3013,3.2404,3.2047,3.1463,3.0655,2.9845,2.9367,2.9233,2.7811,2.6822,0.0,0.0,0.0,0.0,0.0,0.0,0.0,0.0,0.0,0.0,0.0,1.566,1.5209,0.0,0.0,0.0,1.8282,1.9032,1.9538,1.9719,0.0,0.0,0.0,0.0,0.0,0.0,0.0,1.9628,2.2297,2.4267,2.4136,2.3579,2.3035,2.2721,2.3705,2.4144,2.3293,0.0,2.6924,2.754,2.8129,2.8789,2.955,3.0397,3.1208,3.1925,3.2925,3.3492,3.3041,3.3783,3.4512,3.4724,3.435,3.3978,3.4316,3.352,3.2683,3.2299,3.2768,3.3304,3.3468,3.3848,3.4198,3.6928,3.5952,3.3383,3.1623,3.0539,3.0623,3.0435,3.0002,2.9506,2.938,2.9428,2.8607,2.8408,2.8644,2.714,0.0,0.0,2.7576,2.9315,3.2829,3.2902,3.3949,3.5774,3.5946,3.5626,3.4924,3.4889,3.4207,3.2965,3.2416,3.1801,3.101,2.8724,2.7127,2.639,2.8865,3.0201,3.0244,3.2619,3.3683,3.3361,3.3352,3.3105,3.2633,3.2542,3.2418,3.2269,3.122,3.0816,3.1145,2.9787,2.9219,2.957,0.0,0.0,0.0,0.0,0.0,0.0,0.0,0.0,0.0,0.0,0.0,0.0,0.0,0.0,0.0,2.0599,0.0,2.2785,2.112,0.0,0.0,0.0,2.0619,2.1588,2.3157,2.3704,2.2578,0.0,0.0,2.5157,0.0,2.5193,2.5691,2.6494,2.6752,2.5967,2.7676,2.9208,2.9416,2.9885,3.0405,3.1148,3.2544,3.4104,3.551,3.5959,3.5653,3.5567,3.5249,3.4991,3.5073,3.4999,3.4985,3.5008,3.499,3.4682,3.3616,3.4673,3.5691,3.5444,3.6088,3.6736,4.0294,3.9283,3.8125,3.6226,3.4083,3.5142,3.4851,3.3696,3.4139,3.3839,3.2973,3.2758,3.1965,3.0767,3.0365,3.0364,3.072,3.1891,3.3015,3.4071,3.4695,3.5336,3.5937,3.6131,3.613,3.5941,3.5626,3.5312,3.4964,3.461,3.3768,3.2559,3.2485,3.156,2.9806,3.1107,3.1904,3.2066,3.2976,3.3544,3.3735,3.3744,3.3934,3.4289,3.3674,3.3256,3.3108,3.227,3.1414,3.0591,3.0597,3.0593,3.0488,2.8476,0.0,0.0,0.0,0.0,0.0,0.0,0.0,0.0,0.0,1.7805,1.7805,0.0,2.0989,0.0,2.3937,2.5361,2.5219,2.5008,0.0,0.0,2.3332,2.3381,2.409,2.5965,2.6514,2.4691,2.7,2.8308,2.7208,2.7971,2.867,2.872,2.7529,2.6765,2.7125,2.8939,3.0459,3.0996,3.2344,3.3555,3.3827,3.4823,3.5724,3.633,3.6338,3.6297,3.6289,3.5863,3.5639,3.599,3.5776,3.5696,3.6022,3.614,3.5865,3.5288,3.556,3.6175,3.6963,3.7399,3.7588,4.2431,4.1587,4.1227,3.9912,3.8104,3.8045,3.7555,3.6821,3.6595,3.615,3.5545,3.4922,3.393,3.2755,3.2997,3.3021,3.2944,3.419,3.5069,3.5635,3.6392,3.6971,3.7421,3.7552,3.7593,3.7569,3.6701,3.6282,3.6249,3.5745,3.5038,3.4261,3.4695,3.447,3.3602,3.3316,3.3302,3.3496,3.3922,3.4398,3.4843,3.4795,3.454,3.4107,3.3638,3.3246,3.2952,3.1445,3.0553,3.0427,2.9619,2.9093,2.8919,2.8013,2.6938,0.0,0.0,0.0,0.0,0.0,0.0,0.0,0.0,0.0,0.0,0.0,2.3969,2.4542,2.6484,2.7386,2.6612,2.6731,2.6722,2.6352,2.6325,2.6572,2.72,2.8517,2.8762,2.7219,2.879,2.9785,2.9121,2.9517,3.0086,3.0589,2.9494,2.8863,2.9558,3.0829,3.1979,3.2916,3.3988,3.4925,3.5382,3.5887,3.6267,3.6461,3.65,3.6499,3.6492,3.6273,3.6148,3.6398,3.6258,3.6132,3.6445,3.6499,3.639,3.6216,3.6353,3.6874,3.7609,3.817,3.8623,4.3751,4.3203,4.3022,4.2559,4.1783,3.9994,3.9273,3.9288,3.8,3.7478,3.7463,3.6146,3.5218,3.4726,3.5283,3.5277,3.4876,3.5579,3.638,3.7239,3.779,3.8462,3.918,3.9194,3.9194,3.9141,3.7937,3.7358,3.7339,3.6617,3.6181,3.602,3.6033,3.6342,3.6849,3.5407,3.4665,3.4785,3.5209,3.5703,3.6197,3.5868,3.4943,3.3496,3.3229,3.2957,3.2545,3.0325,2.9588,3.058,2.8559,2.7339,2.7304,2.737,2.6815,0.0,2.5098,0.0,0.0,0.0,0.0,0.0,0.0,0.0,0.0,2.5643,2.6854,2.7481,2.8499,2.8765,2.7914,2.7862,2.8349,2.9447,2.9578,2.9825,3.0381,3.0833,3.0722,2.976,3.008,3.0548,3.0775,3.0577,3.0939,3.1818,3.186,3.1889,3.2452,3.2811,3.3458,3.4803,3.5072,3.5417,3.5877,3.6127,3.6259,3.6368,3.6446,3.6499,3.6499,3.6492,3.6492,3.6499,3.6484,3.6484,3.6499,3.6499,3.6499,3.6484,3.6775,3.7168,3.7643,3.8478,3.9551,4.4548,4.4209,4.3174,4.2844,4.2872,4.1514,4.0659,4.024,3.9967,3.9467,3.8766,3.7808,3.7316,3.7208,3.733,3.7074,3.6582,3.7742,3.8266,3.8307,3.8373,3.8687,3.917,3.9194,3.9194,3.9199,3.9241,3.9273,3.9263,3.8947,3.8228,3.712,3.7211,3.7225,3.7133,0.0,0.0,0.0,3.6555,3.6809,3.6856,3.5637,3.4998,3.4998,3.3879,0.0,3.3491,3.2391,3.1639,3.1419,3.1392,0.0,0.0,0.0,0.0,0.0,0.0,0.0,0.0,0.0,0.0,0.0,2.8187,2.7249,2.6134,2.7284,2.8454,2.9311,3.0263,3.0928,3.115,3.1467,3.1791,3.2143,3.2166,3.223,3.2373,3.2802,3.2726,3.172,3.265,3.2988,3.2068,3.3019,3.366,3.3257,3.379,3.4411,3.4866,3.4307,3.431,3.5318,3.5855,3.6004,3.5676,3.6099,3.626,3.5914,3.6161,3.6469,3.6499,3.6499,3.6499,3.6499,3.6499,3.6499,3.6499,3.6499,3.6484,3.6499,3.6176,3.6207,3.7319,3.8142,3.8884,4.5128,0.0,4.4048,4.3723,0.0,4.2606,4.2026,4.1684,4.0863,4.0069,3.9321,3.8883,3.8677,3.8677,3.8677,3.8397,3.7974,3.8605,3.8716,3.8414,3.8702,3.9126,3.9629,3.9639,3.9978,4.0587,4.0159,4.0124,4.0413,3.9995,3.9416,3.8749,3.9232,3.959,3.9832,4.032,3.9792,3.8248,3.8394,3.8414,3.8267,3.7513,3.6623,3.5628,0.0,0.0,0.0,0.0,0.0,0.0,0.0,0.0,0.0,0.0,0.0,2.9525,2.8953,2.8998,2.9825,2.9676,3.0131,3.1442,3.1331,3.0568,2.9129,2.998,3.0849,3.1507,3.225,3.2795,3.3068,3.3497,3.3731,3.3622,3.3581,3.3531,3.3385,3.3715,3.3688,3.3121,3.3721,3.399,3.3292,3.3931,3.4495,3.4259,3.4585,3.5113,3.5543,3.5244,3.5219,3.5958,3.6297,3.6368,3.6099,3.623,3.6399,3.6115,3.6276,3.6469,3.6499,3.6499,3.6499,3.6499,3.6499,3.6499,3.6499,3.6499,3.6399,3.6076,3.5737,3.5691,3.6461,3.73,3.8315,4.5572,4.5064,4.4959,4.4676,4.4269,4.3521,4.3108,4.2898,0.0,0.0,0.0,3.9851,3.9835,3.983,3.982,3.9602,3.921,3.9287,3.9082,3.8673,3.9233,3.9774,4.0253,4.0273,4.0844,4.1856,4.1062,4.0942,4.1463,4.1062,4.0813,4.0768,4.1417,4.2079,4.2733,4.3504,4.2871,4.0847,4.0352,4.0031,3.9798,3.9412,3.8192,3.6081,3.5803,3.5248,3.4333,3.2932,3.2481,3.3081,3.1677,3.0607,3.0135,3.0496,3.0557,3.0219,3.0617,3.1318,3.2213,3.2295,3.2617,3.3383,3.3443,3.3008,3.1973,3.2537,3.3085,3.342,3.3928,3.424,3.424,3.4618,3.481,3.4556,3.4547,3.4432,3.4266,3.4474,3.4566,3.4182,3.4468,3.4597,3.4405,3.4597,3.4716,3.496,3.5147,3.5317,3.572,3.5832,3.5942,3.6359,3.6484,3.6499,3.6484,3.6484,3.6499,3.6453,3.6469,3.6499,3.6499,3.6499,3.6499,3.6499,3.6499,3.6499,3.6499,3.6499,3.6253,3.5629,3.5383,3.5368,3.5568,3.6353,3.7546,4.5845,4.5717,4.5137,4.5191,4.5543,4.4367,4.354,4.2923,4.1963,4.1473,4.1387,4.1218,4.1124,4.1139,4.1135,4.0813,4.032,4.0815,4.0828,0.0,4.0529,4.0706,4.096,4.0945,4.1062,4.1311,4.2322,4.2912,4.3041,4.3576,4.3596,4.3089,4.3158,4.3322,4.3587,4.4276,4.4471,4.4072,4.2059,4.1003,4.0929,3.9039,3.7822,3.7328,3.623,3.5472,3.5145,3.4619,3.4399,3.4504,3.3997,3.3542,3.3194,3.3203,3.3337,3.3411,3.3087,3.316,3.3722,3.3793,3.3853,3.3968,3.3974,3.3722,3.3155,3.3578,3.3917,3.4008,3.4482,3.4793,3.4793,3.4884,3.5106,3.5439,3.5503,3.564,3.5951,3.6046,3.5903,3.5424,3.5856,3.5768,3.509,3.5576,3.585,3.5574,3.5786,3.6265,3.6297,3.6398,3.6406,3.6484,3.6499,3.6499,3.6499,3.6499,3.6499,3.6499,3.6499,3.6499,3.6499,3.6499,3.6499,3.6499,3.6499,3.6499,3.6499,3.6499,3.6238,3.5676,3.5206,3.4937,3.5452,3.586,3.6522,4.5903,4.5863,4.5561,4.5627,4.5834,4.489,4.4135,4.354,4.3118,4.2739,4.2399,4.2294,4.2454,4.2796,4.281,4.2475,4.187,4.2147,4.225,4.2216,4.2196,4.2703,4.3492,4.3201,4.3367,4.4063,4.3946,4.4339,4.5011,4.4717,4.4526,4.4567,4.4651,4.4942,4.5419,4.5373,4.533,4.5297,4.3514,4.2364,4.1941,4.0594,3.9464,3.8646,3.801,3.7485,3.6987,3.6484,3.6228,3.6213,3.5739,3.5286,3.4867,3.4834,3.4751,3.4535,3.4305,3.4286,3.4532,3.4526,3.4526,3.4535,3.4526,3.4448,3.4193,3.439,3.4518,3.4566,3.5031,3.5318,3.535,3.5584,3.5871,3.6101,3.6124,3.6219,3.6445,3.6499,3.6383,3.6187,3.6351,3.6312,3.5832,3.6187,3.6422,3.6086,3.6344,3.6499,3.6499,3.6499,3.6499,3.6499,3.6499,3.6499,3.6499,3.6499,3.6499,3.6499,3.6499,3.6499,3.6499,3.6499,3.6499,3.6499,3.6499,3.6499,3.6499,3.6499,3.6338,3.6138,3.5506,3.5368,3.586,3.6307,3.7054,4.6011,4.5903,4.5903,4.6001,4.6118,4.5486,4.5039,4.4812,4.4657,4.4381,4.4026,4.3696,4.3916,4.4552,4.4587,4.4282,4.3861,4.3817,4.3913,4.4097,4.4126,4.4773,4.5766,4.5306,4.5611,4.6423,4.5655,4.5813,4.6637,4.5938,4.5771,4.6246,4.6245,4.6532,4.7119,4.6407,4.6043,4.5969,4.482,4.3751,4.2869,4.218,4.124,4.0081,3.9808,3.9458,3.8888,3.8156,3.7751,3.7721,3.7023,3.6382,3.5855,3.5744,3.5503,3.5129,3.4973,3.4965,3.5064,3.4967,3.495,3.508,3.5065,3.5088,3.5082,3.5203,3.5188,3.5147,3.556,3.5894,3.5926,3.6226,3.6499,3.6499,3.6499,3.6476,3.6499,3.6499,3.6499,3.6499,3.6499,3.6499,3.6499,3.6499,3.6484,3.6476,3.6499,3.6499,3.6499,3.6499,3.6499,3.6499,3.6499,3.6499,3.6499,3.6499,3.6499,3.6499,3.6499,3.6499,3.6499,3.6499,3.6499,3.6499,3.6499,3.6499,3.6499,3.6499,3.6407,3.6184,3.5714,3.5637,3.6045,3.6677,3.74,4.6392,4.5935,4.5903,4.6362,4.6935,4.6363,4.6503,4.7084,4.6623,4.6689,4.6946,4.5724,4.5575,4.6297,4.6348,4.6297,4.6216,4.627,4.6269,4.6307,4.6301,4.6387,4.6631,4.6499,4.6487,4.6758,4.7197,4.7505,4.7836,4.826,4.8557,4.861,4.8078,4.7799,4.7823,4.7151,4.6796,4.6771,4.6026,4.4957,4.3654,4.2885,4.2149,4.141,4.0754,4.0374,4.0205,3.9355,3.8849,3.8764,3.7608,3.6716,3.6196,3.5887,3.5688,3.5623,3.5195,3.5105,3.5543,3.5164,3.5169,3.5575,3.5661,3.5646,3.5647,3.6061,3.6116,3.5824,3.6101,3.6367,3.6406,3.6476,3.6499,3.6499,3.6499,3.6499,3.6499,3.6499,3.6499,3.6499,3.6499,3.6499,3.6499,3.6499,3.6499,3.6499,3.6499,3.6499,3.6499,3.6499,3.6499,3.6499,3.6499,3.6499,3.6499,3.6499,3.6499,3.6499,3.6499,3.6499,3.6499,3.6499,3.6499,3.6499,3.6499,3.6499,3.6499,3.6484,3.6292,3.6007,3.573,3.5568,3.5668,3.6191,3.6876,4.6312,4.5906,4.5903,4.6395,4.7155,4.7439,4.7782,4.8091,4.785,4.818,4.8845,4.8295,4.7934,4.7721,4.7737,4.7721,4.7737,4.7721,4.803,4.8519,4.8543,4.8814,4.9238,4.885,4.8882,4.9213,4.8804,4.8959,4.966,4.9734,4.9432,4.9019,4.872,4.8591,4.8542,4.7904,4.7547,4.7524,4.6811,4.5962,4.499,4.4261,4.3168,4.1791,4.1719,4.1346,4.0506,3.9546,3.9006,3.8928,3.7724,3.6908,3.6693,3.6344,3.6156,3.6148,3.5974,3.5942,3.6148,3.633,3.6375,3.6209,3.6553,3.6606,3.6233,3.6375,3.6398,3.6258,3.6382,3.6499,3.6515,3.6499,3.6499,3.6499,3.6499,3.6499,3.6499,3.6499,3.6499,3.6499,3.6499,3.6499,3.6499,3.6499,3.6499,3.6499,3.6499,3.6499,3.6499,3.6499,3.6499,3.6499,3.6499,3.6499,3.6499,3.6499,3.6499,3.6499,3.6499,3.6499,3.6499,3.6499,3.6499,3.6499,3.6499,3.6499,3.6499,3.6499,3.6376,3.6068,3.6084,3.6091,3.6084,3.6299,3.663,4.6722,4.6335,4.6506,4.7118,4.7974,4.8605,4.9029,4.9226,4.9252,4.9638,5.0218,5.0247,4.9882,4.9313,4.9237,4.9242,4.9252,4.9226,4.9589,5.0208,5.0263,5.0599,5.11,5.0674,5.0674,5.095,5.0128,5.0154,5.1072,5.0691,5.0131,4.9636,4.94,4.9206,4.8954,4.8341,4.7896,4.7645,4.7144,4.6545,4.5856,4.5516,4.4447,4.2722,4.2787,4.2448,4.1428,4.0295,3.9716,3.9701,3.8511,3.7768,3.7692,3.7359,3.7133,3.7054,3.7046,3.7054,3.7061,3.7515,3.7569,3.7138,3.7369,3.7384,3.7076,3.6707,3.6699,3.7076,3.7047,3.7009,3.6515,3.6499,3.6499,3.6499,3.6499,3.6499,3.6499,3.6499,3.6499,3.6499,3.6499,3.6499,3.6499,3.6499,3.6499,3.6499,3.6499,3.6499,3.6499,3.6499,3.6499,3.6499,3.6499,3.6499,3.6499,3.6499,3.6499,3.6499,3.6499,3.6499,3.6499,3.6499,3.6499,3.6499,3.6499,3.6499,3.6499,3.6499,3.6499,3.6499,3.6484,3.6453,3.6407,3.6499,3.6499,4.8038,4.7297,4.8048,4.8826,4.9769,4.9809,5.0286,5.0886,5.0988,5.1073,5.1073,5.1082,5.1092,5.0978,5.0921,5.1044,5.1025,5.0959,5.0969,5.1063,5.1082,5.1155,5.1202,5.1153,5.1153,5.1186,5.1024,5.1015,5.1186,5.1153,5.1153,5.104,5.0374,4.9717,4.9125,4.8477,4.7702,4.7241,4.7063,4.6586,4.6002,4.6447,4.6035,4.4698,4.4026,4.3613,4.3314,4.2189,4.1452,4.1452,4.032,3.9631,3.9368,3.8991,3.8616,3.8403,3.8369,3.8385,3.833,3.8399,3.8392,3.8284,3.7892,3.7784,3.8099,3.7245,3.7138,3.8246,3.8286,3.787,3.6846,3.6669,3.6561,3.6499,3.6499,3.6499,3.6499,3.6499,3.6499,3.6499,3.6499,3.6499,3.6499,3.6499,3.6499,3.6499,3.6499,3.6499,3.6499,3.6499,3.6499,3.6499,3.6499,3.6499,3.6499,3.6499,3.6499,3.6499,3.6499,3.6499,3.6499,3.6499,3.6484,3.6499,3.6499,3.6499,3.6499,3.6499,3.6499,3.6499,3.6499,3.6499,3.6499,3.6499,3.6499,4.8615,4.7745,4.8594,4.9157,4.954,5.0344,5.0905,5.1202,5.1211,5.1211,5.1211,5.1211,5.1211,5.1211,5.1211,5.1211,5.1211,5.1211,5.1211,5.1211,5.1211,5.1211,5.1211,5.1211,5.1211,5.1211,5.1211,5.1211,5.1211,5.1211,5.1211,5.117,5.095,5.0649,5.0325,4.9701,4.8988,4.8276,4.7839,4.7241,4.6593,4.6764,4.6634,4.6164,4.5419,4.4625,4.3719,4.2748,4.2059,4.1612,4.0581,3.9852,3.9495,3.8964,3.8631,3.8531,3.8508,3.8508,3.8554,3.8907,3.8938,3.8561,3.8707,3.8638,3.8413,3.7826,3.7671,3.8361,3.8803,3.8534,3.7933,3.74,3.6984,3.66,3.6515,3.6546,3.6499,3.6499,3.6499,3.6499,3.6499,3.6499,3.6499,3.6499,3.6499,3.6499,3.6499,3.6499,3.6499,3.6499,3.6499,3.6499,3.6499,3.6499,3.6499,3.6499,3.6499,3.6499,3.6499,3.6469,3.6453,3.6345,3.6299,3.6215,3.6292,3.6253,3.6176,3.6215,3.6261,3.6307,3.6322,3.6345,3.6499,3.6453,3.6469,4.9441,4.9113,4.9594,4.9848,4.9963,5.08,5.1211,5.1211,5.1211,5.1211,5.1211,5.1211,5.1211,5.1211,5.1211,5.1211,5.1211,5.1211,5.1211,5.1211,5.1211,5.1211,5.1211,5.1211,5.1211,5.1211,5.1211,5.1211,5.1211,5.1211,5.1211,5.1211,5.1211,5.1063,5.0804,5.0341,4.9733,4.9053,4.8558,4.7977,4.7354,4.7249,4.7128,4.6877,4.6407,4.5589,4.4423,4.3686,4.299,4.2294,4.1567,4.0925,4.0365,3.9813,3.9453,3.9354,3.9352,3.9271,3.9185,3.9584,3.963,3.9207,3.9314,3.9329,3.9098,3.8611,3.8589,3.9056,3.9406,3.9432,3.8888,3.8399,3.7884,3.7284,3.7138,3.7038,3.6846,3.6815,3.6722,3.6546,3.6499,3.6499,3.6499,3.6499,3.6499,3.6499,3.6499,3.6499,3.6499,3.6499,3.6499,3.6499,3.6499,3.6499,3.6392,3.6268,3.6345,3.6361,3.6053,3.6138,3.6122,3.6045,3.5953,3.5907,3.5876,3.586,3.586,3.5883,3.5914,3.596,3.5984,3.5984,3.6161,3.6376,3.6407,5.0532,5.0915,5.1164,5.0959,5.0921,5.1054,5.1174,5.1092,5.1136,5.1136,5.1117,5.1193,5.1234,5.1267,5.1332,5.1267,5.1396,5.1364,5.1267,5.1218,5.1211,5.1211,5.1211,5.1211,5.1211,5.1211,5.1211,5.1211,5.1211,5.1211,5.1211,5.1211,5.1211,5.0927,5.0179,5.0228,4.9814,4.9229,4.9028,4.8663,4.8098,4.7936,4.7605,4.7055,4.6869,4.6464,4.5759,4.5103,4.435,4.3735,4.3549,4.313,4.2005,4.1529,4.1336,4.0941,4.0977,4.0815,4.0457,4.0397,4.039,4.0221,3.9861,3.9821,4.0054,3.9616,3.9511,4.0105,4.0293,4.0168,3.965,3.9437,3.91,3.8577,3.8262,3.8031,3.7592,3.7454,3.7238,3.6669,3.6553,3.6522,3.6522,3.6715,3.6776,3.6684,3.6638,3.6592,3.653,3.6499,3.6499,3.6484,3.6361,3.6238,3.6107,3.5999,3.6099,3.6122,3.5691,3.5483,3.5406,3.5314,3.5144,3.5083,3.5113,3.5098,3.5113,3.5144,3.516,3.5198,3.5352,3.5691,3.6045,3.6284,3.6361,5.0444,5.0307,5.0289,5.0314,5.0353,5.0608,5.057,5.0363,5.0589,5.0708,5.0781,5.1054,5.1436,5.1808,5.1889,5.2155,5.2582,5.2139,5.1646,5.1299,5.1228,5.1234,5.1228,5.1228,5.1211,5.1211,5.1211,5.1202,5.1218,5.1228,5.1211,5.1211,5.1211,5.1089,5.0853,5.0836,5.0512,4.9846,4.9765,4.94,4.8704,4.8235,4.788,4.7637,4.7176,4.678,4.6528,4.5856,4.516,4.4496,4.397,4.321,4.2302,4.1777,4.1456,4.1155,4.1104,4.0926,4.0567,4.0489,4.0489,4.0467,4.0291,4.0283,4.0467,4.0233,4.0182,4.0483,4.0499,4.0375,4.0247,4.0175,3.9698,3.8646,3.8508,3.83,3.7646,3.7138,3.6769,3.663,3.69,3.7153,3.7261,3.7454,3.7492,3.7207,3.7153,3.7046,3.6638,3.6576,3.6499,3.6484,3.6207,3.5837,3.5622,3.5299,3.5121,3.5191,3.4967,3.4783,3.469,3.4482,3.4328,3.4251,3.4282,3.432,3.4335,3.4436,3.449,3.4736,3.506,3.5506,3.5999,3.6207,3.6284,5.0528,4.9939,5.017,5.0271,5.0342,5.0801,5.0878,5.0724,5.1086,5.1289,5.1393,5.1794,5.2203,5.2534,5.2598,5.2848,5.3246,5.2799,5.2398,5.196,5.1646,5.1581,5.1639,5.1879,5.1792,5.1662,5.1857,5.184,5.1565,5.1549,5.1436,5.1251,5.1211,5.1211,5.1211,5.1195,5.0934,5.0552,5.0512,5.0163,4.9416,4.872,4.8251,4.7936,4.729,4.6951,4.6861,4.6431,4.5881,4.5192,4.4472,4.3662,4.2792,4.2501,4.212,4.1578,4.1347,4.1114,4.0773,4.0608,4.0489,4.0489,4.0489,4.0489,4.0489,4.0489,4.0489,4.0489,4.0498,4.0489,4.0498,4.0489,4.0067,3.936,3.9307,3.8838,3.8046,3.7277,3.6938,3.6946,3.7023,3.7238,3.7538,3.7477,3.7746,3.75,3.7492,3.7422,3.6992,3.69,3.6684,3.633,3.5853,3.5491,3.5121,3.4675,3.4151,3.4136,3.4129,3.406,3.4029,3.3659,3.3404,3.3366,3.3366,3.3342,3.3373,3.3813,3.4021,3.439,3.486,3.5368,3.5853,3.6122,3.6238,5.0756,5.0089,5.0599,5.0831,5.0947,5.1514,5.1688,5.1854,5.2242,5.2407,5.2575,5.2888,5.3236,5.3333,5.335,5.3463,5.343,5.3398,5.3333,5.3123,5.2728,5.2407,5.2349,5.2799,5.2744,5.2446,5.2874,5.2777,5.21,5.2083,5.1857,5.1267,5.1211,5.1211,5.1211,5.1211,5.1186,5.1105,5.1137,5.0772,5.0147,4.9449,4.8834,4.8244,4.7484,4.7055,4.7047,4.6869,4.6496,4.5824,4.5127,4.4496,4.3905,4.3743,4.3251,4.2372,4.192,4.1541,4.1174,4.0727,4.0505,4.0489,4.0489,4.0489,4.0489,4.0489,4.0489,4.0489,4.0489,4.0489,4.0489,4.0489,4.0413,4.0467,4.0144,3.9623,3.87,3.7954,3.7615,3.7477,3.7061,3.6938,3.773,3.7361,3.74,3.7577,3.7692,3.7446,3.7323,3.7046,3.6645,3.6099,3.5445,3.4852,3.439,3.3874,3.3412,3.3436,3.349,3.3598,3.356,3.3205,3.3227,3.3104,3.2974,3.2781,3.292,3.3621,3.4021,3.4375,3.4837,3.5299,3.5699,3.6022,3.6191,5.0889,5.0918,5.0584,5.0741,5.1169,5.1403,5.1497,5.1581,5.2007,5.2496,5.2725,5.3134,5.3657,5.4088,5.412,5.4379,5.4563,5.4305,5.4114,5.4088,5.3942,5.3483,5.3107,5.3194,5.3236,5.3074,5.3252,5.2913,5.2236,5.2262,5.1873,5.1244,5.1211,5.1211,5.1211,5.1211,5.1211,5.1211,5.1211,5.1121,5.0836,5.0147,4.9749,4.9474,4.835,4.7742,4.7645,4.7176,4.6561,4.5881,4.5653,4.5225,4.4585,4.4512,4.4227,4.3648,4.2859,4.2245,4.1777,4.1047,4.0568,4.0489,4.0575,4.0505,4.0489,4.0489,4.0489,4.0489,4.0489,4.0489,4.0489,4.0489,4.0489,4.0437,4.0144,3.9707,3.9214,3.8669,3.8238,3.8238,3.843,3.8614,3.8715,3.8669,3.8568,3.863,3.8161,3.7569,3.7523,3.6953,3.6469,3.556,3.4837,3.4168,3.3583,3.3051,3.275,3.2789,3.2982,3.3299,3.329,3.3174,3.3535,3.3881,3.3789,3.362,3.3851,3.4313,3.4459,3.459,3.486,3.5344,3.5791,3.6138,3.6161,5.1106,5.1027,5.0929,5.1115,5.1535,5.1971,5.2203,5.2352,5.2912,5.3323,5.3641,5.4015,5.4402,5.4784,5.4833,5.5001,5.5302,5.5011,5.4833,5.4826,5.481,5.4395,5.3965,5.3981,5.4046,5.3813,5.4046,5.3602,5.2841,5.2673,5.2122,5.1364,5.1211,5.1211,5.1211,5.1211,5.1211,5.1211,5.1211,5.1211,5.1153,5.0487,5.0147,4.9911,4.8988,4.8341,4.7968,4.7281,4.6674,4.6359,4.6237,4.5937,4.5305,4.5233,4.4996,4.4545,4.3635,4.2997,4.2676,4.1887,4.1278,4.103,4.0962,4.0784,4.059,4.0489,4.0489,4.0489,4.0489,4.0489,4.0489,4.0489,4.0489,4.0467,4.0144,3.9791,3.9553,3.9146,3.8938,3.8968,3.9014,3.9214,3.943,3.9291,3.9276,3.9184,3.8553,3.8161,3.7884,3.7069,3.6384,3.573,3.5437,3.5153,3.4614,3.4052,3.3612,3.3467,3.3405,3.3583,3.366,3.3636,3.3936,3.4405,3.4467,3.4551,3.4667,3.4821,3.4998,3.5121,3.5206,3.5483,3.6022,3.6215,3.6222,5.1405,5.097,5.1471,5.1766,5.2048,5.2933,5.3342,5.369,5.4285,5.4689,5.4845,5.5197,5.5227,5.5399,5.527,5.5367,5.5399,5.5318,5.5334,5.5302,5.527,5.4978,5.4606,5.493,5.4897,5.4632,5.514,5.4444,5.3479,5.321,5.2501,5.1517,5.1211,5.1211,5.1211,5.1211,5.1211,5.1211,5.1211,5.1211,5.1121,5.0649,5.0399,5.0228,4.9368,4.8494,4.7864,4.7257,4.687,4.6886,4.6902,4.6521,4.5978,4.5921,4.567,4.5108,4.441,4.3848,4.3565,4.2885,4.2238,4.1681,4.1524,4.1346,4.083,4.0621,4.0489,4.0489,4.0489,4.0489,4.0489,4.0489,4.0489,4.0474,4.0467,4.019,3.9784,3.9599,3.9591,3.9584,3.9076,3.9098,3.9199,3.9122,3.89,3.9698,3.9052,3.8538,3.8269,3.78,3.7192,3.6623,3.6507,3.6584,3.5953,3.5299,3.4906,3.4598,3.4459,3.4536,3.4714,3.4721,3.469,3.4852,3.5198,3.5252,3.5113,3.5298,3.5537,3.5706,3.5814,3.6122,3.6469,3.6407,3.6392,5.1944,5.2241,5.1841,5.2211,5.3001,5.3309,5.3824,5.4491,5.4702,5.4994,5.5225,5.5375,5.5399,5.5399,5.5399,5.5399,5.5399,5.5399,5.5399,5.5399,5.5399,5.5334,5.5173,5.5351,5.5302,5.5173,5.5286,5.4612,5.3582,5.3091,5.2592,5.1396,5.1211,5.1211,5.1211,5.1211,5.1211,5.1211,5.1211,5.1211,5.1211,5.1056,5.0894,5.0797,4.9659,4.8405,4.7403,4.6982,4.691,4.6902,4.6902,4.6789,4.6635,4.6602,4.6472,4.6153,4.5393,4.4581,4.3857,4.3318,4.2583,4.1822,4.1669,4.1531,4.1386,4.0768,4.0544,4.0489,4.0489,4.0489,4.0489,4.0489,4.0489,4.0489,4.0489,4.0437,4.0313,4.0267,4.0221,4.019,4.0107,4.0107,4.0214,3.9667,3.9606,3.999,3.9591,3.8938,3.8638,3.8407,3.8015,3.7507,3.7369,3.7315,3.6661,3.6022,3.5614,3.5383,3.5322,3.5322,3.5522,3.5568,3.5445,3.5691,3.6115,3.5999,3.5683,3.5876,3.613,3.6268,3.6376,3.6576,3.6684,3.6623,3.6815,5.2368,5.2656,5.2318,5.2653,5.3384,5.3644,5.4125,5.4754,5.4998,5.5184,5.5358,5.5399,5.5399,5.5399,5.5399,5.5399,5.5399,5.5399,5.5399,5.5399,5.5399,5.5399,5.5399,5.5351,5.5286,5.5011,5.4914,5.412,5.3133,5.2712,5.222,5.1299,5.1211,5.1211,5.1211,5.1211,5.1211,5.1211,5.1211,5.1211,5.1211,5.1211,5.1211,5.0943,4.983,4.8575,4.8001,4.72,4.6755,4.6561,4.6699,4.6896,4.6908,4.6905,4.6913,4.6735,4.5898,4.525,4.4651,4.3968,4.3135,4.2145,4.2069,4.1639,4.1269,4.0676,4.0544,4.0489,4.0489,4.0489,4.0489,4.0489,4.0489,4.0489,4.0489,4.0489,4.0489,4.0489,4.0489,4.0489,4.0428,4.0428,4.0305,4.0028,4.0043,4.0274,3.9821,3.9214,3.9191,3.8984,3.8853,3.85,3.8245,3.7891,3.7246,3.6653,3.6153,3.5999,3.5976,3.6014,3.6115,3.6115,3.6076,3.6284,3.6422,3.6453,3.6238,3.6499,3.653,3.6546,3.6607,3.6823,3.71,3.7361,3.7615,5.2799,5.2799,5.2893,5.3199,5.3644,5.4028,5.4481,5.4921,5.5246,5.5358,5.5399,5.5399,5.5399,5.5399,5.5399,5.5399,5.5399,5.5399,5.5399,5.5399,5.5399,5.5399,5.5399,5.5351,5.5075,5.4476,5.4476,5.3661,5.2608,5.2148,5.1928,5.1315,5.1211,5.1211,5.1211,5.1211,5.1211,5.1211,5.1211,5.1211,5.1211,5.1195,5.1153,5.0691,4.9765,4.8873,4.8357,4.7549,4.6658,4.6058,4.6464,4.6745,4.6888,4.6909,4.68,4.6726,4.5891,4.5498,4.5197,4.4636,4.3815,4.2777,4.2577,4.2076,4.123,4.0744,4.0621,4.0636,4.0652,4.0489,4.0489,4.0489,4.0489,4.0489,4.0489,4.0489,4.0489,4.0489,4.0489,4.0489,4.0489,4.0489,4.0489,4.0351,4.0443,4.0413,3.9944,3.9621,3.9606,3.956,3.943,3.9368,3.9122,3.8553,3.7908,3.7161,3.6661,3.6376,3.6438,3.6469,3.6576,3.6684,3.6623,3.6438,3.6484,3.653,3.653,3.6499,3.6561,3.6645,3.6938,3.7246,3.7661,3.8138,3.8385,5.3294,5.3327,5.371,5.4141,5.4528,5.4649,5.49,5.5266,5.5348,5.5399,5.5399,5.5399,5.5399,5.5399,5.5399,5.5399,5.5399,5.5399,5.5399,5.5399,5.5399,5.5399,5.5399,5.5383,5.5027,5.4574,5.4347,5.3612,5.2495,5.2148,5.184,5.1348,5.1267,5.1267,5.1218,5.1228,5.1267,5.1211,5.1211,5.1211,5.1211,5.1195,5.0975,5.0496,4.962,4.8915,4.8202,4.7452,4.6845,4.669,4.6245,4.6363,4.6611,4.6753,4.6645,4.6262,4.5988,4.5631,4.5228,4.4947,4.4091,4.3081,4.2602,4.2546,4.1931,4.1175,4.0799,4.0953,4.0775,4.0489,4.0489,4.0489,4.0489,4.0489,4.0489,4.0489,4.0489,4.0489,4.0489,4.0489,4.0489,4.0489,4.0489,4.0489,4.0489,4.0489,4.0274,4.0098,4.0105,4.0067,3.999,3.9968,3.9953,3.9276,3.8577,3.7784,3.7123,3.6707,3.663,3.6638,3.6807,3.7146,3.7161,3.7054,3.6792,3.6653,3.6623,3.6576,3.6769,3.6999,3.7353,3.7723,3.8238,3.873,3.8977,5.3173,5.3421,5.3655,5.4162,5.4749,5.4822,5.5035,5.5369,5.5399,5.5399,5.5399,5.5399,5.5399,5.5399,5.5399,5.5399,5.5399,5.5399,5.5399,5.5399,5.5399,5.5399,5.5399,5.5399,5.4978,5.4574,5.4331,5.3651,5.2333,5.2197,5.1873,5.1452,5.15,5.1565,5.1387,5.1575,5.1452,5.1315,5.1211,5.1211,5.1211,5.1211,5.0959,5.061,4.9953,4.9238,4.8542,4.7839,4.7079,4.6512,4.635,4.594,4.5843,4.6249,4.6717,4.6345,4.5857,4.5646,4.5249,4.4955,4.3807,4.3059,4.2704,4.2186,4.163,4.0898,4.0729,4.0821,4.0852,4.0489,4.0489,4.0489,4.0489,4.0489,4.0489,4.0489,4.0489,4.0489,4.0489,4.0489,4.0489,4.0489,4.0489,4.0489,4.0489,4.0489,4.0489,4.0489,4.0489,4.0421,4.0313,4.0206,4.0052,3.9337,3.8738,3.8238,3.7638,3.7222,3.7007,3.7015,3.7138,3.7523,3.7738,3.7777,3.7454,3.7177,3.6892,3.6923,3.7153,3.7407,3.7823,3.8284,3.8845,3.9291,3.9537,5.3051,5.3399,5.3513,5.3975,5.4607,5.4765,5.4973,5.5262,5.5358,5.5399,5.5399,5.5399,5.5399,5.5399,5.5399,5.5399,5.5399,5.5399,5.5399,5.5399,5.5399,5.5399,5.5399,5.5334,5.514,5.4816,5.4671,5.3823,5.276,5.2511,5.2148,5.1954,5.2155,5.197,5.1656,5.1704,5.1598,5.1396,5.1211,5.1211,5.1211,5.1211,5.1211,5.1137,5.0496,4.9765,4.9247,4.8357,4.7491,4.6779,4.639,4.6002,4.4949,4.5832,4.6661,4.6557,4.5497,4.5418,4.5282,4.4581,4.3444,4.2641,4.2645,4.1936,4.1245,4.0944,4.0729,4.0551,4.0489,4.0489,4.0489,4.0489,4.0489,4.0489,4.0489,4.0489,4.0489,4.0489,4.0489,4.0489,4.0489,4.0489,4.0489,4.0489,4.0489,4.0489,4.0489,4.0489,4.0489,4.0489,4.0406,4.0252,3.9929,3.9199,3.8738,3.8568,3.813,3.7823,3.7699,3.7699,3.7792,3.7961,3.8192,3.85,3.8361,3.8069,3.7669,3.7438,3.7792,3.8146,3.8438,3.89,3.9522,3.9867,4.0083,5.3345,5.3448,5.3829,5.4087,5.4258,5.4639,5.4827,5.4942,5.5234,5.5399,5.5399,5.5367,5.5351,5.5399,5.5399,5.5399,5.5399,5.5399,5.5399,5.5399,5.5399,5.5399,5.5399,5.5399,5.5351,5.514,5.5189,5.4466,5.3544,5.3236,5.3042,5.2835,5.2446,5.2132,5.197,5.1873,5.1274,5.1234,5.1228,5.1211,5.1211,5.1211,5.1211,5.1024,5.0519,5.0024,4.9668,4.8729,4.779,4.7596,4.6479,4.6221,4.6343,4.6018,4.6153,4.5958,4.5444,4.4776,4.4812,4.41,4.3084,4.2388,4.2286,4.2127,4.1485,4.1168,4.0999,4.052,4.0489,4.0489,4.0489,4.0489,4.0489,4.0489,4.0489,4.0489,4.0489,4.0489,4.0489,4.0489,4.0489,4.0489,4.0489,4.0489,4.0489,4.0489,4.0489,4.0489,4.0428,4.0366,4.0098,3.9852,3.9667,3.9006,3.8738,3.8568,3.8599,3.8346,3.8392,3.8392,3.8461,3.8599,3.9021,3.9221,3.9107,3.8968,3.8645,3.8538,3.8661,3.8784,3.8984,3.9553,4.0237,4.0483,4.0636,5.3151,5.341,5.3633,5.4023,5.4491,5.4723,5.4931,5.5052,5.4913,5.5059,5.527,5.4962,5.5027,5.5334,5.5399,5.5399,5.5399,5.5399,5.5399,5.5399,5.5399,5.5399,5.5399,5.5399,5.5399,5.5399,5.5367,5.5205,5.4466,5.3965,5.3635,5.29,5.311,5.2948,5.2398,5.2333,5.2122,5.1831,5.1452,5.1228,5.1211,5.1211,5.1211,5.1179,5.0464,5.0163,4.9749,4.8778,4.8066,4.7823,4.6909,4.6223,4.6134,4.5959,4.5964,4.5267,4.4811,4.4539,4.4579,4.3818,4.2894,4.2149,4.195,4.1663,4.1168,4.0984,4.0922,4.0536,4.0489,4.0489,4.0489,4.0489,4.0489,4.0489,4.0489,4.0489,4.0489,4.0489,4.0489,4.0489,4.0489,4.0489,4.0489,4.0489,4.0489,4.0489,4.0489,4.0489,4.0298,4.0037,3.9667,3.9191,3.9037,3.8791,3.8691,3.8607,3.8938,3.8891,3.9076,3.9076,3.9098,3.9314,3.9637,3.9744,3.956,3.9476,3.9461,3.9199,3.8907,3.9145,3.9483,3.9958,4.0441,4.1047,4.1155,5.2926,5.3212,5.3228,5.371,5.447,5.4565,5.4775,5.4986,5.4622,5.4723,5.5038,5.4869,5.4978,5.5302,5.5399,5.5399,5.5399,5.5399,5.5399,5.5399,5.5399,5.5399,5.5399,5.5399,5.5399,5.5357,5.5124,5.5124,5.5033,5.4515,5.3602,5.2981,5.3272,5.3272,5.2777,5.2398,5.2171,5.1792,5.1396,5.1218,5.1211,5.1211,5.1072,5.082,5.0422,5.0008,4.9668,4.894,4.8316,4.8154,4.7605,4.6867,4.6312,4.621,4.5833,4.5196,4.4693,4.4455,4.4245,4.3641,4.2858,4.2162,4.1552,4.1107,4.0713,4.0489,4.0489,4.0489,4.0489,4.0489,4.0489,4.0489,4.0489,4.0489,4.0489,4.0489,4.0489,4.0489,4.0489,4.0489,4.0489,4.0489,4.0489,4.0489,4.0489,4.0489,4.0489,4.0489,4.0267,3.996,3.9775,3.9406,3.9107,3.9083,3.9237,3.9184,3.9368,3.943,3.9606,3.9729,3.9714,3.9791,3.999,4.0021,3.996,4.0006,3.999,3.9537,3.9153,3.9606,3.9997,4.01,4.0514,4.1197,4.1526,5.2713,5.2758,5.2735,5.3064,5.3574,5.398,5.4135,5.4285,5.4288,5.4353,5.4604,5.5049,5.5041,5.5334,5.5286,5.5302,5.5367,5.5383,5.5334,5.5334,5.5383,5.5351,5.5282,5.5223,5.5203,5.5073,5.4568,5.4648,5.481,5.3648,5.4033,5.4871,5.3407,5.3022,5.2569,5.203,5.1559,5.1262,5.1036,5.1051,5.1079,5.1043,5.0877,5.0369,5.0112,4.9807,4.9183,4.8821,4.8697,4.8656,4.7868,4.7253,4.6544,4.6276,4.569,4.5138,4.4923,4.4582,4.4077,4.3663,4.2887,4.1892,4.1087,4.0683,4.052,4.0489,4.0489,4.0489,4.0489,4.0489,4.0489,4.0489,4.0489,4.0489,4.0489,4.0489,4.0489,4.0489,4.0489,4.0489,4.0489,4.0489,4.0489,4.0489,4.0489,4.0489,4.0489,4.0489,4.0413,4.019,4.0206,3.996,3.9553,3.9599,4.0067,4.0021,3.9652,3.9806,4.0098,4.0213,4.029,4.0375,4.0283,4.0313,4.0283,4.0397,4.0443,4.0043,3.989,4.0237,4.0527,4.0745,4.1008,4.1593,4.1708,5.2139,5.2195,5.2205,5.2657,5.3395,5.3157,5.3446,5.3792,5.2857,5.2501,5.2933,5.3473,5.4142,5.4636,5.4784,5.4784,5.4849,5.5253,5.5081,5.5059,5.5108,5.5124,5.4928,5.4438,5.4119,5.3783,5.3268,5.2989,5.306,5.2411,5.2548,5.2751,5.2767,5.2591,5.2136,5.1496,5.0921,5.0498,5.0415,5.0405,5.0444,5.0666,5.0633,5.0418,5.0138,5.029,5.0094,4.8702,4.851,4.8244,4.7402,4.6784,4.6327,4.5891,4.5431,4.4952,4.4883,4.4616,4.4204,4.3778,4.2989,4.1801,4.0968,4.0489,4.0489,4.0489,4.0489,4.0489,4.0489,4.0489,4.0489,4.0489,4.0489,4.0489,4.0489,4.0489,4.0489,4.0489,4.0489,4.0489,4.0489,4.0489,4.0489,4.0489,4.0489,4.0489,4.0489,4.0489,4.0413,4.0313,4.0267,4.0067,3.963,3.9568,3.999,3.9914,3.976,4.012,4.0489,4.0489,4.0489,4.0489,4.0437,4.0489,4.0503,4.0492,4.0492,4.0479,4.0586,4.0832,4.1177,4.1543,4.1821,4.2034,4.1998,5.1803,5.1923,5.2164,5.274,5.3418,5.3017,5.3117,5.3343,5.2255,5.1581,5.1835,5.2578,5.3286,5.3925,5.4072,5.3946,5.4023,5.4311,5.4263,5.4196,5.4168,5.4273,5.3874,5.3426,5.2986,5.2431,5.2004,5.1804,5.2198,5.1167,5.1313,5.1774,5.2025,5.1675,5.1576,5.0896,5.038,5.0032,4.9896,4.9896,4.9975,4.9927,4.9748,4.9553,4.9116,4.8953,4.8868,4.794,4.7702,4.7574,4.7043,4.6099,4.5633,4.5285,4.4974,4.4742,4.4591,4.4591,4.4415,4.3713,4.2934,4.2032,4.0999,4.0621,4.0505,4.0505,4.0489,4.0489,4.0489,4.0489,4.0489,4.0489,4.0489,4.0489,4.0489,4.0489,4.0489,4.0489,4.0489,4.0489,4.0489,4.0489,4.0489,4.0489,4.0489,4.0489,4.0489,4.0489,4.0459,4.0329,4.016,3.9883,3.9498,3.956,3.9714,3.9714,3.9767,4.0213,4.0489,4.0489,4.0489,4.0463,4.0472,4.0489,4.051,4.0526,4.067,4.0863,4.1087,4.1326,4.1754,4.2224,4.2102,4.2255,4.2404,5.1887,5.2,5.2702,5.3292,5.3713,5.3735,5.3321,5.2857,5.2534,5.2241,5.1952,5.262,5.3014,5.3212,5.3179,5.2955,5.2867,5.3169,5.3163,5.2897,5.2997,5.2863,5.2584,5.2271,5.1863,5.1831,5.1247,5.1039,5.1651,5.0478,5.0403,5.0507,5.0515,5.0483,5.0862,5.0285,4.9913,4.984,4.9744,4.9751,4.9531,4.9262,4.8968,4.8396,4.8054,4.7963,4.7542,4.7208,4.7046,4.7125,4.6692,4.6056,4.5784,4.5335,4.4955,4.4638,4.46,4.4591,4.4514,4.3356,4.2802,4.2448,4.1516,4.0768,4.0582,4.052,4.0505,4.0489,4.0489,4.0489,4.0489,4.0505,4.0505,4.0489,4.0489,4.0489,4.0489,4.0489,4.0489,4.0489,4.0489,4.0489,4.0489,4.0489,4.0489,4.0489,4.0489,4.0489,4.0474,4.0406,4.0221,4.0091,3.976,3.9867,3.9975,3.9729,3.9813,4.0259,4.047,4.0436,4.0383,4.0314,4.0357,4.0453,4.0436,4.0381,4.0862,4.1353,4.1643,4.1943,4.2434,4.2749,4.257,4.2514,4.276,5.1613,5.2184,5.2437,5.2973,5.3459,5.2922,5.2734,5.2735,5.1981,5.1214,5.0728,5.0733,5.1312,5.1795,5.1899,5.1736,5.1703,5.2176,5.2166,5.1669,5.1934,5.1871,5.1586,5.109,5.0661,5.0178,4.9717,4.9584,4.9631,4.9283,4.9217,4.9238,4.9381,4.9375,4.9586,4.9291,4.8896,4.8555,4.8684,4.8855,4.8537,4.8799,4.8786,4.8106,4.7964,4.7621,4.708,4.6705,4.6441,4.6487,4.6,4.545,4.5273,4.4861,4.4776,4.46,4.4591,4.4591,4.4415,4.379,4.3328,4.2842,4.2094,4.1278,4.1223,4.0729,4.059,4.0551,4.0621,4.0606,4.0489,4.0513,4.0513,4.0505,4.0489,4.0489,4.0489,4.0489,4.0489,4.0489,4.0489,4.0489,4.0489,4.0489,4.0489,4.0489,4.0489,4.0489,4.0489,4.0489,4.0406,4.0406,4.0291,4.0313,4.0313,4.0356,4.0181,4.0407,4.0432,4.027,4.0209,4.0263,4.0246,4.0359,4.0298,4.0282,4.0966,4.1635,4.2186,4.2622,4.2946,4.322,4.3163,4.3151,4.3273,5.1324,5.1925,5.2498,5.3006,5.3365,5.284,5.2644,5.2419,5.1298,5.0424,4.9955,4.9669,5.0033,5.0745,5.0755,5.049,5.0507,5.096,5.1006,5.0529,5.0813,5.0687,5.0341,4.9987,4.9574,4.9021,4.88,4.8671,4.8826,4.8661,4.8676,4.8712,4.8594,4.8841,4.8949,4.8744,4.8528,4.8332,4.8538,4.8533,4.8332,4.8356,4.844,4.8029,4.7729,4.743,4.7031,4.6425,4.5721,4.5558,4.5174,4.461,4.4591,4.4591,4.4591,4.4591,4.4591,4.4591,4.4431,4.4292,4.3969,4.3861,4.2681,4.2057,4.1909,4.1599,4.1414,4.1276,4.1014,4.0922,4.0898,4.0876,4.0744,4.0744,4.0713,4.0729,4.0489,4.0489,4.0489,4.0489,4.0489,4.0489,4.0489,4.0489,4.0489,4.0489,4.0489,4.0489,4.0489,4.0489,4.0636,4.0784,4.0907,4.1045,4.1164,4.1286,4.1056,4.0709,4.0612,4.0582,4.0431,4.0545,4.0403,4.0239,4.0198,4.0404,4.1205,4.1887,4.2595,4.3,4.3189,4.3435,4.3665,4.3576,4.3437,5.1072,5.1318,5.2783,5.3315,5.3374,5.323,5.273,5.1716,5.0886,5.0328,4.9951,4.9836,4.9846,4.9884,4.9884,4.9691,4.9491,4.9806,4.9679,4.9481,4.9613,4.9431,4.9293,4.8991,4.8852,4.8702,4.8583,4.8583,4.8583,4.8583,4.8583,4.8583,4.8583,4.8656,4.8656,4.862,4.846,4.8307,4.843,4.8409,4.8271,4.806,4.79,4.7457,4.6877,4.6408,4.5924,4.5364,4.5104,4.4961,4.4814,4.4657,4.4591,4.4591,4.4591,4.4591,4.4591,4.4591,4.4575,4.4462,4.4477,4.4267,4.3433,4.287,4.2522,4.2319,4.204,4.2039,4.1912,4.174,4.1623,4.1423,4.1199,4.1168,4.1107,4.0913,4.0582,4.0489,4.0489,4.0489,4.0489,4.0489,4.0489,4.0489,4.0489,4.0489,4.0489,4.0489,4.0489,4.0489,4.0729,4.1315,4.15,4.1799,4.1914,4.1908,4.1629,4.1185,4.1328,4.1328,4.1116,4.0849,4.0803,4.0631,4.0245,4.0555,4.1545,4.2419,4.3206,4.3453,4.3358,4.3393,4.3537,4.3253,4.3124,5.0658,5.1202,5.1669,5.1869,5.1953,5.2427,5.2419,5.2034,5.129,5.0698,5.027,4.9345,4.931,4.9437,4.9133,4.8944,4.8944,4.8882,4.8903,4.881,4.8784,4.8785,4.8718,4.8615,4.8578,4.8568,4.8568,4.8583,4.8583,4.8583,4.8583,4.8583,4.8583,4.8583,4.8583,4.8583,4.8322,4.823,4.844,4.8363,4.825,4.8112,4.7671,4.7034,4.6511,4.5955,4.5229,4.4896,4.4739,4.4695,4.4667,4.4591,4.4591,4.4591,4.4591,4.4591,4.4591,4.4591,4.4591,4.4591,4.4591,4.4591,4.4104,4.3796,4.3307,4.2815,4.2517,4.2667,4.2718,4.2517,4.2204,4.194,4.1623,4.1423,4.1261,4.0907,4.0606,4.0489,4.0489,4.0489,4.0489,4.0489,4.0489,4.0489,4.0489,4.0489,4.0489,4.0489,4.0489,4.0489,4.0771,4.1364,4.1836,4.2064,4.2232,4.2255,4.1973,4.1728,4.1907,4.1895,4.1509,4.1297,4.1254,4.1164,4.0978,4.134,4.2043,4.2819,4.3418,4.3394,4.3324,4.3349,4.3314,4.313,4.302,4.9976,4.9984,5.0542,5.0927,5.1212,5.1363,5.1564,5.1774,5.1635,5.0997,4.9795,4.936,4.9264,4.9405,4.9015,4.8964,4.9643,4.8654,4.8481,4.91,4.8254,4.807,4.8081,4.8219,4.8163,4.8255,4.8471,4.8583,4.8583,4.8583,4.8583,4.8583,4.8583,4.8583,4.8583,4.8553,4.8409,4.8317,4.8307,4.8276,4.8255,4.8148,4.7558,4.7065,4.6619,4.569,4.5053,4.4806,4.4606,4.4591,4.4591,4.4591,4.4591,4.4591,4.4591,4.4591,4.4591,4.4591,4.4591,4.4591,4.4591,4.4591,4.4575,4.4375,4.4048,4.3602,4.3488,4.3494,4.3374,4.3204,4.2826,4.2432,4.2017,4.1608,4.1239,4.0869,4.0691,4.052,4.0489,4.0489,4.0489,4.0489,4.0489,4.0489,4.0489,4.0489,4.0489,4.0489,4.0489,4.0489,4.0797,4.129,4.1817,4.2243,4.2414,4.263,4.254,4.2429,4.2508,4.2387,4.1937,4.1752,4.1745,4.181,4.1851,4.2186,4.2425,4.2875,4.3334,4.3285,4.3255,4.3304,4.3284,4.32,4.316,4.9152,4.7964,4.9276,5.0121,5.0786,5.0281,5.0401,5.1113,5.1726,5.095,4.9311,4.9489,4.9634,4.9427,4.8934,4.9345,4.9463,4.8722,4.8577,4.967,4.7982,4.7416,4.7635,4.7567,4.7635,4.7835,4.8096,4.8383,4.8553,4.8583,4.8583,4.8583,4.8583,4.8583,4.8583,4.8583,4.8501,4.8476,4.8491,4.8491,4.8363,4.804,4.7558,4.725,4.6434,4.5505,4.5314,4.4991,4.4591,4.4591,4.4591,4.4591,4.4591,4.4591,4.4591,4.4591,4.4591,4.4591,4.4591,4.4591,4.4591,4.4591,4.4575,4.4545,4.431,4.4193,4.411,4.4064,4.3935,4.3846,4.3538,4.3057,4.2626,4.2164,4.1749,4.1324,4.0984,4.0744,4.0489,4.0489,4.0489,4.0489,4.0489,4.0489,4.0489,4.0489,4.0489,4.0489,4.0453,4.0453,4.0826,4.1259,4.1837,4.238,4.2815,4.302,4.319,4.3178,4.3073,4.2935,4.2531,4.2352,4.2241,4.2352,4.2476,4.2481,4.2705,4.307,4.324,4.3085,4.31,4.321,4.321,4.3145,4.305,4.8395,4.7105,4.7431,4.8012,4.8721,4.9094,4.9349,4.9639,5.0921,5.075,4.9768,4.9272,4.9139,4.9168,4.8931,4.9214,4.9181,4.8897,4.8814,4.8786,4.7801,4.7237,4.746,4.7171,4.7165,4.7511,4.784,4.8137,4.8491,4.8583,4.8583,4.8583,4.8537,4.8491,4.8583,4.8568,4.8491,4.8568,4.8583,4.8583,4.8501,4.7958,4.7419,4.6844,4.5998,4.5314,4.5022,4.4745,4.4591,4.4591,4.4591,4.4591,4.4591,4.4591,4.4591,4.4591,4.4591,4.4591,4.4591,4.4591,4.4591,4.4591,4.4591,4.4591,4.4575,4.4591,4.456,4.4529,4.4468,4.436,4.4129,4.3636,4.3143,4.2666,4.2127,4.1663,4.1223,4.0891,4.0536,4.0489,4.0489,4.0489,4.0489,4.0489,4.0489,4.0489,4.0489,4.0479,4.0357,4.0368,4.0782,4.1241,4.1896,4.2435,4.2862,4.3301,4.3402,4.3361,4.3219,4.3125,4.305,4.2915,4.2751,4.2936,4.307,4.296,4.293,4.3145,4.3195,4.305,4.3035,4.3195,4.307,4.296,4.2821,4.717,4.594,4.6198,4.6726,4.7463,4.8191,4.8681,4.9127,4.9865,4.9988,4.9642,4.9382,4.9334,4.9194,4.8986,4.9314,4.9379,4.871,4.8973,4.8866,4.8011,4.7325,4.7054,4.6876,4.6588,4.6845,4.7465,4.7932,4.843,4.8583,4.8583,4.8537,4.844,4.8348,4.8476,4.8399,4.8368,4.8583,4.8583,4.8583,4.846,4.7742,4.7106,4.6459,4.5736,4.5053,4.4806,4.4591,4.4591,4.4591,4.4591,4.4591,4.4591,4.4591,4.4591,4.4591,4.4591,4.4591,4.4591,4.4591,4.4591,4.4591,4.4591,4.4591,4.4591,4.4591,4.4591,4.4545,4.4545,4.4468,4.4129,4.3688,4.311,4.2602,4.1724,4.0984,4.083,4.0691,4.0513,4.0489,4.0489,4.0489,4.0489,4.0489,4.0487,4.0407,4.0425,4.0384,4.0279,4.0444,4.0804,4.1234,4.1873,4.2018,4.21,4.2793,4.3521,4.3438,4.3314,4.3255,4.318,4.324,4.3285,4.327,4.3255,4.324,4.327,4.3305,4.327,4.316,4.316,4.321,4.299,4.2686,4.2551,4.6049,4.4909,4.5338,4.6065,4.6845,4.7497,4.8226,4.8941,4.9052,4.9069,4.9121,4.9584,4.9841,4.9602,4.9275,5.0,5.0001,4.8893,4.9049,4.8924,4.7842,4.7475,4.7127,4.679,4.6514,4.6598,4.7139,4.7752,4.8317,4.846,4.8553,4.8445,4.8245,4.8014,4.8255,4.8204,4.8127,4.8471,4.8583,4.8583,4.8071,4.7357,4.686,4.6182,4.5413,4.4683,4.4591,4.4591,4.4591,4.4591,4.4591,4.4591,4.4591,4.4591,4.4591,4.4591,4.4591,4.4591,4.4591,4.4591,4.4591,4.4591,4.4591,4.4591,4.4591,4.4591,4.4591,4.4591,4.4591,4.4483,4.415,4.3858,4.3279,4.2716,4.1722,4.0768,4.0737,4.063,4.0544,4.052,4.052,4.0536,4.0551,4.0551,4.0466,4.0377,4.034,4.025,4.0289,4.0658,4.1037,4.1383,4.1848,4.1838,4.1758,4.2459,4.3508,4.3438,4.3305,4.3305,4.3305,4.3305,4.3305,4.3314,4.3314,4.3305,4.3305,4.3305,4.327,4.304,4.2975,4.2821,4.2332,4.2102,4.2138,4.6288,4.5458,4.5021,4.557,4.6716,4.7,4.7762,4.8893,4.9018,4.9018,4.9047,4.9068,4.9171,4.9189,4.9084,4.94,4.95,4.8763,4.8831,4.8851,4.8165,4.7803,4.7425,4.6961,4.6706,4.6849,4.7175,4.7598,4.8147,4.844,4.8583,4.8537,4.8501,4.8394,4.846,4.8363,4.8286,4.8476,4.8537,4.8553,4.8163,4.7481,4.6788,4.6065,4.532,4.4822,4.4591,4.4591,4.4591,4.4591,4.4591,4.4591,4.4591,4.4591,4.4591,4.4591,4.4591,4.4591,4.4591,4.4591,4.4591,4.4591,4.4591,4.4591,4.4591,4.4591,4.4591,4.4591,4.4591,4.4591,4.436,4.4298,4.3873,4.3448,4.2685,4.1839,4.1392,4.0984,4.0652,4.0652,4.0652,4.0698,4.0766,4.0725,4.06,4.0618,4.0845,4.075,4.0659,4.0957,4.1273,4.1603,4.1947,4.2222,4.2409,4.2695,4.3374,4.3324,4.3305,4.3305,4.3305,4.3305,4.3305,4.3305,4.3305,4.3305,4.3305,4.3225,4.2751,4.2506,4.2526,4.2341,4.1837,4.1565,4.1622]}]]